[[{"header":{"parameterUnit":"m.s-1","parameterCategory":1,"la1":30.6,"la2":29.2853,"lo1":-89.7004,"lo2":-87.6739,"dy":0.0162,"dx":0.0183,"nx":112,"ny":82,"refTime":"2024-08-01T06:00:00:Z","depth":0,"parameterNumber":2,"parameterNumberName":"U-component_of_WINDS"},"data":[0.0,0.0,0.0,0.0,0.0,0.0,0.0,0.0,0.0,0.0,0.0,0.0,0.0,0.0,0.0,0.0,0.0,0.0,0.0,0.0,0.0,0.0,0.0,0.0,0.0,0.0,0.0,0.0,0.0,0.0,0.0,0.0,0.0,0.0,0.0,0.0,0.0,0.0,0.0,0.0,0.0,0.0,0.0,0.0,0.0,0.0,0.0,0.0,0.0,0.0,0.0,0.0,0.0,0.0,0.0,0.0,0.0,0.0,0.0,0.0,0.0,0.0,0.0,0.0,0.0,0.0,0.0,0.0,0.0,0.0,0.0,0.0,0.0,0.0,0.0,0.0,0.0,0.0,0.0,0.0,0.0,0.0,0.0,0.0,0.0,0.0,0.0,0.0,0.0,0.0,1.4516,1.6327,1.8263,1.9199,1.868,1.8499,1.6975,1.3616,0.0,0.0,0.0,0.0,0.0,0.0,0.0,0.0,0.0,0.0,0.0,0.0,0.0,0.0,0.0,0.0,0.0,0.0,0.0,0.0,0.0,0.0,0.0,0.0,0.0,0.0,0.0,0.0,0.0,0.0,0.0,0.0,0.0,0.0,0.0,0.0,0.0,0.0,0.0,0.0,0.0,0.0,0.0,0.0,0.0,0.0,0.0,0.0,0.0,0.0,0.0,0.0,0.0,0.0,0.0,0.0,0.0,0.0,0.0,0.0,0.0,0.0,0.0,0.0,0.0,0.0,0.0,0.0,0.0,0.0,0.0,0.0,0.0,0.0,0.0,0.0,0.0,0.0,0.0,0.0,0.0,0.0,0.0,0.0,0.0,0.0,0.0,0.0,0.0,0.0,0.0,0.0,0.0,0.0,0.0,0.0,0.0,0.0,0.0,0.0,0.0,0.0,0.0,0.0,1.5034,1.8069,1.8986,1.9224,1.8803,1.8538,1.6975,1.3616,0.0,0.0,0.0,0.0,0.0,0.0,0.0,0.0,0.0,0.0,0.0,0.0,0.0,0.0,0.0,0.0,0.0,0.0,0.0,0.0,0.0,0.0,0.0,0.0,0.0,0.0,0.0,0.0,0.0,0.0,0.0,0.0,0.0,0.0,0.0,0.0,0.0,0.0,0.0,0.0,0.0,0.0,0.0,0.0,0.0,0.0,0.0,0.0,0.0,0.0,0.0,0.0,0.0,0.0,0.0,0.0,0.0,0.0,0.0,0.0,0.0,0.0,0.0,0.0,0.0,0.0,0.0,0.0,0.0,0.0,0.0,0.0,0.0,0.0,0.0,0.0,0.0,0.0,0.0,0.0,0.0,0.0,0.0,0.0,0.0,0.0,0.0,0.0,0.0,0.0,0.0,0.0,0.0,0.0,0.0,0.0,0.0,0.0,0.0,0.0,0.0,0.0,0.0,1.487,1.6399,1.9194,1.9536,1.9369,1.8853,1.8538,1.6975,1.3616,1.2842,0.0,0.0,0.0,0.0,0.0,0.0,0.0,0.0,0.0,0.0,0.0,0.0,0.0,0.0,0.0,0.0,0.0,0.0,0.0,0.0,0.0,0.0,0.0,0.0,0.0,0.0,0.0,0.0,0.0,0.0,0.0,0.0,0.0,0.0,0.0,0.0,0.0,0.0,0.0,0.0,0.0,0.0,0.0,0.0,0.0,0.0,0.0,0.0,0.0,0.0,0.0,0.0,0.0,0.0,0.0,0.0,0.0,0.0,0.0,0.0,0.0,0.0,0.0,0.0,0.0,0.0,0.0,0.0,0.0,0.0,0.0,0.0,0.0,0.0,0.0,0.0,0.0,0.0,0.0,0.0,0.0,0.0,0.0,0.0,0.0,0.0,0.0,0.0,0.0,0.0,0.0,0.0,0.0,0.0,0.0,0.0,0.0,0.0,0.0,0.0,0.0,0.0,1.66,1.7657,1.99,1.9955,1.9582,1.8899,1.8338,1.6711,1.3599,1.2704,0.0,0.0,0.0,0.0,0.0,0.0,0.0,0.0,0.0,0.0,0.0,0.0,0.0,0.0,0.0,0.0,0.0,0.0,0.0,0.0,0.0,0.0,0.0,0.0,0.0,0.0,0.0,0.0,0.0,0.0,0.0,0.0,0.0,0.0,0.0,0.0,0.0,0.0,0.0,0.0,0.0,0.0,0.0,0.0,0.0,0.0,0.0,0.0,0.0,0.0,0.0,0.0,0.0,0.0,0.0,0.0,0.0,0.0,0.0,0.0,0.0,0.0,0.0,0.0,0.0,0.0,0.0,0.0,0.0,0.0,0.0,0.0,0.0,0.0,0.0,0.0,0.0,0.0,0.0,0.0,0.0,0.0,0.0,0.0,0.0,0.0,0.0,0.0,0.0,0.0,0.0,0.0,0.0,0.0,0.0,0.0,0.0,0.0,0.0,0.0,0.0,0.0,1.6797,1.8368,2.0088,2.0277,1.9906,1.9059,1.7711,1.5909,1.3548,1.1744,0.0,0.0,0.0,0.0,0.0,0.0,0.0,0.0,0.0,0.0,0.0,0.0,0.0,0.0,0.0,0.0,0.0,0.0,0.0,0.0,0.0,0.0,0.0,0.0,0.0,0.0,0.0,0.0,0.0,0.0,0.0,0.0,0.0,0.0,0.0,0.0,0.0,0.0,0.0,0.0,0.0,0.0,0.0,0.0,0.0,0.0,0.0,0.0,0.0,0.0,0.0,0.0,0.0,0.0,0.0,0.0,0.0,0.0,0.0,0.0,0.0,0.0,0.0,0.0,0.0,0.0,0.0,0.0,0.0,0.0,0.0,0.0,0.0,0.0,0.0,0.0,0.0,0.0,0.0,0.0,0.0,0.0,0.0,0.0,0.0,0.0,0.0,0.0,0.0,0.0,0.0,0.0,0.0,0.0,0.0,0.0,0.0,0.0,0.0,0.0,0.0,0.0,1.6362,1.7894,2.013,2.0331,2.0069,1.9495,1.8665,1.6903,1.3959,0.0,0.0,0.0,0.0,0.0,0.0,0.0,0.0,0.0,0.0,0.0,0.0,0.0,0.0,0.0,0.0,0.0,0.0,0.0,0.0,0.0,0.0,0.0,0.0,0.0,0.0,0.0,0.0,0.0,0.0,0.0,0.0,0.0,0.0,0.0,0.0,0.0,0.0,0.0,0.0,0.0,0.0,0.0,0.0,0.0,0.0,0.0,0.0,0.0,0.0,0.0,0.0,0.0,0.0,0.0,0.0,0.0,0.0,0.0,0.0,0.0,0.0,0.0,0.0,0.0,0.0,0.0,0.0,0.0,0.0,0.0,0.0,0.0,0.0,0.0,0.0,0.0,0.0,0.0,0.0,0.0,0.0,0.0,0.0,0.0,0.0,0.0,0.0,0.0,0.0,0.0,0.0,0.0,0.0,0.0,0.0,0.0,0.0,0.0,0.0,0.0,0.0,1.5117,1.6348,1.7874,2.0153,2.0349,2.0143,1.9738,1.8633,1.6821,1.4167,0.0,0.0,0.0,0.0,0.0,0.0,0.0,0.0,0.0,0.0,0.0,0.0,0.0,0.0,0.0,0.0,0.0,0.0,0.0,0.0,0.0,0.0,0.0,0.0,0.0,0.0,0.0,0.0,0.0,0.0,0.0,0.0,0.0,0.0,0.0,0.0,0.0,0.0,0.0,0.0,0.0,0.0,0.0,0.0,0.0,0.0,0.0,0.0,0.0,0.0,0.0,0.0,0.0,0.0,0.0,0.0,0.0,0.0,0.0,0.0,0.0,0.0,0.0,0.0,0.0,0.0,0.0,0.0,0.0,0.0,0.0,0.0,0.0,0.0,0.0,0.0,0.0,0.0,0.0,0.0,0.0,0.0,0.0,0.0,0.0,0.0,0.0,0.0,0.0,0.0,0.0,0.0,0.0,0.0,0.0,0.0,0.0,0.0,0.0,0.0,0.0,0.0,1.5176,1.6855,1.8549,2.0223,2.0347,2.0143,1.9738,1.7266,1.5242,0.0,0.0,0.0,0.0,0.0,0.0,0.0,0.0,0.0,0.0,0.0,0.0,0.0,0.0,0.0,0.0,0.0,0.0,0.0,0.0,0.0,0.0,0.0,0.0,0.0,0.0,0.0,0.0,0.0,0.0,0.0,0.0,0.0,0.0,0.0,0.0,0.0,0.0,0.0,0.0,0.0,0.0,0.0,0.0,0.0,0.0,0.0,0.0,0.0,0.0,0.0,0.0,0.0,0.0,0.0,0.0,0.0,0.0,0.0,0.0,0.0,0.0,0.0,0.0,0.0,0.0,0.0,0.0,0.0,0.0,0.0,0.0,0.0,0.0,0.0,0.0,0.0,0.0,0.0,0.0,0.0,0.0,0.0,0.0,0.0,0.0,0.0,0.0,0.0,0.0,0.0,0.0,0.0,0.0,0.0,0.0,0.0,0.0,0.0,0.0,0.0,0.0,0.0,1.5176,1.6894,1.8588,2.0223,2.0386,2.0307,2.0143,1.8562,1.6704,1.4558,0.0,0.0,0.0,0.0,0.0,0.0,0.0,0.0,0.0,0.0,0.0,0.0,0.0,0.0,0.0,0.0,0.0,0.0,0.0,0.0,0.0,0.0,0.0,0.0,0.0,0.0,0.0,0.0,0.0,0.0,0.0,0.0,0.0,0.0,0.0,0.0,0.0,0.0,0.0,0.0,0.0,0.0,0.0,0.0,0.0,0.0,0.0,0.0,0.0,0.0,0.0,0.0,0.0,0.0,0.0,0.0,0.0,0.0,0.0,0.0,0.0,0.0,0.0,0.0,0.0,0.0,0.0,0.0,0.0,0.0,0.0,0.0,0.0,0.0,0.0,0.0,0.0,0.0,0.0,0.0,0.0,0.0,0.0,0.0,0.0,0.0,0.0,0.0,0.0,0.0,0.0,0.0,0.0,0.0,0.0,0.0,0.0,0.0,0.0,0.0,0.0,0.0,1.5176,1.6894,1.8592,2.0267,2.0441,2.0408,2.0312,1.9172,1.7539,1.5301,0.0,0.0,0.0,0.0,0.0,0.0,0.0,0.0,0.0,0.0,0.0,0.0,0.0,0.0,0.0,0.0,0.0,0.0,0.0,0.0,0.0,0.0,0.0,0.0,0.0,0.0,0.0,0.0,0.0,0.0,0.0,0.0,0.0,0.0,0.0,0.0,0.0,0.0,0.0,0.0,0.0,0.0,0.0,0.0,0.0,0.0,0.0,0.0,0.0,0.0,0.0,0.0,0.0,0.0,0.0,0.0,0.0,0.0,0.0,0.0,0.0,0.0,0.0,0.0,0.0,0.0,0.0,0.0,0.0,0.0,0.0,0.0,0.0,0.0,0.0,0.0,0.0,0.0,0.0,0.0,0.0,0.0,0.0,0.0,0.0,0.0,0.0,0.0,0.0,0.0,0.0,0.0,0.0,0.0,0.0,0.0,0.0,0.0,0.0,0.0,0.0,0.0,1.5171,1.6933,1.8652,2.0312,2.0491,2.0453,2.0308,1.9281,1.7892,1.6121,0.0,0.0,0.0,0.0,0.0,0.0,0.0,0.0,0.0,0.0,0.0,0.0,0.0,0.0,0.0,0.0,0.0,0.0,0.0,0.0,0.0,0.0,0.0,0.0,0.0,0.0,0.0,0.0,0.0,0.0,0.0,0.0,0.0,0.0,0.0,0.0,0.0,0.0,0.0,0.0,0.0,0.0,0.0,0.0,0.0,0.0,0.0,0.0,0.0,0.0,0.0,0.0,0.0,0.0,0.0,0.0,0.0,0.0,0.0,0.0,1.3365,1.2191,0.0,0.0,0.0,0.0,0.0,0.0,0.0,0.0,0.0,0.0,0.0,0.0,0.0,0.0,0.0,0.0,0.0,0.0,0.0,0.0,0.0,0.0,0.0,0.0,0.0,0.0,0.0,0.0,0.0,0.0,0.0,0.0,0.0,0.0,0.0,0.0,0.0,0.0,0.0,0.0,1.5182,1.7431,1.9316,2.0312,2.0464,2.0447,2.0311,1.9502,1.8138,1.614,1.4344,0.0,0.0,0.0,0.0,0.0,0.0,0.0,0.0,0.0,0.0,0.0,0.0,0.0,0.0,0.0,0.0,0.0,0.0,0.0,0.0,0.0,0.0,0.0,0.0,0.0,0.0,0.0,0.0,0.0,0.0,0.0,0.0,0.0,0.0,0.0,0.0,0.0,0.0,0.0,0.0,0.0,0.0,0.0,0.0,0.0,0.0,0.0,0.0,0.0,0.0,0.0,0.0,0.0,0.0,0.0,0.0,0.0,0.0,0.0,1.5936,1.4844,0.0,0.0,0.0,0.0,0.0,0.0,0.0,0.0,0.0,0.0,0.0,0.0,0.0,0.0,0.0,0.0,0.0,0.0,0.0,0.0,0.0,0.0,0.0,0.0,0.0,0.0,0.0,0.0,0.0,0.0,0.0,0.0,0.0,0.0,0.0,0.0,0.0,0.0,0.0,0.0,1.5709,1.7718,1.9378,2.0332,2.0488,2.0466,2.0397,2.0017,1.9115,1.7536,1.5659,0.0,0.0,0.0,0.0,0.0,0.0,0.0,0.0,0.0,0.0,0.0,0.0,0.0,0.0,0.0,0.0,0.0,0.0,0.0,0.0,0.0,0.0,0.0,0.0,0.0,0.0,0.0,0.0,0.0,0.0,0.0,0.0,0.0,0.0,0.0,0.0,0.0,0.0,0.0,0.0,0.0,0.0,0.0,0.0,0.0,0.0,0.0,0.0,0.0,0.0,0.0,0.0,0.0,1.7519,1.8,1.8904,1.8861,1.9465,2.0476,1.8754,1.8075,1.8034,1.6122,0.0,0.0,0.0,0.0,0.0,0.0,0.0,0.0,0.0,0.0,0.0,0.0,0.0,0.0,0.0,0.0,0.0,0.0,0.0,0.0,0.0,0.0,1.6706,1.7187,1.7998,1.7894,1.5162,0.0,0.0,0.0,0.0,0.0,0.0,0.0,0.0,0.0,0.0,0.0,1.617,1.7929,1.936,2.0228,2.0398,2.0442,2.0447,2.0451,2.0031,1.9057,1.7208,1.554,0.0,0.0,0.0,0.0,0.0,0.0,0.0,0.0,0.0,0.0,0.0,0.0,0.0,0.0,0.0,0.0,0.0,0.0,0.0,0.0,0.0,0.0,0.0,0.0,0.0,0.0,0.0,0.0,0.0,0.0,0.0,0.0,1.0806,1.1563,0.0,0.0,0.0,0.0,0.0,0.0,0.0,0.0,0.0,0.0,0.0,0.0,0.0,1.763,1.8377,1.9938,2.0769,2.0896,2.2409,2.3215,2.3359,2.3358,2.344,2.3602,2.3327,0.0,2.0047,1.907,0.0,0.0,0.0,0.0,0.0,0.0,0.0,0.0,0.0,0.0,0.0,0.0,0.0,0.0,0.0,0.0,0.0,0.0,0.0,0.0,0.0,0.0,1.9967,1.9363,1.9863,2.0149,1.9029,1.7052,1.5177,1.418,1.3355,1.2808,0.0,0.0,0.0,0.0,0.0,0.0,1.5791,1.8211,1.9857,1.9647,2.0,2.0241,2.0234,2.0238,1.9882,1.9044,1.8072,1.6353,1.3718,1.2523,0.0,0.0,0.0,0.0,0.0,0.0,0.0,0.0,0.0,0.0,0.0,0.0,0.0,0.0,0.0,0.0,0.0,0.0,0.0,0.0,0.0,0.0,0.0,0.0,0.0,0.0,0.0,0.0,0.0,1.1304,1.2539,1.3156,1.3782,1.3801,0.0,0.0,0.0,0.0,0.0,0.0,0.0,0.0,0.0,1.9021,1.9602,2.0347,2.1274,2.2504,2.3141,2.3159,2.4574,2.4935,2.4333,2.4699,2.4766,2.4577,2.4319,2.384,2.3123,2.1407,1.9971,1.8726,0.0,0.0,0.0,0.0,1.731,1.6889,1.8533,1.8517,1.7753,1.7671,0.0,0.0,0.0,0.0,0.0,0.0,0.0,1.6857,1.7365,1.8796,2.0062,2.0051,2.0946,2.1598,2.0779,1.9752,1.827,1.5881,1.5568,1.5156,1.3402,1.3235,0.0,0.0,0.0,1.675,1.7614,1.9053,1.9961,1.991,2.008,1.9976,1.9416,1.9364,1.9323,1.923,1.8261,1.7316,1.6506,1.2992,1.0397,0.0,0.0,0.0,0.0,0.0,0.0,0.0,0.0,0.0,0.0,0.0,0.0,0.0,0.0,0.0,0.0,0.0,0.0,0.0,0.0,0.0,0.0,0.0,0.0,0.0,0.0,0.0,0.0,1.2823,1.4172,1.4766,1.5789,1.6011,0.0,0.0,0.0,0.0,0.0,0.0,1.7833,1.9378,2.0726,2.1755,2.2324,2.3032,2.391,2.4521,2.4824,2.4824,2.5768,2.5733,2.4825,2.5438,2.5522,2.517,2.4922,2.5146,2.554,2.3324,2.1859,2.0931,2.0335,1.9741,1.9277,2.0076,1.9716,1.915,2.1061,2.1105,2.0247,1.9999,1.9583,1.8866,1.7224,0.0,0.0,0.0,0.0,1.7486,1.8623,1.9409,2.0009,2.0459,2.1401,2.2041,2.1443,2.1437,2.0732,1.7831,1.7665,1.7257,1.4916,1.4888,0.0,1.5364,1.6475,1.7694,1.8787,1.9504,1.9899,1.9911,1.9758,1.9459,1.9023,1.8638,1.8781,1.9592,1.6619,1.5121,1.5722,1.0008,0.6619,0.6208,0.0,0.0,0.0,0.0,0.0,0.0,0.0,0.0,0.0,0.0,0.0,0.0,0.0,0.0,0.0,0.0,0.0,0.0,0.0,0.0,0.0,0.0,0.0,0.0,0.0,0.0,0.0,0.0,0.0,1.6492,1.7845,0.0,0.0,0.0,0.0,1.6627,1.7969,1.9442,2.0899,2.2039,2.3431,2.5199,2.527,2.5478,2.5859,2.5895,2.5913,2.5913,2.6366,2.6348,2.5942,2.6342,2.632,2.5947,2.6315,2.6512,2.6413,2.4744,2.36,2.2847,2.2813,2.2317,2.1661,2.1818,2.1847,2.182,2.2139,2.1752,2.1245,2.1921,2.0883,1.9361,1.9246,1.8399,0.0,0.0,1.8617,1.9745,1.9808,2.0367,2.0911,2.0959,2.1023,2.107,2.1038,2.1285,2.1233,2.0364,1.9174,1.8286,1.8322,0.0,1.726,1.7024,1.8054,1.8659,1.8042,1.9026,1.9644,1.9184,1.8512,1.8555,1.9646,1.8475,1.8392,2.0135,1.2196,0.7461,0.7506,0.1344,-0.2796,-0.4401,-0.3462,0.0,0.0,0.0,0.0,0.0,0.0,0.0,0.0,0.0,0.0,0.0,0.0,0.0,0.0,0.0,0.0,0.0,0.0,0.0,0.0,0.0,0.0,0.0,0.0,0.0,0.0,0.0,0.0,1.8599,1.9739,0.0,1.8927,1.9976,2.0602,2.0331,2.1875,2.2952,2.3304,2.3904,2.4517,2.515,2.5185,2.5322,2.5664,2.6205,2.6454,2.6454,2.7355,2.7411,2.6788,2.7191,2.7273,2.7119,2.648,2.6509,2.688,2.5578,2.5152,2.5269,2.474,2.424,2.3746,2.3264,2.2805,2.2457,2.2522,2.2265,2.1955,2.2226,2.1623,2.0825,2.0825,2.0335,1.9779,1.9779,1.9973,2.0172,2.0172,1.9909,1.9743,2.007,2.0143,2.0112,2.0112,2.0684,2.1003,2.039,1.9947,1.9318,1.8303,1.8355,1.8383,1.7955,1.8543,1.8876,1.8355,1.856,1.8424,1.7541,1.718,1.704,1.7026,1.3684,1.0509,0.7904,0.5421,0.3937,0.3621,-0.0159,-0.2924,-0.4338,-0.5529,-0.5522,0.0,0.0,0.0,0.0,0.0,0.0,0.0,0.0,0.0,0.0,0.0,0.0,0.0,0.0,0.0,0.0,0.0,0.0,0.0,0.0,0.0,0.0,0.0,0.0,0.0,1.605,1.805,2.0035,2.1254,2.1634,2.0846,2.2158,2.3038,2.3038,2.4154,2.4834,2.4879,2.5077,2.5377,2.5767,2.5648,2.5737,2.6111,2.6619,2.6911,2.6911,2.7798,2.787,2.7255,2.7781,2.7929,2.7798,2.724,2.7305,2.7735,2.6988,2.6881,2.7086,2.5909,2.5366,2.518,2.4415,2.3703,2.305,2.2703,2.2337,2.2061,2.2061,2.1658,2.1165,2.1165,2.0878,2.0565,2.0565,2.033,2.0089,2.0089,1.9507,1.9006,1.9369,1.9251,1.9096,1.9096,1.9417,1.9672,1.9531,1.995,2.0008,1.8903,1.9019,1.9176,1.8828,1.8713,1.8573,1.8371,1.7885,1.7279,1.6504,1.6191,1.6043,1.6124,1.3059,0.8188,0.128,0.0107,-0.1616,-0.4524,-0.6447,-0.7566,-0.7882,-0.8933,-0.8605,-0.6827,0.0,0.0,0.0,0.0,0.0,0.0,0.0,0.0,0.0,0.0,0.0,0.0,0.0,0.0,0.0,0.0,0.0,0.0,0.0,0.0,0.0,0.0,0.0,1.4492,1.6979,1.9757,2.073,2.2366,2.3139,2.2462,2.368,2.454,2.454,2.4574,2.4864,2.5609,2.5642,2.6141,2.7238,2.6906,2.6873,2.7272,2.7272,2.7272,2.7303,2.7678,2.7672,2.733,2.8059,2.8219,2.7942,2.8665,2.8957,2.8989,2.8963,2.8729,2.8201,2.6286,2.575,2.5931,2.5267,2.4555,2.3774,2.2728,2.207,2.1678,2.1661,2.1055,2.0345,2.0314,2.0035,1.969,1.969,1.969,1.969,1.969,1.9281,1.8893,1.8893,1.8496,1.8066,1.8066,1.7612,1.7356,1.7933,1.9192,2.0181,2.0196,1.9834,1.9564,1.9588,1.8555,0.0,1.785,1.6881,1.6198,1.6156,1.544,1.5498,1.676,1.642,1.1667,0.1095,-0.3739,-0.9526,-1.7008,-1.7791,-1.7315,-1.5742,-1.3971,-1.2543,-1.1513,0.0,0.0,0.0,0.0,0.0,0.0,0.0,0.0,0.0,0.0,0.0,0.0,0.0,0.0,0.0,0.0,0.0,0.0,0.0,0.0,0.0,1.9791,2.1727,2.0091,2.0788,2.1585,2.1849,2.2954,2.3887,2.436,2.4961,2.5304,2.5304,2.5778,2.6167,2.6387,2.6404,2.6538,2.6873,2.6758,2.6758,2.6873,2.6873,2.6873,2.6873,2.7255,2.7407,2.731,2.7823,2.8129,2.826,2.8215,2.8338,2.8562,2.83,2.8279,2.8296,2.7176,2.6629,2.6393,2.5658,2.5063,2.462,2.4083,2.3806,2.3566,2.2692,2.2053,2.1431,2.0571,2.0035,1.969,1.969,1.969,1.969,1.969,1.9006,1.8419,1.8817,1.8185,1.7504,1.7504,1.7341,1.7137,1.6928,1.7167,1.7544,1.7981,1.831,1.8232,1.7343,1.7303,1.6731,1.5031,1.4564,1.3995,1.3114,1.2704,1.0384,0.5241,0.4604,0.0262,-0.9723,-1.1594,-1.3932,-1.7441,-1.7308,-1.6857,-1.6214,-1.4946,-1.4222,0.0,0.0,0.0,0.0,0.0,0.0,0.0,0.0,0.0,0.0,0.0,0.0,0.0,0.0,0.0,0.0,0.0,0.0,0.0,0.0,0.0,0.0,2.1165,2.273,2.3974,2.3085,2.2773,2.3994,2.4309,2.4585,2.5164,2.5725,2.6201,2.6505,2.6928,2.7317,2.7638,2.7655,2.7655,2.7655,2.7655,2.7655,2.7655,2.7655,2.7655,2.7655,2.7555,2.7519,2.7487,2.7601,2.7736,2.795,2.7912,2.8009,2.8175,2.7987,2.7932,2.7893,0.0,0.0,0.0,0.0,2.5431,2.5189,2.4669,2.4382,2.4078,2.3162,2.2565,2.2071,2.1178,2.054,2.0124,2.0124,1.9753,1.9369,1.9369,1.8574,1.7827,1.8185,1.7585,1.6909,1.6629,1.6378,1.6053,1.574,1.5472,0.0,1.5357,1.604,1.6519,1.6338,1.5251,1.4125,1.3274,1.256,1.1886,1.1158,0.8968,0.5293,-0.0298,-0.0757,0.0,0.0,0.0,-1.3763,-1.7546,-1.7065,0.0,0.0,0.0,0.0,0.0,-1.59,0.0,0.0,-1.4648,-1.4743,0.0,0.0,0.0,0.0,0.0,0.0,0.0,0.0,0.0,0.0,0.0,0.0,0.0,0.0,0.0,0.0,2.2807,2.3701,2.6337,2.4461,2.3771,2.6392,2.5904,2.5376,2.5361,2.6286,2.7148,2.7806,2.7891,2.8247,2.8941,2.9011,0.0,0.0,0.0,2.9011,2.9011,2.9011,2.9011,2.8975,2.8296,2.7945,2.7929,2.7521,2.742,2.7555,2.7745,2.7913,2.8017,2.794,2.7654,2.7303,2.7241,2.7439,2.7607,2.6236,2.5727,2.5625,2.4917,0.0,0.0,2.3353,2.2854,2.2393,2.1853,2.1291,2.0812,2.0737,1.9906,1.8993,1.8907,1.8106,1.7271,1.7216,1.6824,1.6337,1.5632,1.5062,1.4698,1.4606,1.4039,1.3379,1.2773,1.3642,1.4676,1.5449,1.2909,1.1187,1.1948,1.0839,0.968,0.9013,0.4499,0.0,-0.2093,-0.2871,-0.7396,-1.7202,-1.2746,-1.2283,-1.7907,-1.7509,-1.733,-1.769,-1.7722,-1.787,-1.8113,-1.9118,-1.9586,-1.9475,-1.6652,-1.6301,0.0,0.0,0.0,0.0,0.0,0.0,0.0,0.0,0.0,0.0,0.0,0.0,0.0,0.0,0.0,2.5362,2.5836,2.6033,2.6614,2.6231,2.6048,2.6629,2.6536,2.6421,2.6419,2.7315,2.796,2.8104,2.8533,2.8822,2.8975,2.9011,2.9011,2.9011,2.9011,2.9011,2.9011,2.9011,2.9011,2.9011,2.8846,0.0,2.8749,2.8031,2.8181,2.9017,2.7878,2.7924,2.8736,2.8132,2.7657,2.7272,2.6922,2.6873,2.6889,2.6605,2.6488,2.6421,2.5896,2.5671,2.5343,2.3812,2.3297,2.301,2.1988,2.1605,0.0,2.0857,2.0206,1.9569,1.9037,1.8106,1.7188,1.6689,1.6527,1.6194,1.5107,1.4789,1.4571,1.405,1.3034,1.2159,1.2003,1.3032,1.3209,1.1259,1.1719,1.1624,0.9673,0.9155,0.7142,0.2477,0.0053,-0.2349,-0.5185,-1.0273,-1.4504,-1.7333,-1.8273,-1.9358,-2.0788,-2.06,-2.0188,-1.9593,-1.9798,-1.9935,-1.9975,-2.0937,-2.1718,-2.2283,-2.0306,-1.9954,0.0,0.0,0.0,0.0,0.0,0.0,0.0,0.0,0.0,0.0,0.0,2.0518,2.2023,0.0,2.4997,2.6447,2.6303,2.6133,2.6639,2.6708,2.6707,2.669,2.6691,2.6723,2.6719,2.7872,2.8704,2.8928,2.9205,2.9563,3.0057,3.0091,3.0091,3.0091,3.0091,3.0091,3.0091,3.0091,3.0091,3.0091,2.9715,2.9553,2.9527,2.8752,2.8716,2.9187,2.8461,2.8249,2.8339,2.7614,2.7186,2.6971,2.6539,2.6367,2.6367,2.6367,2.6175,2.5944,2.5689,2.5615,2.54,2.4265,2.3878,2.3752,2.2892,2.2206,2.1715,2.1704,2.0417,1.9058,1.9007,1.7977,1.674,1.6145,1.6039,1.5732,1.4514,1.3982,1.3653,1.342,1.2218,1.1316,1.1316,1.1256,1.0873,0.9877,0.9496,0.8976,0.8086,0.5842,0.2667,-0.1659,-0.4037,-0.6821,-1.0496,-1.4856,-1.7777,-1.8696,-2.042,-2.1496,-2.1699,-2.1888,-2.1835,-2.1502,-2.1632,-2.1733,-2.1793,-2.2275,-2.2927,-2.373,-2.282,-2.2418,0.0,0.0,0.0,0.0,0.0,0.0,0.0,0.0,1.1913,2.0535,2.276,2.3031,2.2638,2.4514,2.6168,2.6382,2.5893,2.571,2.6319,2.6586,2.6719,2.6691,2.6706,2.6939,2.7515,2.8704,2.9604,2.9964,2.9998,3.0335,3.1157,3.119,3.119,3.119,3.119,3.119,3.119,3.119,3.119,3.119,3.0594,3.0297,3.0281,2.9549,2.927,2.9409,2.9276,2.8695,2.7771,2.7147,2.6826,2.6657,2.6191,2.5941,2.5852,2.5852,2.5577,2.5182,2.5089,2.5051,2.495,2.443,2.4225,2.4142,2.358,2.2703,2.196,2.2247,2.0498,1.8574,1.871,1.7587,1.6274,1.5433,1.5365,1.5084,1.3873,1.3178,1.2841,1.291,1.1642,1.0669,1.0762,0.9408,0.8462,0.9016,0.7326,0.5955,0.5671,0.132,-0.2654,-0.5085,-0.7694,-1.1022,-1.5372,-1.7801,-1.9531,-2.048,-2.148,-2.2093,-2.2168,-2.2634,-2.2978,-2.3118,-2.3146,-2.3207,-2.3325,-2.3505,-2.3954,-2.4648,-2.4602,-2.4223,1.4626,1.5014,1.5656,1.6256,1.5314,1.5445,0.0,0.0,1.3533,2.0789,2.437,2.5657,2.377,2.3719,2.4269,2.5228,2.601,2.627,2.5478,2.6148,2.6691,2.6691,2.6706,2.7735,3.0431,3.0871,3.0955,3.1021,3.1038,3.1089,3.119,3.119,3.119,3.119,3.119,3.119,3.119,3.119,3.119,3.119,3.114,3.1067,3.105,3.0297,3.0314,3.0931,3.0251,2.9138,2.7789,2.7705,2.73,2.6657,2.6191,2.5689,2.5297,2.5297,2.5259,2.5128,2.4657,2.4511,2.4389,2.3879,2.3681,2.358,2.2965,2.2696,2.2388,2.1324,2.0438,1.9443,1.7837,1.6917,1.602,1.437,1.4422,1.4468,1.3238,1.2871,1.2841,1.291,1.1292,1.0115,1.0712,0.8574,0.6853,0.6956,0.6688,0.4835,0.0164,-0.4728,-0.8251,-0.9429,-1.0517,-1.2861,-1.6996,-1.9336,-2.0985,-2.1984,-2.3004,-2.3566,-2.3584,-2.3822,-2.3947,-2.3974,-2.4014,-2.4088,-2.4164,-2.4943,-2.54,-2.5547,-2.5547,-2.5508,1.6893,1.7189,0.0,0.0,1.8227,1.8365,2.1557,2.0435,1.9502,2.2448,2.4035,2.4636,2.3771,2.4105,2.478,0.0,2.6108,2.6352,2.6122,2.5917,2.6032,2.6616,2.6693,2.7906,3.0896,3.1199,3.1198,3.1173,3.119,3.0982,3.0542,3.0925,3.1055,3.0699,3.1015,3.119,3.119,3.119,3.119,3.119,3.119,3.119,3.119,3.0875,3.0892,3.1157,3.0429,2.9736,2.9093,2.8161,2.7638,2.7231,2.5999,2.5411,2.5182,2.4855,2.4552,2.4225,2.3991,2.3906,2.3921,2.3681,2.3377,2.3009,2.2799,2.2175,2.1554,2.1374,2.0075,1.8672,1.8317,1.6967,1.5502,1.4392,1.4148,1.392,1.3055,1.2236,1.1756,1.2187,1.0626,0.9302,0.9518,0.79,0.6485,0.6223,0.5703,0.3616,-0.1265,-0.5936,-0.9106,-0.9821,-1.2474,-1.5119,-1.7402,-1.9554,-2.1354,-2.2643,-2.3397,-2.3934,-2.4248,-2.4617,-2.4793,-2.4793,-2.482,-2.4865,-2.4948,-2.5347,-2.559,-2.5637,-2.5683,-2.5683,1.8414,0.0,0.0,1.9669,2.0042,2.067,2.2298,2.3168,2.3579,2.3581,2.4056,2.4476,2.4484,2.4618,2.4982,2.568,2.6214,2.6626,2.6858,2.6138,2.5651,2.5807,2.5831,2.6698,2.8887,3.04,3.119,3.1213,3.0895,3.0484,3.0031,3.0601,3.074,3.0293,3.0878,3.119,3.119,3.119,3.119,3.119,3.119,3.119,3.119,3.119,3.119,3.1157,3.0632,3.0294,2.9968,2.8525,2.7897,2.7688,2.5728,2.51,2.5179,2.4467,2.3906,2.3595,2.3595,2.3595,2.3551,2.3421,2.3054,2.2649,2.2267,2.1403,2.0557,2.0815,1.9409,1.785,1.802,1.6777,1.5256,1.4374,1.3916,1.3504,1.2774,1.1633,1.0965,1.1416,1.0064,0.8791,0.8685,0.7528,0.649,0.6142,0.4463,0.1997,-0.1537,-0.6308,-0.9676,-1.046,-1.4116,-1.689,-1.7789,-1.9906,-2.1711,-2.2849,-2.3419,-2.3953,-2.4512,-2.496,-2.5234,-2.5303,-2.5303,-2.5348,-2.5428,-2.5488,-2.5547,-2.5633,-2.5683,-2.5659,0.0,0.0,2.0152,1.8238,1.9732,2.1972,2.3273,2.3568,2.3593,2.3578,2.521,2.6603,2.6605,2.4992,2.3977,2.5035,2.6319,2.7212,2.735,2.6951,2.5918,2.3926,2.3685,2.3717,2.3825,2.8305,3.12,3.1181,3.0119,2.9626,2.9984,3.0211,3.0293,3.0293,3.0878,3.119,3.119,3.119,3.119,3.119,3.119,3.119,3.119,3.119,3.119,3.119,3.1173,3.0768,3.0002,2.8705,2.8141,2.7853,2.5392,2.4808,2.525,2.4036,2.3595,2.3595,2.3595,2.3595,2.3508,2.292,2.2694,2.2466,2.1224,2.0307,1.9608,1.8967,1.8209,1.7389,1.6267,1.5966,1.5456,1.3898,1.3496,1.3208,1.2054,1.1266,1.0813,1.0813,0.971,0.8791,0.8685,0.7528,0.6608,0.6569,0.2883,-0.022,-0.1303,-0.6853,-1.1258,-1.257,-1.5611,-1.7814,-1.8424,-2.0798,-2.2381,-2.2695,-2.3204,-2.3742,-2.4307,-2.4755,-2.5099,-2.5303,-2.5303,-2.5371,-2.5508,-2.5489,-2.5564,-2.5703,-2.5703,-2.5633,0.0,0.0,2.1554,2.0589,2.1665,2.3062,2.3498,2.3621,2.3621,2.3591,2.4158,2.4387,2.3535,2.4092,2.4678,2.4665,2.6078,2.7567,2.8568,2.9293,2.8164,2.4096,2.5184,2.624,2.6231,2.7807,2.8821,2.8817,2.8437,2.824,2.8389,2.922,2.9717,2.9717,2.9884,3.0186,3.0594,3.0213,3.0001,3.0001,3.0404,3.0594,3.0611,3.1016,3.119,3.119,3.119,3.0824,3.0144,2.922,2.8625,2.8072,2.6369,2.5586,2.5299,2.452,2.3718,2.3054,2.3465,2.3334,2.2965,2.2754,2.1805,2.0604,2.0181,1.9245,1.8251,1.8058,1.7413,1.6778,1.6395,1.5756,1.4949,1.4106,1.3711,1.3176,1.2054,1.1266,1.0669,1.0218,0.9413,0.8474,0.7486,0.6902,0.5584,0.2656,-0.0714,-0.3727,-0.5958,-0.8937,-1.1536,-1.3521,-1.6039,-1.8101,-1.9325,-2.1361,-2.2772,-2.3204,-2.3722,-2.4253,-2.4742,-2.5046,-2.5224,-2.5303,-2.5303,-2.5337,-2.5434,-2.5488,-2.5551,-2.5634,-2.5683,-2.5633,2.0749,2.1695,2.2143,2.2325,2.2996,2.3613,2.3608,2.3595,2.346,2.2993,2.2918,2.2511,2.1233,2.263,2.4031,2.4042,2.5507,2.7134,2.843,3.0117,2.9662,2.5538,2.6547,2.758,2.7612,0.0,0.0,2.6923,2.7337,2.761,2.7598,2.8543,2.9061,2.9061,2.9286,2.9576,2.9967,2.9583,2.9389,2.9405,3.002,3.0286,3.0325,3.0914,3.1095,3.0878,3.0878,3.0518,2.9929,2.8984,2.8522,2.8239,2.6702,2.6016,2.5741,2.4882,2.3968,2.3103,2.3231,2.286,2.2253,2.1791,2.0752,1.9608,1.9089,1.8143,1.7202,1.7202,1.6698,1.6093,1.6093,1.5548,1.4836,1.4079,1.3936,1.3475,1.1636,1.1165,1.0721,0.9636,0.8896,0.8049,0.6804,0.6164,0.4542,0.0608,-0.2971,-0.6166,-0.8838,-1.0146,-1.1844,-1.4572,-1.6502,-1.8286,-2.0075,-2.1776,-2.293,-2.3356,-2.3895,-2.4407,-2.4911,-2.5107,-2.5224,-2.5303,-2.5303,-2.5337,-2.5441,-2.5488,-2.5551,-2.5636,-2.5683,-2.5633,2.1432,2.2034,2.2108,2.3313,2.3595,2.358,2.3419,2.3447,2.3139,2.196,2.1643,2.121,1.989,0.0,2.2269,2.3163,2.4679,2.6075,2.7074,2.9387,3.0142,0.0,0.0,0.0,0.0,0.0,0.0,2.5841,2.6886,2.7622,2.7595,2.8142,2.849,2.8505,2.9021,2.9307,2.933,2.9343,2.9311,2.9296,2.991,3.0243,3.0244,3.0848,3.0797,3.0293,3.0251,2.9892,2.9268,2.8044,2.7907,2.8244,2.6421,2.6063,2.6389,2.509,2.417,2.3497,2.2772,2.2146,2.1397,2.0105,1.9608,1.9297,1.7938,1.7034,1.6436,1.6436,1.5921,1.541,1.541,1.5352,1.5061,1.3898,1.4148,1.3858,1.0934,1.0893,1.0942,0.9116,0.8156,0.7396,0.6696,0.5415,0.3466,0.0442,-0.3747,-0.7424,-0.9747,-1.0514,-1.2214,-1.5794,-1.7063,-1.8513,-2.0687,-2.2051,-2.2925,-2.3189,-2.3731,-2.4262,-2.4785,-2.4937,-2.5099,-2.5303,-2.5303,-2.5371,-2.5493,-2.5493,-2.5564,-2.5703,-2.5703,-2.5633,2.1384,2.2452,2.3195,2.3535,2.3595,2.3081,2.114,2.1496,2.2108,2.1772,2.0915,1.9919,1.889,2.1081,0.0,2.2123,2.4217,0.0,2.7164,2.7984,0.0,2.7682,0.0,2.759,2.7585,2.8045,0.0,2.7879,2.7699,2.7605,2.7595,2.7765,2.8032,2.8505,2.8222,2.8264,2.8742,2.8306,2.8047,2.8097,2.8668,2.918,2.9633,2.9777,3.0021,3.0251,2.9805,2.9271,2.8717,2.8357,2.8069,2.778,2.73,2.6544,2.5683,2.4946,2.3582,2.1968,2.0864,2.0356,2.0155,1.9813,1.8602,1.7235,1.6866,1.6255,1.569,1.569,1.5526,1.541,1.541,1.4932,1.435,1.3726,1.3283,1.2503,1.0669,1.047,1.0264,0.9017,0.7777,0.6701,0.6173,0.5203,0.3466,0.0443,-0.3753,-0.7182,-0.8829,-1.0452,-1.2946,-1.6824,-1.7841,-1.9246,-2.1698,-2.2422,-2.2912,-2.34,-2.3933,-2.4439,-2.4937,-2.513,-2.5253,-2.5303,-2.5303,-2.5371,-2.5493,-2.5493,-2.5564,-2.5703,-2.5703,-2.5633,2.1782,2.3069,2.3596,2.3614,2.3584,2.3008,2.0783,2.103,2.145,2.057,1.9765,0.0,1.8238,2.0028,0.0,0.0,0.0,0.0,2.6667,2.7313,2.7625,0.0,2.7625,0.0,2.8,2.8376,2.8737,2.8994,2.8677,2.8483,2.849,2.8505,2.8632,2.8946,2.8379,2.8069,2.8076,2.7788,2.7625,2.7625,2.8179,2.8701,2.8996,2.9271,2.9451,2.9496,2.9134,2.8638,2.8091,2.8091,2.791,2.7575,2.7255,2.6645,2.5782,2.4625,2.3289,2.1799,2.0258,1.9297,1.872,1.8401,1.7501,1.6436,1.6151,1.5748,1.5352,1.4991,1.4864,1.4864,1.4864,1.4273,1.3614,1.3405,1.3008,1.2201,1.0573,1.0404,0.9991,0.817,0.6972,0.6059,0.5415,0.4823,0.3471,0.0443,-0.4297,-0.7788,-0.8573,-1.0463,-1.3196,-1.7193,-1.812,-1.9535,-2.2073,-2.2695,-2.3088,-2.3473,-2.4153,-2.4662,-2.4998,-2.5184,-2.5303,-2.5303,-2.5303,-2.5371,-2.5493,-2.5493,-2.5564,-2.5703,-2.5703,-2.5633,2.2369,2.36,2.3583,2.3599,2.3511,2.2974,2.1239,2.1146,2.0895,1.8972,0.0,1.8356,1.7679,1.859,1.9703,2.0457,0.0,2.392,2.5951,2.6935,2.7515,2.756,2.767,2.7936,2.8536,2.8743,2.9071,2.9667,2.9801,2.9766,2.9608,2.9608,2.9608,2.9608,2.8951,2.8324,2.7724,2.7619,2.7625,2.7625,2.814,2.8415,2.8511,2.895,2.8919,2.8527,2.8415,2.8042,2.7458,2.7458,2.7408,2.724,2.6602,2.6283,2.5966,2.4149,2.3002,2.2018,2.01,1.8561,1.7357,1.6708,1.6425,1.6208,1.5584,1.5352,1.5108,1.4392,1.4145,1.4025,1.4025,1.3425,1.2826,1.2826,1.2696,1.205,1.0478,1.0303,0.975,0.6986,0.6168,0.5525,0.4418,0.4039,0.2968,0.0111,-0.5062,-0.8672,-0.8684,-1.0605,-1.3392,-1.7193,-1.8209,-1.9619,-2.2073,-2.2807,-2.3229,-2.3494,-2.4276,-2.4804,-2.4979,-2.5184,-2.5303,-2.5303,-2.5303,-2.5368,-2.5493,-2.5517,-2.559,-2.5703,-2.5683,-2.5629,2.28,2.3598,2.361,2.3598,2.3038,2.2094,2.0325,1.9969,0.0,0.0,1.7884,1.7659,1.7015,1.8379,1.9702,1.9849,0.0,0.0,0.0,0.0,2.6965,0.0,0.0,2.849,2.8617,2.9549,0.0,3.0337,3.0857,3.072,2.966,2.9574,2.9574,2.9574,2.897,2.8525,2.845,2.7889,2.7625,2.7625,2.771,2.7993,2.8463,2.8076,2.814,2.8463,2.7944,2.7342,2.6669,2.6669,2.6336,2.5783,2.5618,2.5231,2.4533,2.3231,2.1915,2.0483,1.8623,1.7401,1.6652,1.6539,1.6093,1.5584,1.541,1.4932,1.4392,1.4273,1.3726,1.3191,1.3191,1.2634,1.202,1.202,1.0961,0.9951,1.0052,0.933,0.807,0.6078,0.5782,0.5179,0.2954,0.1615,0.0167,-0.156,-0.5742,-0.8712,-0.8684,-1.1434,-1.4451,-1.7285,-1.8592,-2.0064,-2.2135,-2.259,-2.2992,-2.3473,-2.4063,-2.4565,-2.4979,-2.5184,-2.5303,-2.5303,-2.5346,-2.5415,-2.5493,-2.5558,-2.5611,-2.5703,-2.5637,-2.5587,2.2922,2.3599,2.3596,2.3615,2.2951,2.1834,2.0096,0.0,0.0,0.0,1.5894,1.5666,1.5725,0.0,0.0,0.0,0.0,0.0,0.0,0.0,0.0,0.0,0.0,2.8734,0.0,2.9977,3.0629,3.101,3.1319,3.1202,3.0615,3.06,3.0245,2.9603,2.9271,2.8794,2.8062,2.7754,2.7625,2.7625,2.7625,2.776,2.7993,2.771,2.776,2.7993,2.7342,2.6826,2.6457,2.6068,2.5728,2.5342,2.4951,2.4297,2.3443,2.1989,2.073,1.9447,1.7643,1.681,1.6436,1.6036,1.57,1.541,1.541,1.4815,1.4085,1.3666,1.3,1.2389,1.2389,1.1779,1.1288,1.171,1.085,0.9768,0.8927,0.8272,0.7427,0.614,0.5481,0.4298,0.1558,-0.0836,-0.2571,-0.3294,-0.6848,-0.9239,-0.8788,-1.1923,-1.4901,-1.6619,-1.8346,-1.9977,-2.1409,-2.2407,-2.3165,-2.3644,-2.4222,-2.4738,-2.5141,-2.5253,-2.5303,-2.5303,-2.5363,-2.5428,-2.5493,-2.5564,-2.5634,-2.5703,-2.5662,-2.5601,2.3038,2.3614,2.3583,2.3599,2.2882,2.1744,2.0079,1.8548,0.0,0.0,1.4266,1.3987,1.467,0.0,0.0,0.0,0.0,0.0,0.0,0.0,0.0,0.0,0.0,0.0,2.9551,3.025,0.0,3.1452,3.1482,3.1482,3.1482,3.1482,3.0998,2.984,2.9674,2.9034,2.785,2.7685,2.7625,2.7625,2.7458,2.7458,2.7575,2.7458,2.7357,2.7357,2.6774,2.6336,2.596,2.5398,2.4937,2.4584,2.4021,2.3229,2.2274,2.0723,1.9597,1.8621,1.7026,1.6255,1.5911,1.5342,1.5108,1.5108,1.5108,1.4442,1.3537,1.294,1.2143,1.1531,1.1531,1.1045,1.0681,1.0892,1.0787,0.9958,0.7486,0.7308,0.724,0.6138,0.4894,0.3159,0.0446,-0.2516,-0.4612,-0.503,-0.7777,-0.9629,-0.9195,-1.2378,-1.5038,-1.588,-1.8033,-1.9859,-2.0972,-2.2365,-2.337,-2.3821,-2.4463,-2.4923,-2.5214,-2.5274,-2.5303,-2.5303,-2.5363,-2.5428,-2.5493,-2.5564,-2.5634,-2.5703,-2.5683,-2.5611,2.3554,2.3626,2.361,2.3596,2.2671,2.1394,2.002,0.0,0.0,1.5079,1.4259,1.3993,1.468,1.5351,0.0,0.0,0.0,0.0,0.0,0.0,0.0,0.0,0.0,0.0,2.958,3.0717,3.1437,3.1482,3.1482,3.1482,3.1482,3.1482,3.118,3.0417,2.9903,2.9274,2.8517,2.7874,2.7625,2.7575,2.693,2.693,2.7575,2.693,2.6616,2.6616,2.651,2.5728,2.4509,2.4452,2.3564,2.2237,2.2125,2.1604,2.071,1.9591,1.8753,1.798,1.6864,1.5555,1.4382,1.4323,1.4323,1.4323,1.4323,1.3235,1.202,1.195,1.1351,1.0681,1.0681,1.0681,1.0231,0.8731,0.9512,0.9636,0.6105,0.655,0.7167,0.5287,0.3571,0.1906,0.028,-0.2512,-0.5096,-0.6771,-0.8047,-0.9247,-1.0428,-1.3002,-1.4937,-1.5492,-1.7843,-2.0082,-2.1819,-2.272,-2.3428,-2.395,-2.45,-2.4869,-2.5022,-2.5203,-2.5303,-2.5303,-2.5363,-2.5428,-2.5493,-2.5564,-2.5634,-2.5703,-2.5636,-2.5603,2.3185,2.3576,2.3417,2.2636,2.2079,2.1228,1.9515,0.0,1.5785,1.4468,1.3346,1.2927,1.4004,1.4418,1.5242,0.0,1.7741,1.8673,2.0961,0.0,0.0,0.0,2.6819,0.0,0.0,0.0,3.1091,3.1437,3.1482,3.1482,3.1482,3.1482,3.1046,2.9983,2.9714,2.9071,2.7993,2.7709,2.7357,2.693,2.6616,2.6443,2.6269,2.5946,2.5837,2.5783,2.5342,2.4513,2.3454,2.3015,2.2163,2.1078,2.083,2.0142,1.9275,1.8376,1.7243,1.6007,1.535,1.4373,1.3485,1.3485,1.3183,1.287,1.3304,1.2687,1.1834,1.1834,1.1226,1.0624,1.0624,1.0238,0.9524,0.8285,0.8544,0.8323,0.5799,0.6285,0.6768,0.5446,0.4302,0.2559,-0.0784,-0.3074,-0.5119,-0.6965,-0.8062,-0.9445,-1.1447,-1.345,-1.5163,-1.6401,-1.8232,-1.9825,-2.0863,-2.2339,-2.3338,-2.3676,-2.428,-2.4723,-2.4998,-2.5088,-2.5192,-2.5303,-2.5363,-2.542,-2.5441,-2.5551,-2.5607,-2.5636,-2.5644,-2.5636,2.2894,2.3345,2.2921,2.2387,2.1834,2.0986,0.0,1.7329,1.5424,1.4079,1.2732,1.2209,1.3555,1.3797,1.4445,0.0,1.6878,1.7614,1.9451,2.0475,0.0,0.0,0.0,2.6802,2.8851,3.0067,3.1001,3.1437,3.1482,3.1377,3.124,3.0981,3.0476,2.9624,2.9387,2.864,2.7269,2.7086,2.6707,2.6176,2.596,2.5673,2.5398,2.5175,2.5063,2.5007,2.4253,2.3467,2.2603,2.1854,2.0974,2.016,1.9728,1.8976,1.8119,1.7073,1.5894,1.4816,1.4107,1.3304,1.2634,1.2634,1.2081,1.1531,1.2089,1.1903,1.1406,1.1149,1.0661,1.0301,1.0561,0.9983,0.9075,0.8221,0.8027,0.7507,0.5752,0.6201,0.6455,0.4908,0.3909,0.2122,-0.1593,-0.349,-0.5223,-0.7335,-0.8337,-0.9844,-1.2647,-1.4268,-1.5728,-1.7261,-1.8634,-1.9808,-2.0639,-2.2126,-2.3234,-2.3757,-2.4247,-2.4636,-2.4924,-2.4986,-2.5077,-2.5214,-2.532,-2.5383,-2.5421,-2.5511,-2.5598,-2.5633,-2.5683,-2.5661,2.2883,2.2678,2.2009,2.3286,2.2147,2.0542,0.0,1.7682,1.5424,1.4079,1.2732,1.2209,1.3555,1.381,1.4442,1.6386,1.7273,1.8159,1.9527,2.0835,0.0,0.0,0.0,2.5497,2.7405,2.9983,3.1467,3.1482,3.1482,3.124,3.0552,2.984,2.949,2.9594,2.8832,2.7804,2.6525,2.5783,2.5398,2.5398,2.4681,2.4681,2.5398,2.4624,2.4292,2.4279,2.3382,2.2603,2.1815,2.0974,2.0074,1.9257,1.8784,1.8114,1.721,1.5557,1.4932,1.4754,1.3439,1.2512,1.1826,1.1826,1.1288,1.0624,1.0624,1.0624,1.0428,0.9594,0.9338,0.953,1.0364,0.9983,0.9075,0.8221,0.8027,0.7507,0.5752,0.63,0.624,0.3286,0.1501,-0.0121,-0.1884,-0.3483,-0.5437,-0.826,-0.9018,-1.0584,-1.4121,-1.5515,-1.6654,-1.7861,-1.8947,-2.024,-2.173,-2.234,-2.3158,-2.4407,-2.4495,-2.4591,-2.479,-2.4943,-2.501,-2.501,-2.5203,-2.5371,-2.5508,-2.5493,-2.5564,-2.5703,-2.5703,-2.5661,2.0708,2.0649,2.0197,1.9697,1.9788,1.9606,1.801,1.6338,1.486,1.3982,1.2713,1.208,1.2955,1.3482,1.4448,1.6388,1.7267,0.0,0.0,0.0,0.0,2.2468,2.454,2.6694,0.0,2.9655,3.0263,3.0765,3.0336,2.9797,2.9083,2.8397,2.8011,2.8177,2.7441,2.6596,2.5742,2.5508,2.5119,2.4624,2.4408,2.4105,2.3813,2.3603,2.3173,2.2665,2.2347,2.1455,2.0074,1.9824,1.9055,1.7981,1.7466,1.6655,1.5575,1.4723,1.3717,1.2709,1.2297,1.1655,1.0856,1.0275,0.9901,0.9594,0.9,0.9262,0.9658,0.9402,0.9274,0.9338,0.9658,0.9069,0.8221,0.7307,0.6662,0.6083,0.5502,0.5715,0.5679,0.4748,0.0128,-0.366,-0.3975,-0.5805,-0.7764,-0.9475,-1.0997,-1.2975,-1.5739,-1.6945,-1.8025,-1.9152,-2.002,-2.0798,-2.1576,-2.2214,-2.2988,-2.3903,-2.4173,-2.4393,-2.4594,-2.4771,-2.4904,-2.501,-2.5203,-2.5331,-2.5363,-2.5459,-2.5564,-2.5703,-2.5703,-2.5661,0.0,1.8235,1.6754,1.6932,1.7957,1.8351,1.6127,1.5369,1.4853,1.3664,1.2558,1.2065,1.3007,1.3528,1.4369,1.6093,1.7107,0.0,0.0,0.0,0.0,2.2451,0.0,0.0,2.748,2.824,2.8799,2.9289,2.8857,2.8353,2.7684,2.6937,2.6428,2.6316,2.6057,2.5663,2.5021,2.4667,2.4323,2.3826,2.3826,2.3603,2.3078,2.3078,2.2628,2.1877,2.1553,2.059,0.0,1.8921,1.8368,1.7559,1.6622,1.5769,1.4962,1.3735,1.2687,1.1772,1.1469,1.1045,1.0428,0.9594,0.9075,0.8613,0.7762,0.7897,0.842,0.8742,0.8549,0.842,0.8748,0.8156,0.7372,0.685,0.6009,0.5432,0.5376,0.484,0.4556,0.5298,0.013,-0.4507,-0.4994,-0.6713,-0.8434,-0.9721,-1.1937,-1.4277,-1.6574,-1.7977,-1.9119,-2.0141,-2.0812,-2.1365,-2.1805,-2.2383,-2.2997,-2.3649,-2.4016,-2.4266,-2.4375,-2.4575,-2.4756,-2.493,-2.5107,-2.5244,-2.5339,-2.5463,-2.557,-2.5661,-2.6035,-2.6171,0.0,1.568,1.2677,1.5167,1.6693,1.6879,1.4328,1.4703,0.0,1.3193,1.2269,1.2208,1.3548,1.3829,1.4342,1.5779,0.0,0.0,0.0,2.0567,0.0,0.0,2.3681,2.4368,2.4526,2.6144,2.7142,2.7214,2.7201,2.6893,2.6268,2.5459,2.4807,2.4247,2.478,2.4794,2.4234,2.3484,2.3078,2.3078,2.3078,2.3078,2.3078,2.3065,2.2567,2.1753,2.091,2.0009,1.911,1.8337,1.7988,1.7813,1.6188,1.5477,1.5094,1.2719,1.1802,1.1615,1.087,1.0561,1.0364,0.9396,0.8549,0.7632,0.685,0.6654,0.685,0.7697,0.7307,0.6915,0.7697,0.7307,0.6654,0.6654,0.6009,0.5432,0.5376,0.3956,0.3084,0.4381,0.0655,-0.3294,-0.5196,-0.6621,-0.803,-0.942,-1.2157,-1.4739,-1.678,-1.8642,-2.0075,-2.0781,-2.1419,-2.1973,-2.2492,-2.2784,-2.3199,-2.3736,-2.4069,-2.4262,-2.4281,-2.4411,-2.4591,-2.4804,-2.4956,-2.5186,-2.549,-2.5613,-2.5715,-2.5818,-2.6677,-2.709,1.3327,0.0,1.5022,1.5625,1.6035,1.571,0.0,1.3506,1.356,0.0,0.0,0.0,0.0,0.0,0.0,0.0,0.0,0.0,2.0833,0.0,0.0,2.4542,2.394,2.406,2.5791,2.5788,2.595,2.656,2.6009,2.5413,2.4807,2.402,2.3552,2.3378,2.3539,2.3552,2.3365,2.3185,2.3078,2.3078,2.3078,2.3078,2.3078,2.2445,2.1753,2.0846,2.0009,1.911,1.8269,1.8076,1.7822,1.7434,1.625,1.5252,1.422,1.2675,1.1704,1.1108,1.0762,1.0174,0.9332,0.7827,0.6728,0.5947,0.5752,0.6203,0.6719,0.6981,0.685,0.6719,0.6981,0.685,0.6523,0.5881,0.5557,0.5432,0.5386,0.3959,0.1605,-0.2146,-0.2802,-0.3579,-0.6248,-0.783,-0.9296,-1.0959,-1.3785,-1.62,-1.7334,-1.9236,-2.0752,-2.1423,-2.2087,-2.2797,-2.3642,-2.3537,-2.3782,-2.4581,-2.4635,-2.4784,-2.5107,-2.4708,-2.4591,-2.4804,-2.5072,-2.5611,-2.6386,-2.649,-2.6899,-2.761,-2.7869,-2.7988,1.1792,1.2868,1.3967,1.3975,1.3961,1.3718,1.2733,0.0,0.0,0.0,0.0,0.0,0.0,0.0,0.0,0.0,1.8458,0.0,0.0,0.0,2.303,2.4718,2.3813,2.3599,2.476,2.4491,2.4432,2.4845,2.4491,2.4077,2.3793,2.3365,2.3078,2.3078,2.3078,2.3078,2.3078,2.3078,2.3078,2.3078,2.3078,2.3078,2.3078,2.2261,2.1428,2.0526,1.9694,1.8787,1.8008,1.8008,1.7591,1.6938,1.5774,1.4698,1.3557,1.2276,1.1577,1.1082,1.0398,0.9297,0.7962,0.6981,0.6141,0.5428,0.5428,0.5756,0.6083,0.6075,0.6075,0.6075,0.6075,0.6075,0.6009,0.5491,0.5432,0.5372,0.5393,0.3351,0.0134,-0.4517,-0.4576,-0.4622,-0.6705,-0.8275,-0.985,-1.1875,-1.4627,-1.6837,-1.795,-1.9697,-2.1028,-2.1663,-2.2546,-2.3335,-2.402,-2.446,-2.4772,-2.4943,-2.5195,-2.5448,-2.5685,-2.5167,-2.5052,-2.5351,-2.6094,-2.6747,-2.7257,-2.7343,-2.7668,-2.8162,-2.8666,-2.8906,1.1807,1.1809,1.198,1.2817,1.3011,1.2801,1.1976,0.0,0.0,0.0,0.0,0.0,0.0,0.0,0.0,0.0,0.0,0.0,2.2051,2.2484,2.2955,2.3987,2.3543,2.3078,2.3078,2.3078,2.3078,2.3078,2.3078,2.3078,2.3078,2.3078,2.3078,2.3078,2.3078,2.3078,2.3078,2.3078,2.3078,2.3078,2.3078,2.3017,2.2884,2.2063,2.1239,2.0333,1.9497,1.8654,1.8008,1.8008,1.7432,1.6462,1.5231,1.4226,1.3227,1.1943,1.1463,1.124,0.9898,0.8251,0.6654,0.6527,0.6009,0.5428,0.5428,0.5369,0.5376,0.516,0.5229,0.5428,0.5428,0.5428,0.5432,0.5432,0.5372,0.5382,0.5396,0.2544,-0.1069,-0.4721,-0.5526,-0.5973,-0.7034,-0.8345,-1.0101,-1.2622,-1.484,-1.6815,-1.8489,-1.9812,-2.093,-2.1602,-2.2593,-2.3504,-2.4201,-2.5273,-2.5696,-2.5291,-2.5738,-2.5996,-2.6009,-2.5753,-2.5783,-2.6139,-2.7262,-2.7896,-2.803,-2.8179,-2.8332,-2.8504,-2.9361,-2.9785,1.1794,1.1817,1.2872,1.7354,1.8508,1.7306,0.0,0.0,0.0,0.0,0.0,0.0,0.0,0.0,0.0,0.0,0.0,2.1212,0.0,0.0,2.3176,2.3276,2.3198,2.3078,2.3078,2.3078,2.3078,2.3078,2.3078,2.3078,2.3078,2.3078,2.3078,2.3078,2.3078,2.3078,2.3078,2.3078,2.3078,2.3078,2.3078,2.2763,2.2063,2.1175,2.0333,1.9431,1.8596,1.8134,1.8008,1.8008,1.7432,1.6489,1.552,1.4514,1.3489,1.226,1.1637,1.107,0.9013,0.7596,0.6588,0.5815,0.5491,0.5428,0.5372,0.5376,0.5173,0.4151,0.4622,0.5372,0.5428,0.5369,0.5376,0.5376,0.5386,0.5396,0.5406,0.2546,-0.1069,-0.4712,-0.6187,-0.703,-0.7717,-0.8678,-1.0355,-1.3425,-1.4753,-1.6192,-1.8424,-1.9411,-2.037,-2.1554,-2.1885,-2.2804,-2.4853,-2.5195,-2.5648,-2.6386,-2.6199,-2.6043,-2.6003,-2.6434,-2.6693,-2.6748,-2.729,-2.7924,-2.8662,-2.8917,-2.9446,-3.0217,-3.0427,-3.0597,1.1813,1.3904,1.6649,1.9076,1.8647,1.6969,0.0,0.0,0.0,0.0,0.0,0.0,0.0,0.0,0.0,0.0,0.0,2.09,2.1809,2.2411,2.2834,2.3062,2.3078,2.3078,2.3078,2.3078,2.3078,2.3078,2.3078,2.3078,2.3078,2.3078,2.3078,2.3078,2.3078,2.3078,2.3078,2.3078,2.3078,2.3078,2.3078,2.2702,2.1877,2.0974,2.0139,1.9233,1.8405,1.8008,1.8008,1.8008,1.7148,1.579,1.5376,1.4307,1.2865,1.2297,1.1527,1.0485,0.8931,0.7697,0.666,0.5715,0.5416,0.5471,0.5393,0.4694,0.402,0.4486,0.4964,0.5376,0.5372,0.5376,0.5173,0.4159,0.4712,0.4855,0.2883,0.0401,-0.2272,-0.4906,-0.6234,-0.7134,-0.7902,-0.8748,-1.0368,-1.3621,-1.4762,-1.6059,-1.8412,-1.9359,-2.0144,-2.1113,-2.1493,-2.2476,-2.4483,-2.4932,-2.5648,-2.6937,-2.7065,-2.6939,-2.6657,-2.7675,-2.811,-2.7769,-2.8495,-2.9121,-2.9666,-2.9815,-3.0129,-3.0606,-3.0673,-3.0771,1.1283,1.4526,1.7995,1.8621,0.0,0.0,1.6699,0.0,0.0,0.0,0.0,0.0,0.0,0.0,0.0,1.9409,1.9949,2.0652,2.1933,2.2347,2.2661,2.3027,2.3078,2.3078,2.3078,2.3078,2.3005,2.2823,2.2823,2.275,2.2494,2.2689,2.2823,2.2823,2.3005,2.3017,2.2823,2.3017,2.3078,2.3078,2.2884,2.2384,2.1553,2.0719,1.9814,1.8977,1.8269,1.8008,1.8008,1.8008,1.6862,1.5234,1.5234,1.4019,1.2291,1.2225,1.1293,1.0025,0.9258,0.8054,0.6713,0.5922,0.5638,0.5515,0.5399,0.4422,0.3618,0.5027,0.5372,0.5379,0.5379,0.5382,0.5046,0.3689,0.3768,0.3161,-0.0468,-0.2342,-0.3754,-0.5106,-0.628,-0.7242,-0.7897,-0.8877,-1.0627,-1.363,-1.4762,-1.6059,-1.8412,-1.9359,-2.0055,-2.0746,-2.1156,-2.2098,-2.3906,-2.4752,-2.574,-2.692,-2.747,-2.7642,-2.7366,-2.853,-2.8998,-2.8613,-2.9472,-3.0032,-3.0247,-3.0392,-3.0516,-3.0575,-3.0652,-3.074,0.9709,1.1183,1.2972,1.5463,0.0,0.0,1.9428,0.0,0.0,0.0,0.0,0.0,0.0,1.7692,1.8304,1.8983,2.0363,2.1405,2.1531,2.2422,2.3027,2.3125,2.3078,2.3078,2.3078,2.3078,2.2823,2.2063,2.2013,2.1616,2.0846,2.1553,2.2013,2.2013,2.2689,2.2763,2.2002,2.2763,2.3078,2.3078,2.2322,2.1553,2.0655,1.9814,1.8911,1.8076,1.8008,1.8008,1.8008,1.8008,1.6862,1.5234,1.5234,1.4019,1.2271,1.1997,1.1128,1.0071,0.9761,0.8368,0.6671,0.6658,0.6083,0.5442,0.5376,0.5309,0.5243,0.5379,0.5379,0.5379,0.5379,0.5393,0.5343,0.5205,0.2762,-0.0606,-0.425,-0.5125,-0.5256,-0.5379,-0.6736,-0.7897,-0.7962,-0.939,-1.1329,-1.3749,-1.4762,-1.6059,-1.8412,-1.9359,-2.0055,-2.0746,-2.0845,-2.1602,-2.3389,-2.5003,-2.5997,-2.6104,-2.6872,-2.7512,-2.7837,-2.8254,-2.8646,-2.8952,-2.9457,-2.9731,-2.9748,-3.0182,-3.0441,-3.0516,-3.0575,-3.0652,0.9542,1.1564,1.371,1.5386,0.0,0.0,0.0,0.0,0.0,0.0,0.0,0.0,0.0,0.0,1.8875,1.9395,2.0627,2.1606,2.1945,2.2661,2.3078,2.3078,2.3078,2.3078,2.3078,2.2641,2.2261,2.1939,2.1428,2.0974,2.059,2.1428,2.1616,2.1112,2.2372,2.2433,2.1101,2.1939,2.2063,2.1542,2.1815,2.1428,2.059,1.9683,1.8854,1.8008,1.8008,1.8008,1.8008,1.8008,1.7217,1.593,1.4736,1.3448,1.2285,1.2178,1.1617,1.0854,1.0194,0.8899,0.7545,0.6889,0.6148,0.5488,0.5396,0.5372,0.5376,0.5369,0.5379,0.5116,0.4023,0.3689,0.3426,0.2288,-0.0739,-0.3435,-0.3696,-0.4573,-0.5382,-0.5369,-0.6798,-0.8027,-0.8027,-0.9454,-1.1226,-1.3149,-1.4046,-1.5359,-1.7709,-1.8661,-1.9411,-2.0093,-2.0828,-2.1834,-2.327,-2.4619,-2.568,-2.6401,-2.6987,-2.7348,-2.75,-2.8084,-2.8554,-2.8865,-2.9419,-2.9746,-2.9893,-3.0228,-3.043,-3.0507,-3.0568,-3.0643,0.9923,1.2188,1.447,0.0,0.0,0.0,0.0,0.0,0.0,0.0,0.0,0.0,0.0,0.0,0.0,0.0,2.0602,2.1362,2.1601,2.2085,2.2432,2.2347,2.231,2.231,2.231,2.1803,2.1365,2.1101,2.0526,2.0074,1.9814,2.059,2.0782,2.0204,2.1542,2.1604,2.0204,2.1037,2.1037,2.0204,2.0782,2.0782,2.0139,1.9299,1.8596,1.8008,1.8008,1.8008,1.8008,1.8008,1.7285,1.6,1.4307,1.3098,1.2305,1.2305,1.1931,1.1286,1.0384,0.9258,0.7964,0.7025,0.6152,0.5498,0.5459,0.5432,0.5372,0.5428,0.5372,0.5109,0.3887,0.2678,0.154,0.0269,-0.1884,-0.3639,-0.3556,-0.45,-0.5512,-0.5756,-0.6985,-0.8091,-0.8355,-0.9831,-1.1413,-1.2826,-1.3853,-1.5177,-1.7013,-1.8124,-1.898,-1.9695,-2.0729,-2.1741,-2.2717,-2.386,-2.5016,-2.6142,-2.6623,-2.7002,-2.7303,-2.7918,-2.8384,-2.8669,-2.9301,-2.9713,-2.9908,-3.015,-3.0333,-3.0463,-3.0537,-3.0592,1.0752,1.2562,0.0,0.0,0.0,0.0,0.0,0.0,0.0,0.0,0.0,1.8521,1.9608,1.8932,0.0,1.9623,2.0288,2.0568,2.0213,2.0665,2.0883,2.064,2.0579,2.0579,2.0579,2.0579,2.0193,1.9354,1.9299,1.8911,1.8076,1.8854,1.9299,1.9299,2.0139,2.0204,1.9299,2.0139,2.0139,1.9299,1.9299,1.9299,1.9299,1.8395,1.8008,1.8008,1.8008,1.8008,1.8008,1.8008,1.6862,1.5092,1.4091,1.3091,1.2305,1.2298,1.1931,1.1286,1.0378,0.9215,0.7897,0.6981,0.6141,0.5428,0.5428,0.5428,0.5428,0.5428,0.5428,0.5432,0.5376,0.2744,0.0067,-0.0,-0.0,-0.101,-0.4579,-0.5396,-0.5649,-0.6531,-0.7372,-0.8291,-0.9139,-1.071,-1.2081,-1.2887,-1.4337,-1.5611,-1.6425,-1.7797,-1.898,-1.9695,-2.0396,-2.1028,-2.1663,-2.2818,-2.3998,-2.5144,-2.5689,-2.6402,-2.7255,-2.7678,-2.8047,-2.8394,-2.906,-2.9494,-2.9696,-2.9908,-3.0136,-3.041,-3.0482,-3.0537,1.0787,1.242,0.0,0.0,0.0,0.0,0.0,0.0,0.0,0.0,0.0,1.9321,1.9252,1.8858,0.0,1.8473,1.8875,1.9134,1.8988,1.9446,1.9753,1.9731,1.9682,1.9682,1.9682,1.9375,1.9062,1.8805,1.8537,1.8269,1.8008,1.8854,1.9044,1.8395,1.9824,1.9879,1.8395,1.9233,1.9243,1.8395,1.8395,1.8721,1.9299,1.8395,1.8008,1.8008,1.8008,1.8008,1.7988,1.7686,1.6624,1.5138,1.4533,1.3465,1.2278,1.2071,1.1757,1.1328,1.092,0.9939,0.8748,0.7892,0.7051,0.6203,0.5557,0.5428,0.5428,0.5428,0.5428,0.5428,0.5432,0.4631,0.3153,0.0603,-0.1005,-0.2211,-0.3284,-0.4495,-0.5502,-0.5752,-0.699,-0.8091,-0.8355,-1.0249,-1.2081,-1.2887,-1.3888,-1.5168,-1.7024,-1.8124,-1.898,-1.9695,-2.0396,-2.1183,-2.2172,-2.301,-2.4148,-2.5689,-2.5924,-2.6245,-2.6841,-2.7547,-2.7954,-2.8047,-2.8929,-2.9434,-2.9474,-2.9829,-3.0028,-3.0117,-3.0374,-3.0537,1.2179,0.0,0.0,0.0,0.0,0.0,0.0,0.0,0.0,0.0,0.0,1.9384,1.8965,1.8615,1.8251,1.7825,1.7954,1.8103,1.8027,1.8243,1.8436,1.8269,1.8291,1.8291,1.8291,1.7999,1.7849,1.7849,1.7605,1.75,1.75,1.8177,1.8187,1.751,1.8858,1.8961,1.7764,1.8439,1.8439,1.7764,1.7764,1.7922,1.8267,1.7932,1.7852,1.7998,1.7832,1.7764,1.7744,1.749,1.6624,1.5471,1.5181,1.397,1.243,1.2249,1.1778,1.1162,1.0651,0.995,0.9139,0.8285,0.7632,0.7046,0.6207,0.5947,0.5815,0.5491,0.5428,0.5428,0.5428,0.5376,0.464,0.174,-0.0335,-0.2012,-0.3489,-0.4634,-0.5502,-0.5815,-0.7051,-0.8091,-0.8484,-1.0319,-1.2081,-1.2887,-1.3965,-1.5371,-1.7346,-1.8015,-1.8661,-1.9695,-2.0144,-2.089,-2.208,-2.2565,-2.3546,-2.5259,-2.5577,-2.5908,-2.6401,-2.7224,-2.7754,-2.7897,-2.8628,-2.9126,-2.9412,-2.9712,-2.9924,-3.0013,-3.0317,-3.0516,0.0,0.0,0.0,0.0,0.0,0.0,0.0,0.0,0.0,1.9788,0.0,1.9013,1.8761,1.8247,1.7801,1.7533,1.7456,1.7288,1.7057,1.7061,1.6929,1.6625,1.6548,1.6548,1.6548,1.665,1.667,1.667,1.6709,1.6665,1.6665,1.7109,1.7139,1.6685,1.749,1.7715,1.7334,1.7705,1.7705,1.7324,1.7324,1.7119,1.6685,1.7139,1.7539,1.7871,1.749,1.7324,1.7314,1.7285,1.6722,1.5842,1.5806,1.4539,1.2714,1.2684,1.1952,1.085,1.0097,0.9598,0.9268,0.842,0.8091,0.7962,0.6981,0.6719,0.6527,0.562,0.5428,0.5428,0.5428,0.5369,0.497,0.3349,0.141,-0.0875,-0.4172,-0.5189,-0.5649,-0.6404,-0.7372,-0.8221,-0.9075,-1.0647,-1.2074,-1.3009,-1.4451,-1.5911,-1.7413,-1.7578,-1.8178,-1.9631,-1.985,-2.037,-2.1602,-2.1758,-2.2563,-2.4292,-2.4894,-2.5449,-2.5977,-2.6839,-2.747,-2.7897,-2.8237,-2.8718,-2.9372,-2.9589,-2.9796,-2.9984,-3.0267,-3.0472,0.0,0.0,0.0,0.0,0.0,0.0,0.0,0.0,0.0,1.9825,1.9709,1.9443,1.8785,1.8153,1.7474,1.6854,1.6263,1.5836,1.583,1.5781,1.5762,1.5684,1.5693,1.5693,1.5693,1.6006,1.6211,1.6211,1.6533,1.6665,1.6665,1.6826,1.6826,1.6675,1.6914,1.6963,1.6875,1.6963,1.6963,1.6875,1.6875,1.6826,1.6675,1.6826,1.6924,1.7002,1.6914,1.6875,1.6846,1.6494,1.6012,1.542,1.5115,1.4038,1.2684,1.2401,1.1753,1.0962,1.0535,1.0353,1.0174,0.9332,0.9005,0.8748,0.7177,0.6719,0.6527,0.562,0.5428,0.5428,0.5428,0.5369,0.5312,0.4913,0.2344,-0.0201,-0.1005,-0.3418,-0.5446,-0.5638,-0.6933,-0.8091,-0.8221,-1.0249,-1.232,-1.3726,-1.4746,-1.5911,-1.7413,-1.7578,-1.8178,-1.9631,-2.0258,-2.0881,-2.1663,-2.2193,-2.301,-2.4307,-2.4894,-2.5449,-2.5977,-2.6839,-2.747,-2.7897,-2.8237,-2.8639,-2.9089,-2.9514,-2.9731,-2.9763,-3.0202,-3.0441,0.0,0.0,0.0,0.0,0.0,0.0,0.0,0.0,1.8298,1.8653,1.929,1.9455,1.8358,1.7878,1.7249,1.6133,1.5654,1.541,1.541,1.541,1.541,1.541,1.541,1.541,1.541,1.5615,1.5752,1.5752,1.5967,1.6103,1.6103,1.6299,1.6318,1.6103,1.6451,1.6631,1.6416,1.6621,1.6621,1.6416,1.6416,1.6299,1.6113,1.6533,1.6441,1.6113,1.6318,1.6416,1.6396,1.6223,1.5936,1.5663,1.5448,1.4318,1.2796,1.2664,1.1843,1.0768,1.0678,1.0624,1.0561,1.0047,0.9913,0.9652,0.835,0.7632,0.7111,0.6268,0.5752,0.5428,0.5428,0.5432,0.5376,0.5393,0.2613,-0.0,-0.0,-0.2142,-0.4361,-0.5243,-0.6806,-0.8027,-0.8027,-1.0116,-1.2205,-1.3425,-1.4323,-1.5381,-1.6856,-1.7357,-1.8015,-1.915,-1.9876,-2.0584,-2.1197,-2.1595,-2.2285,-2.3492,-2.4096,-2.4745,-2.5577,-2.6282,-2.7049,-2.7897,-2.8075,-2.8438,-2.8994,-2.9456,-2.9696,-2.9713,-3.0188,-3.0449,0.0,0.0,0.0,0.0,0.0,0.0,0.0,0.0,1.6873,1.7483,1.8692,1.9202,1.7709,1.7545,1.7101,1.5644,1.541,1.541,1.541,1.541,1.541,1.541,1.541,1.541,1.541,1.541,1.541,1.541,1.541,1.541,1.541,1.5633,1.5662,1.542,1.594,1.6133,1.5766,1.6123,1.6123,1.5756,1.5887,1.5762,1.543,1.6172,1.6103,1.543,1.5791,1.5947,1.5947,1.5947,1.5947,1.5947,1.5947,1.4744,1.3009,1.3009,1.1973,1.0624,1.0624,1.0624,1.0624,1.0624,1.0624,1.0428,0.9594,0.8683,0.7827,0.6915,0.6075,0.5428,0.5428,0.5428,0.5432,0.5386,0.2882,0.0201,-0.0737,-0.1874,-0.3213,-0.5036,-0.6806,-0.8027,-0.8221,-1.0186,-1.2081,-1.2887,-1.3666,-1.4737,-1.6312,-1.7135,-1.7895,-1.8608,-1.9371,-2.0055,-2.0746,-2.0795,-2.1272,-2.2452,-2.3128,-2.3914,-2.4879,-2.5524,-2.6386,-2.7507,-2.7794,-2.8228,-2.8905,-2.9398,-2.9661,-2.9713,-3.0142,-3.0386,0.0,0.0,0.0,0.0,0.0,0.0,0.0,0.0,1.7497,0.0,1.8394,1.8673,1.7163,1.7302,1.7101,1.5644,1.541,1.541,1.541,1.541,1.541,1.541,1.541,1.541,1.541,1.541,1.541,1.541,1.541,1.541,1.541,1.4803,1.4743,1.5352,1.4859,1.4529,1.4474,1.4529,1.4529,1.4465,1.5136,1.5469,1.542,1.5537,1.5518,1.542,1.5469,1.5498,1.5498,1.5498,1.5498,1.5498,1.5498,1.4497,1.3009,1.3009,1.1973,1.0624,1.0624,1.0624,1.0624,1.0624,1.0624,1.0428,0.9594,0.8683,0.7827,0.6915,0.6075,0.5428,0.5428,0.5428,0.5432,0.5379,0.382,0.1069,-0.3632,-0.3627,-0.3213,-0.5036,-0.6806,-0.8221,-0.9011,-1.0577,-1.2081,-1.2887,-1.3666,-1.4737,-1.6312,-1.7135,-1.7895,-1.8608,-1.9371,-2.0055,-2.0746,-2.0795,-2.1126,-2.1805,-2.2863,-2.3576,-2.3704,-2.4745,-2.555,-2.6062,-2.7291,-2.8075,-2.8471,-2.9126,-2.9532,-2.9713,-2.9939,-3.0177,0.0,0.0,0.0,0.0,0.0,0.0,0.0,0.0,1.6982,1.6982,1.7593,1.7881,1.7105,1.7092,1.6822,1.5731,1.5472,1.541,1.541,1.541,1.541,1.541,1.541,1.541,1.541,1.541,1.541,1.541,1.541,1.541,1.541,1.505,1.505,1.541,1.505,1.4688,1.4213,1.4213,1.4213,1.4213,1.4569,1.4932,1.541,1.541,1.541,1.541,1.541,1.541,1.541,1.541,1.541,1.541,1.541,1.4451,1.307,1.3494,1.2634,1.1288,1.1288,1.1288,1.1226,1.0744,1.0624,1.0561,1.011,0.9396,0.8549,0.7702,0.6789,0.6009,0.5557,0.5428,0.5432,0.5382,0.4776,0.2479,-0.3984,-0.4794,-0.4561,-0.5885,-0.712,-0.8291,-0.9139,-1.0345,-1.1413,-1.2205,-1.3,-1.3965,-1.5089,-1.6234,-1.7246,-1.8015,-1.8715,-1.9463,-2.0194,-2.0245,-2.0484,-2.1161,-2.2011,-2.2773,-2.349,-2.4318,-2.5112,-2.5895,-2.6704,-2.7407,-2.8022,-2.8828,-2.9382,-2.9713,-3.0066,-3.0299,0.0,0.0,0.0,0.0,0.0,0.0,0.0,0.0,1.6522,1.6522,1.6845,1.7132,1.6982,1.6924,1.6634,1.5899,1.5745,1.5693,1.5474,1.5563,1.5584,1.541,1.541,1.541,1.541,1.541,1.541,1.541,1.541,1.541,1.541,1.5235,1.5177,1.541,1.5167,1.4688,1.3906,1.3666,1.3597,1.3597,1.4025,1.451,1.5108,1.5294,1.541,1.541,1.541,1.541,1.541,1.541,1.541,1.541,1.541,1.4569,1.3364,1.3965,1.3295,1.2074,1.2074,1.1958,1.171,1.1108,1.0744,1.0624,1.0624,0.9983,0.9139,0.8221,0.7372,0.6527,0.562,0.5428,0.5432,0.5382,0.5393,0.3558,-0.3236,-0.5068,-0.5582,-0.6272,-0.7242,-0.8221,-0.8877,-0.9849,-1.0863,-1.171,-1.2512,-1.3304,-1.4085,-1.5555,-1.6708,-1.7246,-1.795,-1.8715,-1.9475,-1.9527,-1.9837,-2.0497,-2.1293,-2.2104,-2.2996,-2.3776,-2.4632,-2.5577,-2.5969,-2.6653,-2.7595,-2.8552,-2.919,-2.955,-3.0061,-3.0323,0.0,0.0,0.0,0.0,0.0,0.0,0.0,0.0,1.6522,1.6522,1.6522,1.6534,1.6534,1.6835,1.6839,1.6124,1.6378,1.646,1.579,1.6109,1.6208,1.5468,1.541,1.541,1.541,1.541,1.541,1.541,1.541,1.541,1.541,1.4688,1.4628,1.5352,1.4688,1.3906,1.307,1.232,1.1888,1.195,1.3476,1.4213,1.4273,1.505,1.541,1.541,1.541,1.541,1.541,1.541,1.541,1.541,1.541,1.4874,1.4145,1.4213,1.3666,1.2948,1.2948,1.2451,1.1764,1.1772,1.1226,1.0624,1.0624,0.9983,0.9139,0.8221,0.7372,0.6527,0.562,0.5428,0.5428,0.5428,0.5379,0.3892,-0.1671,-0.4159,-0.5442,-0.5428,-0.6859,-0.8027,-0.8091,-0.9454,-1.0863,-1.171,-1.2512,-1.3304,-1.4085,-1.5555,-1.6482,-1.6539,-1.7202,-1.7961,-1.8715,-1.8768,-1.9097,-1.9798,-2.0988,-2.1744,-2.1791,-2.2965,-2.3921,-2.4471,-2.5012,-2.595,-2.7317,-2.8319,-2.892,-2.9134,-2.9734,-3.015,0.0,0.0,0.0,0.0,0.0,0.0,1.5697,1.632,1.6522,1.6522,1.6522,1.6522,1.6522,1.6534,1.6516,1.6244,1.5942,1.5626,1.5321,1.508,1.4855,1.459,1.4844,1.501,1.501,1.5254,1.541,1.541,1.541,1.541,1.541,1.5118,1.5108,1.541,1.5108,1.4569,1.3786,1.2443,1.2081,1.2573,1.3122,1.3726,1.4213,1.505,1.541,1.541,1.541,1.541,1.541,1.541,1.541,1.541,1.541,1.4932,1.4273,1.4805,1.4451,1.3786,1.3786,1.3597,1.3174,1.2135,1.1593,1.1288,1.0744,1.0364,0.9977,0.9069,0.8221,0.7437,0.712,0.6662,0.6067,0.5536,0.4486,0.2817,-0.0267,-0.3282,-0.5382,-0.5432,-0.6793,-0.8027,-0.8027,-0.9454,-1.0681,-1.0989,-1.2151,-1.313,-1.3364,-1.4796,-1.5979,-1.6436,-1.6765,-1.7357,-1.8608,-1.8715,-1.898,-1.9747,-2.0633,-2.1113,-2.1113,-2.1946,-2.2996,-2.424,-2.4483,-2.5287,-2.6787,-2.8065,-2.8824,-2.9134,-2.9897,-3.0333,0.0,0.0,0.0,0.0,0.0,1.2935,1.5457,1.6282,1.6534,1.667,1.6602,1.6547,1.6751,1.6534,1.638,1.6372,1.6111,1.5803,1.5553,1.5121,1.4704,1.445,1.4493,1.457,1.457,1.4814,1.498,1.498,1.498,1.498,1.498,1.498,1.5049,1.5195,1.4965,1.4615,1.4204,1.287,1.2451,1.3009,1.3243,1.3666,1.4213,1.505,1.541,1.541,1.541,1.541,1.541,1.541,1.541,1.541,1.541,1.505,1.4688,1.5167,1.505,1.4628,1.4628,1.4451,1.4025,1.2923,1.2258,1.171,1.117,1.08,1.0434,0.953,0.8877,0.835,0.8091,0.7372,0.6453,0.5592,0.448,0.2952,0.0534,-0.2811,-0.5389,-0.5372,-0.6601,-0.7632,-0.7962,-0.9198,-1.0238,-1.0561,-1.1725,-1.2696,-1.2948,-1.4154,-1.5284,-1.6036,-1.6151,-1.6754,-1.8232,-1.834,-1.8768,-1.9747,-2.0446,-2.0795,-2.0795,-2.1791,-2.2893,-2.4178,-2.4611,-2.5452,-2.677,-2.7924,-2.8585,-2.8824,-2.9753,-3.0247,0.0,0.0,0.0,0.0,0.0,0.0,1.4575,0.0,1.6539,1.7038,1.6782,1.6675,1.7231,1.6918,1.6552,1.6522,1.6986,1.7111,1.6396,1.6184,1.5891,1.5195,1.4526,1.4111,1.4111,1.4121,1.4077,1.4077,1.4077,1.4077,1.4077,1.4077,1.4326,1.4746,1.4016,1.3798,1.4186,1.3416,1.3,1.307,1.3855,1.4213,1.4213,1.505,1.541,1.541,1.541,1.541,1.541,1.541,1.541,1.541,1.541,1.541,1.541,1.541,1.541,1.541,1.541,1.4874,1.4204,1.4213,1.3114,1.1834,1.1834,1.1288,1.0428,0.9594,0.9338,0.9139,0.8285,0.7372,0.6519,0.5657,0.5428,0.4436,0.0868,-0.2744,-0.5256,-0.5379,-0.6083,-0.6915,-0.7827,-0.8678,-0.953,-1.0428,-1.1226,-1.2074,-1.2887,-1.3666,-1.451,-1.5235,-1.5352,-1.5968,-1.7457,-1.7578,-1.8221,-1.9695,-2.0396,-2.0746,-2.0746,-2.2457,-2.3658,-2.4163,-2.5347,-2.6386,-2.7303,-2.7914,-2.8204,-2.8229,-2.9247,-2.9882,0.8169,0.0,0.0,0.0,0.0,0.0,0.0,1.3695,1.5093,1.7067,1.6783,1.6567,1.7679,1.776,1.7544,1.7146,1.6523,1.6049,1.5813,1.5395,1.5018,1.4829,1.45,1.4297,1.4297,1.4198,1.4077,1.4077,1.4077,1.4077,1.4077,1.4077,1.4136,1.4307,1.409,1.4181,1.4601,1.3847,1.3582,1.3846,1.4085,1.4213,1.4213,1.505,1.541,1.541,1.541,1.541,1.541,1.541,1.541,1.541,1.541,1.541,1.541,1.541,1.541,1.541,1.541,1.5225,1.4991,1.4392,1.3485,1.2696,1.2696,1.2089,1.1406,1.1149,1.0634,1.0002,0.9128,0.8285,0.7567,0.7367,0.6288,0.4779,0.2476,0.0134,-0.2277,-0.4903,-0.5617,-0.6056,-0.6911,-0.7762,-0.8678,-0.9524,-1.0325,-1.119,-1.2012,-1.3356,-1.4085,-1.3726,-1.4688,-1.5786,-1.668,-1.7269,-1.8221,-1.9695,-1.9952,-2.0105,-2.0105,-2.0557,-2.168,-2.3507,-2.3856,-2.5115,-2.7303,-2.7914,-2.8347,-2.8667,-2.9673,-3.018,0.0,0.0,0.0,0.0,0.0,0.0,1.0512,1.2012,1.3693,1.6317,1.6243,1.6123,1.7388,1.7664,1.7579,1.7276,1.6909,1.6476,1.6039,1.5466,1.5062,1.5062,1.4758,1.4457,1.4157,1.4022,1.3891,1.3613,1.3613,1.3613,1.3613,1.3613,1.3691,1.3867,1.3877,1.4082,1.4502,1.4061,1.3951,1.4184,1.4361,1.4436,1.4445,1.509,1.541,1.541,1.541,1.541,1.541,1.541,1.541,1.541,1.541,1.541,1.541,1.541,1.541,1.541,1.541,1.541,1.5294,1.4864,1.4154,1.3485,1.3485,1.294,1.2205,1.1888,1.1205,1.0458,0.997,0.8941,0.8027,0.8027,0.6679,0.4909,0.308,0.1272,-0.0602,-0.2744,-0.4345,-0.5543,-0.6059,-0.6911,-0.7767,-0.8619,-0.9436,-1.0312,-1.1128,-1.2366,-1.3183,-1.3009,-1.4145,-1.5187,-1.5867,-1.6655,-1.7633,-1.8821,-1.8874,-1.8874,-1.8874,-1.9659,-2.0744,-2.2124,-2.2907,-2.4383,-2.6604,-2.7589,-2.8433,-2.9111,-2.9819,-3.021,0.0,0.9249,0.0,0.0,0.8551,0.0,0.9834,1.1021,1.2565,1.4935,1.5285,1.5497,1.6652,1.6986,1.7088,1.7015,1.7592,1.7706,1.6752,1.6126,1.5764,1.572,1.5186,1.4606,1.405,1.3862,1.36,1.3065,1.2929,1.2881,1.2881,1.2881,1.3047,1.3428,1.3437,1.3643,1.4009,1.4009,1.4038,1.4087,1.4521,1.4717,1.4727,1.5098,1.5273,1.5273,1.5322,1.5342,1.5342,1.5391,1.541,1.541,1.541,1.541,1.541,1.541,1.541,1.541,1.541,1.5468,1.5526,1.541,1.4923,1.4314,1.4323,1.3786,1.294,1.2143,1.1413,1.0807,1.0624,0.9448,0.8215,0.8021,0.6671,0.4967,0.3349,0.1405,-0.0,-0.0,-0.2746,-0.5163,-0.5338,-0.6059,-0.685,-0.7697,-0.8484,-0.932,-1.0242,-1.1128,-1.195,-1.2757,-1.3666,-1.4483,-1.5245,-1.6042,-1.681,-1.7578,-1.7578,-1.7578,-1.7578,-1.9329,-2.0384,-2.0518,-2.2512,-2.4288,-2.5808,-2.7209,-2.8433,-2.9451,-2.9721,-3.0027,1.2973,1.1882,1.1556,1.3714,1.2639,0.0,1.1377,1.196,1.2588,1.3125,1.4035,1.5111,1.6346,1.6872,1.6957,1.6532,1.7282,1.773,1.7205,1.705,1.6811,1.638,1.5776,1.5365,1.5276,1.4365,1.3732,1.3637,1.3152,1.2881,1.2881,1.2881,1.292,1.2998,1.2998,1.3203,1.3623,1.3633,1.3799,1.4077,1.4165,1.4258,1.4268,1.4346,1.433,1.435,1.4756,1.4902,1.4932,1.5273,1.541,1.541,1.541,1.541,1.541,1.541,1.541,1.541,1.541,1.5806,1.6208,1.5584,1.5255,1.51,1.5148,1.4628,1.3786,1.3,1.2634,1.2212,1.0933,1.0332,0.9666,0.8339,0.665,0.5279,0.4976,0.2278,-0.0,-0.0,-0.1744,-0.3685,-0.5166,-0.5561,-0.5947,-0.685,-0.7111,-0.7762,-0.932,-1.0249,-1.1058,-1.195,-1.3356,-1.4483,-1.5245,-1.6042,-1.681,-1.7578,-1.7578,-1.7578,-1.7578,-1.8507,-1.9533,-2.0469,-2.3544,-2.5754,-2.6948,-2.7601,-2.829,-2.9026,-2.9361,-2.9689,1.492,1.4648,1.5476,1.8333,1.5803,0.0,0.0,1.4938,1.3238,1.4027,1.3962,1.4349,1.6299,1.6795,1.676,1.6263,1.7247,1.7832,1.719,1.7446,1.7585,1.7353,1.6799,1.6318,1.6015,1.5207,1.4457,1.3862,1.3505,1.3238,1.2929,1.2881,1.2881,1.2881,1.2881,1.2988,1.3193,1.3193,1.3301,1.3516,1.3721,1.3818,1.3828,1.398,1.4291,1.4566,1.4474,1.4627,1.4982,1.5034,1.5098,1.5174,1.5726,1.5921,1.5921,1.5921,1.5921,1.5921,1.5921,1.6208,1.6436,1.6093,1.6167,1.6306,1.5623,1.4815,1.4145,1.3726,1.3312,1.2704,1.1538,1.0822,1.011,0.8404,0.6972,0.5935,0.5512,0.3284,0.1072,0.0201,-0.0737,-0.2209,-0.4909,-0.5376,-0.5564,-0.6009,-0.6396,-0.7046,-0.7897,-0.872,-0.973,-1.1003,-1.1458,-1.2546,-1.4573,-1.4359,-1.477,-1.6404,-1.611,-1.627,-1.7034,-1.7731,-1.904,-2.1008,-2.3303,-2.503,-2.6148,-2.7291,-2.831,-2.9164,-2.9658,-2.9878,1.6398,1.6886,1.839,2.0819,1.8255,1.6225,0.0,0.0,0.0,1.5922,1.4928,1.4385,1.6221,1.6463,1.629,1.5951,1.7018,1.7609,1.6737,1.7384,1.7875,1.7733,1.7329,1.6927,1.6552,1.5874,1.5087,1.4193,1.3832,1.3497,1.3094,1.3065,1.3017,1.2881,1.2881,1.2881,1.2881,1.2881,1.2881,1.2881,1.3223,1.3389,1.3398,1.374,1.4148,1.4625,1.4185,1.4278,1.4789,1.4701,1.4658,1.4763,1.6002,1.6492,1.6492,1.6492,1.6492,1.6492,1.6492,1.6595,1.6708,1.6708,1.7079,1.7357,1.6026,1.5157,1.456,1.4264,1.3846,1.3243,1.2258,1.1502,1.0551,0.8907,0.7692,0.6658,0.5627,0.4223,0.2609,0.0402,-0.0,-0.0938,-0.383,-0.4909,-0.5379,-0.5432,-0.6017,-0.6531,-0.6654,-0.7172,-0.82,-1.0034,-0.9629,-1.0434,-1.3451,-1.2501,-1.2615,-1.4805,-1.4451,-1.4737,-1.6026,-1.7079,-1.8766,-2.1336,-2.2421,-2.3707,-2.5192,-2.6869,-2.8218,-2.9298,-2.985,-2.996,0.0,0.0,1.7885,1.8221,1.9804,2.0764,1.877,0.0,1.7349,1.755,0.0,1.6942,1.591,0.0,0.0,1.5222,1.6152,1.6591,1.5765,1.6666,1.7126,1.6399,1.625,1.6454,1.697,1.5724,1.4992,1.5313,1.3921,1.3281,1.369,1.3684,1.3467,1.2929,1.2881,1.2881,1.2881,1.2881,1.2881,1.2881,1.293,1.2949,1.2959,1.2998,1.3067,1.3194,1.3469,1.3625,1.3716,1.4033,1.4209,1.4341,1.5869,1.6492,1.6492,1.6492,1.6492,1.6492,1.6492,1.6922,1.7468,1.7468,1.7523,1.7468,1.6652,1.6312,1.5958,1.456,1.4628,1.4805,1.3243,1.2818,1.2312,1.0613,0.9035,0.7372,0.5727,0.5219,0.409,0.0669,-0.0,-0.0134,-0.0536,-0.3286,-0.5389,-0.5379,-0.5516,-0.5841,-0.6593,-0.6121,-0.6624,-0.9116,-0.9243,-0.9932,-1.1805,-1.1805,-1.2143,-1.3183,-1.3846,-1.4273,-1.4442,-1.6497,-1.8555,-2.058,-2.1403,-2.3115,-2.5884,-2.6777,-2.7768,-2.8874,-2.8946,-2.9148,0.0,1.9084,2.0408,2.0411,2.0057,1.9343,1.8099,1.78,1.7878,1.8194,0.0,0.0,0.0,0.0,0.0,0.0,1.5578,1.5443,1.4465,1.5144,1.5833,1.6065,1.5723,1.5597,1.5948,1.525,1.4828,1.4963,1.4093,1.3659,1.3837,1.413,1.4061,1.342,1.342,1.342,1.342,1.3055,1.3055,1.342,1.3065,1.2881,1.2929,1.3238,1.342,1.343,1.3614,1.3695,1.3677,1.3738,1.3769,1.3932,1.5648,1.6278,1.624,1.7046,1.7224,1.7191,1.7633,1.795,1.8328,1.8715,1.8286,1.7523,1.7246,1.681,1.6255,1.5216,1.5108,1.5108,1.3965,1.3373,1.2565,1.0927,0.9227,0.7632,0.6449,0.5752,0.497,0.3416,0.1405,-0.0,-0.0,-0.1272,-0.2614,-0.3685,-0.4706,-0.5312,-0.4938,-0.5219,-0.6203,-0.8227,-0.8135,-0.8965,-1.1497,-1.0843,-1.1301,-1.3545,-1.4845,-1.5718,-1.6146,-1.7501,-1.9144,-2.1117,-2.2477,-2.4108,-2.5992,-2.7792,-2.8552,-2.8349,-2.8764,-2.8839,1.9615,2.0625,2.2297,2.2306,2.0025,1.7804,1.7799,1.8705,1.9366,1.8733,1.8172,0.0,0.0,0.0,1.6462,1.6044,0.0,1.5039,1.3678,1.4047,1.4662,1.5222,1.5091,1.4988,1.5085,1.462,1.4492,1.4946,1.4188,1.3867,1.4278,1.4572,1.4518,1.405,1.405,1.405,1.405,1.361,1.3515,1.3768,1.3382,1.3065,1.2929,1.3505,1.3815,1.3815,1.3815,1.3815,1.38,1.3481,1.3431,1.3741,1.5197,1.5851,1.6137,1.741,1.7897,1.7961,1.8501,1.8821,1.9097,1.9643,1.9097,1.8178,1.7961,1.7413,1.6698,1.613,1.5853,1.5575,1.4972,1.4067,1.2907,1.1549,0.9736,0.8091,0.7242,0.6342,0.5701,0.5442,0.3282,0.1338,0.0803,0.0335,-0.0469,-0.174,-0.3088,-0.3763,-0.3411,-0.457,-0.5704,-0.6416,-0.6539,-0.7731,-1.0438,-0.9594,-1.0321,-1.3639,-1.5086,-1.6233,-1.7355,-1.79,-1.9028,-2.0784,-2.2955,-2.4645,-2.5836,-2.7856,-2.8642,-2.8311,-2.8634,-2.8152,2.2173,2.2228,2.23,2.2297,2.0044,1.7807,1.7805,2.1008,2.2977,1.9349,1.9492,2.0185,1.9831,1.8875,0.0,0.0,1.6873,0.0,0.0,1.3805,1.3897,1.3267,1.4136,1.48,1.4815,1.3926,1.4084,1.5827,1.4097,1.3634,1.5265,1.4995,1.4754,1.4687,1.4652,1.4652,1.4652,1.4652,1.4376,1.3815,1.3779,1.3467,1.2929,1.3505,1.3815,1.3815,1.3815,1.3815,1.3732,1.3162,1.3258,1.3847,1.4512,1.5348,1.6306,1.7498,1.8211,1.8661,1.8715,1.915,1.9747,1.9798,1.9747,1.9592,1.8874,1.8167,1.7578,1.7523,1.7034,1.6436,1.6425,1.5264,1.3886,1.3105,1.1017,0.9005,0.8156,0.7242,0.64,0.5572,0.5309,0.4697,0.2945,0.1141,-0.0,-0.0067,-0.0134,-0.0807,-0.2477,-0.4308,-0.4721,-0.3078,-0.4434,-0.6203,-0.7966,-0.8037,-0.9462,-1.2844,-1.3584,-1.4799,-1.685,-1.6919,-1.7527,-1.8768,-2.1907,-2.4143,-2.5419,-2.6101,-2.7327,-2.9058,-2.8369,-2.6688,2.0891,2.1414,2.2312,2.2287,2.003,1.7807,1.78,1.8918,2.011,2.0612,1.9984,1.9378,1.9457,1.8519,0.0,0.0,0.0,0.0,0.0,1.2957,1.2689,1.2772,1.335,0.0,1.2876,1.2722,1.3072,1.407,1.3633,1.3786,1.4872,1.5478,1.5496,1.4798,1.5112,1.5276,1.5276,1.4926,1.4789,1.4994,1.4179,1.392,1.4107,1.4294,1.4376,1.4376,1.4376,1.419,1.3732,1.3152,1.3238,1.3862,1.4468,1.5382,1.6467,1.7654,1.8357,1.8768,1.9254,1.9579,1.9798,1.9798,1.9798,1.9643,1.8927,1.885,1.8773,1.7841,1.7752,1.7664,1.6743,1.5678,1.4545,1.3295,1.1502,0.9875,0.9064,0.8156,0.7307,0.6404,0.5807,0.5216,0.4561,0.3964,0.3159,0.1941,0.1809,0.1138,-0.0668,-0.248,-0.336,-0.2746,-0.3274,-0.387,-0.4461,-0.5549,-0.6703,-0.7812,-0.9052,-1.1596,-1.5747,-1.686,-1.3092,-0.4048,-0.78,-0.8846,-0.6761,-1.161,-1.3913,-1.3813,-1.6992,-2.047,2.018,2.0524,2.1526,2.2141,2.0851,1.9228,1.8506,1.8322,1.8886,2.0868,2.0354,1.9684,2.0169,1.9181,1.8169,0.0,0.0,0.0,0.0,1.2841,1.2504,1.2729,0.0,0.0,0.0,1.1778,1.2132,1.2998,1.3035,1.356,1.4734,1.5591,1.5813,1.5369,1.5715,1.5908,1.5908,1.5511,1.5421,1.5588,1.4812,1.4549,1.4698,1.4926,1.5017,1.5017,1.5017,1.4687,1.405,1.3467,1.3563,1.4143,1.456,1.5556,1.6886,1.7837,1.8573,1.9202,1.9888,2.0156,2.0156,2.0156,2.0156,2.0093,1.9825,1.9762,1.9556,1.8943,1.8855,1.8725,1.7556,1.6465,1.5351,1.41,1.2342,1.0808,1.0249,0.9482,0.8709,0.8109,0.7579,0.7001,0.6396,0.6789,0.6388,0.402,0.3689,0.3482,0.2937,0.1266,0.0133,0.0133,0.0132,0.0395,0.0982,-0.1687,-0.3432,-0.3432,-0.1755,-0.3532,-0.9643,-0.9652,-0.5346,0.3553,0.2441,0.1203,0.0015,-0.4747,-0.7614,-0.8694,-1.1111,-1.4747]},{"header":{"parameterUnit":"m.s-1","parameterCategory":1,"la1":30.6,"la2":29.2853,"lo1":-89.7004,"lo2":-87.6739,"dy":0.0162,"dx":0.0183,"nx":112,"ny":82,"refTime":"2024-08-01T06:00:00:Z","depth":0,"parameterNumber":3,"parameterNumberName":"V-component_of_WINDS"},"data":[0.0,0.0,0.0,0.0,0.0,0.0,0.0,0.0,0.0,0.0,0.0,0.0,0.0,0.0,0.0,0.0,0.0,0.0,0.0,0.0,0.0,0.0,0.0,0.0,0.0,0.0,0.0,0.0,0.0,0.0,0.0,0.0,0.0,0.0,0.0,0.0,0.0,0.0,0.0,0.0,0.0,0.0,0.0,0.0,0.0,0.0,0.0,0.0,0.0,0.0,0.0,0.0,0.0,0.0,0.0,0.0,0.0,0.0,0.0,0.0,0.0,0.0,0.0,0.0,0.0,0.0,0.0,0.0,0.0,0.0,0.0,0.0,0.0,0.0,0.0,0.0,0.0,0.0,0.0,0.0,0.0,0.0,0.0,0.0,0.0,0.0,0.0,0.0,0.0,0.0,0.3285,0.4109,0.5323,0.6752,0.8415,0.8577,0.8325,0.7743,0.0,0.0,0.0,0.0,0.0,0.0,0.0,0.0,0.0,0.0,0.0,0.0,0.0,0.0,0.0,0.0,0.0,0.0,0.0,0.0,0.0,0.0,0.0,0.0,0.0,0.0,0.0,0.0,0.0,0.0,0.0,0.0,0.0,0.0,0.0,0.0,0.0,0.0,0.0,0.0,0.0,0.0,0.0,0.0,0.0,0.0,0.0,0.0,0.0,0.0,0.0,0.0,0.0,0.0,0.0,0.0,0.0,0.0,0.0,0.0,0.0,0.0,0.0,0.0,0.0,0.0,0.0,0.0,0.0,0.0,0.0,0.0,0.0,0.0,0.0,0.0,0.0,0.0,0.0,0.0,0.0,0.0,0.0,0.0,0.0,0.0,0.0,0.0,0.0,0.0,0.0,0.0,0.0,0.0,0.0,0.0,0.0,0.0,0.0,0.0,0.0,0.0,0.0,0.0,0.3471,0.413,0.5355,0.6619,0.7837,0.8351,0.8325,0.7743,0.0,0.0,0.0,0.0,0.0,0.0,0.0,0.0,0.0,0.0,0.0,0.0,0.0,0.0,0.0,0.0,0.0,0.0,0.0,0.0,0.0,0.0,0.0,0.0,0.0,0.0,0.0,0.0,0.0,0.0,0.0,0.0,0.0,0.0,0.0,0.0,0.0,0.0,0.0,0.0,0.0,0.0,0.0,0.0,0.0,0.0,0.0,0.0,0.0,0.0,0.0,0.0,0.0,0.0,0.0,0.0,0.0,0.0,0.0,0.0,0.0,0.0,0.0,0.0,0.0,0.0,0.0,0.0,0.0,0.0,0.0,0.0,0.0,0.0,0.0,0.0,0.0,0.0,0.0,0.0,0.0,0.0,0.0,0.0,0.0,0.0,0.0,0.0,0.0,0.0,0.0,0.0,0.0,0.0,0.0,0.0,0.0,0.0,0.0,0.0,0.0,0.0,0.0,0.2722,0.3448,0.3818,0.4962,0.6247,0.7665,0.8302,0.8325,0.7743,0.834,0.0,0.0,0.0,0.0,0.0,0.0,0.0,0.0,0.0,0.0,0.0,0.0,0.0,0.0,0.0,0.0,0.0,0.0,0.0,0.0,0.0,0.0,0.0,0.0,0.0,0.0,0.0,0.0,0.0,0.0,0.0,0.0,0.0,0.0,0.0,0.0,0.0,0.0,0.0,0.0,0.0,0.0,0.0,0.0,0.0,0.0,0.0,0.0,0.0,0.0,0.0,0.0,0.0,0.0,0.0,0.0,0.0,0.0,0.0,0.0,0.0,0.0,0.0,0.0,0.0,0.0,0.0,0.0,0.0,0.0,0.0,0.0,0.0,0.0,0.0,0.0,0.0,0.0,0.0,0.0,0.0,0.0,0.0,0.0,0.0,0.0,0.0,0.0,0.0,0.0,0.0,0.0,0.0,0.0,0.0,0.0,0.0,0.0,0.0,0.0,0.0,0.0,0.2149,0.3113,0.3554,0.4378,0.5615,0.7445,0.7784,0.7837,0.7694,0.7938,0.0,0.0,0.0,0.0,0.0,0.0,0.0,0.0,0.0,0.0,0.0,0.0,0.0,0.0,0.0,0.0,0.0,0.0,0.0,0.0,0.0,0.0,0.0,0.0,0.0,0.0,0.0,0.0,0.0,0.0,0.0,0.0,0.0,0.0,0.0,0.0,0.0,0.0,0.0,0.0,0.0,0.0,0.0,0.0,0.0,0.0,0.0,0.0,0.0,0.0,0.0,0.0,0.0,0.0,0.0,0.0,0.0,0.0,0.0,0.0,0.0,0.0,0.0,0.0,0.0,0.0,0.0,0.0,0.0,0.0,0.0,0.0,0.0,0.0,0.0,0.0,0.0,0.0,0.0,0.0,0.0,0.0,0.0,0.0,0.0,0.0,0.0,0.0,0.0,0.0,0.0,0.0,0.0,0.0,0.0,0.0,0.0,0.0,0.0,0.0,0.0,0.0,0.1138,0.2337,0.3497,0.3667,0.4596,0.6796,0.6272,0.6347,0.7626,0.7374,0.0,0.0,0.0,0.0,0.0,0.0,0.0,0.0,0.0,0.0,0.0,0.0,0.0,0.0,0.0,0.0,0.0,0.0,0.0,0.0,0.0,0.0,0.0,0.0,0.0,0.0,0.0,0.0,0.0,0.0,0.0,0.0,0.0,0.0,0.0,0.0,0.0,0.0,0.0,0.0,0.0,0.0,0.0,0.0,0.0,0.0,0.0,0.0,0.0,0.0,0.0,0.0,0.0,0.0,0.0,0.0,0.0,0.0,0.0,0.0,0.0,0.0,0.0,0.0,0.0,0.0,0.0,0.0,0.0,0.0,0.0,0.0,0.0,0.0,0.0,0.0,0.0,0.0,0.0,0.0,0.0,0.0,0.0,0.0,0.0,0.0,0.0,0.0,0.0,0.0,0.0,0.0,0.0,0.0,0.0,0.0,0.0,0.0,0.0,0.0,0.0,0.0,0.0393,0.1408,0.3369,0.3585,0.422,0.5775,0.62,0.6488,0.6621,0.0,0.0,0.0,0.0,0.0,0.0,0.0,0.0,0.0,0.0,0.0,0.0,0.0,0.0,0.0,0.0,0.0,0.0,0.0,0.0,0.0,0.0,0.0,0.0,0.0,0.0,0.0,0.0,0.0,0.0,0.0,0.0,0.0,0.0,0.0,0.0,0.0,0.0,0.0,0.0,0.0,0.0,0.0,0.0,0.0,0.0,0.0,0.0,0.0,0.0,0.0,0.0,0.0,0.0,0.0,0.0,0.0,0.0,0.0,0.0,0.0,0.0,0.0,0.0,0.0,0.0,0.0,0.0,0.0,0.0,0.0,0.0,0.0,0.0,0.0,0.0,0.0,0.0,0.0,0.0,0.0,0.0,0.0,0.0,0.0,0.0,0.0,0.0,0.0,0.0,0.0,0.0,0.0,0.0,0.0,0.0,0.0,0.0,0.0,0.0,0.0,0.0,0.0,0.0,0.078,0.2832,0.336,0.4052,0.5196,0.592,0.6206,0.6014,0.0,0.0,0.0,0.0,0.0,0.0,0.0,0.0,0.0,0.0,0.0,0.0,0.0,0.0,0.0,0.0,0.0,0.0,0.0,0.0,0.0,0.0,0.0,0.0,0.0,0.0,0.0,0.0,0.0,0.0,0.0,0.0,0.0,0.0,0.0,0.0,0.0,0.0,0.0,0.0,0.0,0.0,0.0,0.0,0.0,0.0,0.0,0.0,0.0,0.0,0.0,0.0,0.0,0.0,0.0,0.0,0.0,0.0,0.0,0.0,0.0,0.0,0.0,0.0,0.0,0.0,0.0,0.0,0.0,0.0,0.0,0.0,0.0,0.0,0.0,0.0,0.0,0.0,0.0,0.0,0.0,0.0,0.0,0.0,0.0,0.0,0.0,0.0,0.0,0.0,0.0,0.0,0.0,0.0,0.0,0.0,0.0,0.0,0.0,0.0,0.0,0.0,0.0,0.0,0.0445,0.168,0.286,0.4052,0.5196,0.5114,0.5286,0.0,0.0,0.0,0.0,0.0,0.0,0.0,0.0,0.0,0.0,0.0,0.0,0.0,0.0,0.0,0.0,0.0,0.0,0.0,0.0,0.0,0.0,0.0,0.0,0.0,0.0,0.0,0.0,0.0,0.0,0.0,0.0,0.0,0.0,0.0,0.0,0.0,0.0,0.0,0.0,0.0,0.0,0.0,0.0,0.0,0.0,0.0,0.0,0.0,0.0,0.0,0.0,0.0,0.0,0.0,0.0,0.0,0.0,0.0,0.0,0.0,0.0,0.0,0.0,0.0,0.0,0.0,0.0,0.0,0.0,0.0,0.0,0.0,0.0,0.0,0.0,0.0,0.0,0.0,0.0,0.0,0.0,0.0,0.0,0.0,0.0,0.0,0.0,0.0,0.0,0.0,0.0,0.0,0.0,0.0,0.0,0.0,0.0,0.0,0.0,0.0,0.0,0.0,0.0,0.0,0.0446,0.168,0.2865,0.3718,0.4052,0.4671,0.4948,0.4871,0.0,0.0,0.0,0.0,0.0,0.0,0.0,0.0,0.0,0.0,0.0,0.0,0.0,0.0,0.0,0.0,0.0,0.0,0.0,0.0,0.0,0.0,0.0,0.0,0.0,0.0,0.0,0.0,0.0,0.0,0.0,0.0,0.0,0.0,0.0,0.0,0.0,0.0,0.0,0.0,0.0,0.0,0.0,0.0,0.0,0.0,0.0,0.0,0.0,0.0,0.0,0.0,0.0,0.0,0.0,0.0,0.0,0.0,0.0,0.0,0.0,0.0,0.0,0.0,0.0,0.0,0.0,0.0,0.0,0.0,0.0,0.0,0.0,0.0,0.0,0.0,0.0,0.0,0.0,0.0,0.0,0.0,0.0,0.0,0.0,0.0,0.0,0.0,0.0,0.0,0.0,0.0,0.0,0.0,0.0,0.0,0.0,0.0,0.0,0.0,0.0,0.0,-0.0033,0.0,0.0284,0.1018,0.26,0.3598,0.3581,0.4119,0.4414,0.4388,0.0,0.0,0.0,0.0,0.0,0.0,0.0,0.0,0.0,0.0,0.0,0.0,0.0,0.0,0.0,0.0,0.0,0.0,0.0,0.0,0.0,0.0,0.0,0.0,0.0,0.0,0.0,0.0,0.0,0.0,0.0,0.0,0.0,0.0,0.0,0.0,0.0,0.0,0.0,0.0,0.0,0.0,0.0,0.0,0.0,0.0,0.0,0.0,0.0,0.0,0.0,0.0,0.0,0.0,0.0,0.0,0.0,0.0,0.0,0.0,0.0,0.0,0.0,0.0,0.0,0.0,0.0,0.0,0.0,0.0,0.0,0.0,0.0,0.0,0.0,0.0,0.0,0.0,0.0,0.0,0.0,0.0,0.0,0.0,0.0,0.0,0.0,0.0,0.0,0.0,0.0,0.0,0.0,0.0,0.0,0.0,0.0,0.0,0.0,0.0,0.0,0.0,-0.0397,-0.0111,0.0,0.0,0.1973,0.3331,0.349,0.3574,0.3844,0.4357,0.0,0.0,0.0,0.0,0.0,0.0,0.0,0.0,0.0,0.0,0.0,0.0,0.0,0.0,0.0,0.0,0.0,0.0,0.0,0.0,0.0,0.0,0.0,0.0,0.0,0.0,0.0,0.0,0.0,0.0,0.0,0.0,0.0,0.0,0.0,0.0,0.0,0.0,0.0,0.0,0.0,0.0,0.0,0.0,0.0,0.0,0.0,0.0,0.0,0.0,0.0,0.0,0.0,0.0,0.0,0.0,0.0,0.0,0.0,0.0,-0.6591,-0.588,0.0,0.0,0.0,0.0,0.0,0.0,0.0,0.0,0.0,0.0,0.0,0.0,0.0,0.0,0.0,0.0,0.0,0.0,0.0,0.0,0.0,0.0,0.0,0.0,0.0,0.0,0.0,0.0,0.0,0.0,0.0,0.0,0.0,0.0,0.0,0.0,0.0,0.0,0.0,0.0,-0.2405,-0.1028,0.0,0.0,0.0447,0.1295,0.2539,0.322,0.3814,0.4362,0.4181,0.0,0.0,0.0,0.0,0.0,0.0,0.0,0.0,0.0,0.0,0.0,0.0,0.0,0.0,0.0,0.0,0.0,0.0,0.0,0.0,0.0,0.0,0.0,0.0,0.0,0.0,0.0,0.0,0.0,0.0,0.0,0.0,0.0,0.0,0.0,0.0,0.0,0.0,0.0,0.0,0.0,0.0,0.0,0.0,0.0,0.0,0.0,0.0,0.0,0.0,0.0,0.0,0.0,0.0,0.0,0.0,0.0,0.0,0.0,-0.6439,-0.596,0.0,0.0,0.0,0.0,0.0,0.0,0.0,0.0,0.0,0.0,0.0,0.0,0.0,0.0,0.0,0.0,0.0,0.0,0.0,0.0,0.0,0.0,0.0,0.0,0.0,0.0,0.0,0.0,0.0,0.0,0.0,0.0,0.0,0.0,0.0,0.0,0.0,0.0,0.0,0.0,-0.3018,-0.2176,-0.1185,-0.0133,0.0,0.0357,0.1158,0.268,0.3716,0.4008,0.4343,0.0,0.0,0.0,0.0,0.0,0.0,0.0,0.0,0.0,0.0,0.0,0.0,0.0,0.0,0.0,0.0,0.0,0.0,0.0,0.0,0.0,0.0,0.0,0.0,0.0,0.0,0.0,0.0,0.0,0.0,0.0,0.0,0.0,0.0,0.0,0.0,0.0,0.0,0.0,0.0,0.0,0.0,0.0,0.0,0.0,0.0,0.0,0.0,0.0,0.0,0.0,0.0,0.0,-0.8545,-0.8537,-0.9271,-0.8152,-0.7766,-0.7809,-0.6366,-0.6356,-0.7241,-0.6068,0.0,0.0,0.0,0.0,0.0,0.0,0.0,0.0,0.0,0.0,0.0,0.0,0.0,0.0,0.0,0.0,0.0,0.0,0.0,0.0,0.0,0.0,-0.6455,-0.6511,-0.6684,-0.6513,-0.5221,0.0,0.0,0.0,0.0,0.0,0.0,0.0,0.0,0.0,0.0,0.0,-0.34,-0.3363,-0.2721,-0.1016,-0.0712,-0.0535,-0.0312,0.152,0.286,0.3275,0.429,0.52,0.0,0.0,0.0,0.0,0.0,0.0,0.0,0.0,0.0,0.0,0.0,0.0,0.0,0.0,0.0,0.0,0.0,0.0,0.0,0.0,0.0,0.0,0.0,0.0,0.0,0.0,0.0,0.0,0.0,0.0,0.0,0.0,-0.6884,-0.7295,0.0,0.0,0.0,0.0,0.0,0.0,0.0,0.0,0.0,0.0,0.0,0.0,0.0,-0.7942,-0.8375,-0.8514,-0.8603,-0.8655,-0.8658,-0.8737,-0.8908,-0.9855,-0.9709,-0.8649,-0.8433,0.0,-0.8458,-0.7273,0.0,0.0,0.0,0.0,0.0,0.0,0.0,0.0,0.0,0.0,0.0,0.0,0.0,0.0,0.0,0.0,0.0,0.0,0.0,0.0,0.0,0.0,-0.9311,-0.9081,-0.921,-0.9289,-0.8873,-0.7063,-0.5412,-0.4952,-0.4993,-0.4949,0.0,0.0,0.0,0.0,0.0,0.0,-0.4865,-0.4121,-0.368,-0.4042,-0.3437,-0.262,-0.1548,-0.1194,-0.013,0.1918,0.2179,0.4002,0.7761,0.7674,0.0,0.0,0.0,0.0,0.0,0.0,0.0,0.0,0.0,0.0,0.0,0.0,0.0,0.0,0.0,0.0,0.0,0.0,0.0,0.0,0.0,0.0,0.0,0.0,0.0,0.0,0.0,0.0,0.0,-0.686,-0.7497,-0.8062,-0.8159,-0.8049,0.0,0.0,0.0,0.0,0.0,0.0,0.0,0.0,0.0,-0.9692,-0.9666,-0.9651,-0.9695,-0.996,-1.0062,-1.007,-0.9929,-0.976,-0.9585,-0.9667,-0.9383,-0.8824,-0.8791,-0.8795,-0.876,-0.8217,-0.7867,-0.7613,0.0,0.0,0.0,0.0,-0.8349,-0.8839,-0.9699,-0.9897,-0.979,-0.9695,0.0,0.0,0.0,0.0,0.0,0.0,0.0,-0.9392,-0.9725,-1.0365,-1.1063,-1.1402,-1.1196,-1.0827,-1.0587,-0.9581,-0.8326,-0.6823,-0.6409,-0.597,-0.4978,-0.4752,0.0,0.0,0.0,-0.5645,-0.5894,-0.6145,-0.6055,-0.5382,-0.5427,-0.5728,-0.6355,-0.5234,-0.2974,0.0546,-0.0199,0.0529,0.3509,0.7691,1.004,0.0,0.0,0.0,0.0,0.0,0.0,0.0,0.0,0.0,0.0,0.0,0.0,0.0,0.0,0.0,0.0,0.0,0.0,0.0,0.0,0.0,0.0,0.0,0.0,0.0,0.0,0.0,0.0,-0.7554,-0.8265,-0.8872,-0.9254,-0.9338,0.0,0.0,0.0,0.0,0.0,0.0,-1.0244,-1.0358,-1.0561,-1.0906,-1.1252,-1.1233,-1.0834,-1.1046,-1.1182,-1.1182,-1.0673,-1.0397,-1.0346,-0.9259,-0.8788,-0.879,-0.9133,-0.909,-0.8794,-0.8779,-0.8776,-0.8723,-0.801,-0.8227,-0.8989,-0.9308,-0.983,-1.0452,-1.1435,-1.1759,-1.1689,-1.1257,-1.108,-1.0838,-0.9894,0.0,0.0,0.0,0.0,-1.1193,-1.1807,-1.2246,-1.2686,-1.3286,-1.2923,-1.2407,-1.2194,-1.2006,-1.114,-0.8841,-0.8331,-0.7865,-0.6641,-0.6512,0.0,-0.5975,-0.6824,-0.7602,-0.7926,-0.8582,-0.8653,-0.7643,-0.8033,-0.8919,-1.0275,-0.9191,-0.7209,-0.4478,-0.293,-0.1689,-0.079,0.5984,0.9812,1.0031,0.0,0.0,0.0,0.0,0.0,0.0,0.0,0.0,0.0,0.0,0.0,0.0,0.0,0.0,0.0,0.0,0.0,0.0,0.0,0.0,0.0,0.0,0.0,0.0,0.0,0.0,0.0,0.0,0.0,-0.9521,-1.0303,0.0,0.0,0.0,0.0,-0.96,-1.0322,-1.1169,-1.2005,-1.1842,-1.1746,-1.1817,-1.1986,-1.1678,-1.091,-1.0925,-1.0933,-1.0933,-1.0121,-1.0114,-1.0812,-0.9458,-0.8806,-0.8871,-1.0036,-0.9846,-0.8774,-0.8823,-0.8824,-0.877,-0.836,-0.8068,-0.8153,-0.9771,-1.0362,-1.0642,-1.2272,-1.2559,-1.2266,-1.2656,-1.261,-1.2394,-1.232,-1.2469,0.0,0.0,-1.3218,-1.389,-1.3935,-1.4261,-1.4574,-1.4607,-1.4584,-1.4549,-1.4527,-1.4021,-1.3011,-1.0999,-1.1126,-1.1426,-1.0955,0.0,-1.0371,-1.0535,-1.0371,-1.0611,-1.1773,-1.1263,-1.117,-1.2163,-1.2195,-1.1878,-1.1285,-1.2462,-1.4049,-1.5944,-0.6048,-0.0933,-0.2676,0.1775,0.4677,0.5508,0.6477,0.0,0.0,0.0,0.0,0.0,0.0,0.0,0.0,0.0,0.0,0.0,0.0,0.0,0.0,0.0,0.0,0.0,0.0,0.0,0.0,0.0,0.0,0.0,0.0,0.0,0.0,0.0,0.0,-1.0793,-1.1396,0.0,-1.0928,-1.1533,-1.1895,-1.1738,-1.2063,-1.2657,-1.3387,-1.2911,-1.2627,-1.2677,-1.2694,-1.2419,-1.1696,-1.1873,-1.1986,-1.1986,-1.1331,-1.1144,-1.1371,-1.1472,-1.0538,-0.8877,-1.0098,-1.1526,-1.2965,-1.1927,-1.0676,-0.9322,-0.9005,-0.9063,-0.9474,-0.9875,-1.0573,-1.1381,-1.1975,-1.2406,-1.2676,-1.2832,-1.3121,-1.3331,-1.3331,-1.3651,-1.4043,-1.4043,-1.4511,-1.5063,-1.5063,-1.5695,-1.6275,-1.5964,-1.5808,-1.5784,-1.5784,-1.5028,-1.4233,-1.3883,-1.314,-1.2425,-1.1943,-1.1863,-1.1711,-1.1219,-1.1531,-1.2317,-1.3644,-1.386,-1.4265,-1.5248,-1.5333,-1.5343,-1.5533,-1.5065,-1.5291,-1.6571,-1.2849,-0.7727,-0.13,0.0482,0.2531,0.5079,0.606,0.661,0.0,0.0,0.0,0.0,0.0,0.0,0.0,0.0,0.0,0.0,0.0,0.0,0.0,0.0,0.0,0.0,0.0,0.0,0.0,0.0,0.0,0.0,0.0,0.0,0.0,-1.0176,-1.0953,-1.1509,-1.2209,-1.249,-1.2096,-1.2793,-1.3301,-1.3301,-1.3389,-1.3695,-1.4291,-1.39,-1.3636,-1.3485,-1.3709,-1.3541,-1.2806,-1.3055,-1.3125,-1.3125,-1.2522,-1.2263,-1.2349,-1.2224,-1.1783,-1.102,-1.073,-1.1802,-1.3752,-1.3236,-1.2038,-1.0533,-1.0271,-1.0313,-1.0559,-1.0806,-1.1369,-1.2063,-1.2135,-1.2638,-1.319,-1.319,-1.3732,-1.4411,-1.4411,-1.4824,-1.5287,-1.5287,-1.5599,-1.5908,-1.5908,-1.6587,-1.7188,-1.6837,-1.6883,-1.697,-1.697,-1.6511,-1.6145,-1.6316,-1.5034,-1.3751,-1.3422,-1.3629,-1.3678,-1.3122,-1.3784,-1.4708,-1.5691,-1.6388,-1.7054,-1.7698,-1.822,-1.8455,-1.8306,-1.8058,-1.756,-1.6728,-1.6347,-1.2277,-0.3599,-0.1326,0.0879,0.3325,0.475,0.5859,0.6651,0.0,0.0,0.0,0.0,0.0,0.0,0.0,0.0,0.0,0.0,0.0,0.0,0.0,0.0,0.0,0.0,0.0,0.0,0.0,0.0,0.0,0.0,0.0,-1.0289,-1.1079,-1.1638,-1.1669,-1.2783,-1.3359,-1.2969,-1.3672,-1.4097,-1.4097,-1.4116,-1.4355,-1.4785,-1.4805,-1.464,-1.4255,-1.4991,-1.505,-1.4273,-1.4273,-1.4273,-1.4213,-1.3425,-1.3347,-1.3775,-1.1622,-1.2343,-1.5093,-1.1947,-1.0611,-1.0694,-1.2294,-1.2641,-1.2189,-1.2118,-1.16,-1.1141,-1.2529,-1.2851,-1.2574,-1.2859,-1.3326,-1.381,-1.38,-1.4606,-1.5611,-1.5588,-1.6008,-1.6522,-1.6522,-1.6522,-1.6522,-1.6522,-1.6909,-1.7312,-1.7312,-1.7706,-1.8145,-1.8145,-1.8478,-1.8693,-1.8249,-1.6831,-1.5696,-1.5708,-1.6133,-1.6489,-1.6582,-1.7303,0.0,-1.8085,-1.8914,-1.9476,-1.9512,-2.0866,-2.1041,-1.928,-2.1399,-2.1156,-1.729,-1.6035,-1.3668,-0.9721,-0.3944,-0.0567,-0.0069,0.2307,0.3865,0.4506,0.0,0.0,0.0,0.0,0.0,0.0,0.0,0.0,0.0,0.0,0.0,0.0,0.0,0.0,0.0,0.0,0.0,0.0,0.0,0.0,0.0,-1.0745,-1.1431,-1.1252,-1.2002,-1.2651,-1.2934,-1.3521,-1.3861,-1.3782,-1.4266,-1.4609,-1.4609,-1.4883,-1.5107,-1.5234,-1.5244,-1.5168,-1.505,-1.5294,-1.5294,-1.505,-1.505,-1.505,-1.505,-1.4264,-1.4267,-1.4906,-1.3122,-1.2158,-1.1851,-1.0972,-1.0595,-1.0608,-1.1076,-1.1497,-1.1866,-1.1606,-1.1787,-1.2167,-1.2307,-1.2633,-1.3022,-1.3556,-1.3883,-1.4021,-1.4179,-1.4736,-1.5428,-1.5572,-1.6008,-1.6522,-1.6522,-1.6522,-1.6522,-1.6522,-1.7188,-1.7787,-1.7394,-1.8027,-1.8688,-1.8688,-1.876,-1.8867,-1.9133,-1.8734,-1.8247,-1.7981,-1.7759,-1.7839,-1.8517,-1.8555,-1.8994,-2.0221,-2.0607,-2.1045,-2.1719,-2.2569,-2.2785,-2.2042,-2.1205,-1.9979,-1.819,-1.5597,-1.249,-0.8791,-0.6687,-0.4242,-0.1347,0.1012,0.2221,0.0,0.0,0.0,0.0,0.0,0.0,0.0,0.0,0.0,0.0,0.0,0.0,0.0,0.0,0.0,0.0,0.0,0.0,0.0,0.0,0.0,0.0,-1.1853,-1.2535,-1.2613,-1.3061,-1.3482,-1.3714,-1.4106,-1.4409,-1.4382,-1.4778,-1.5127,-1.5303,-1.5547,-1.5771,-1.5957,-1.5967,-1.5967,-1.5967,-1.5967,-1.5967,-1.5967,-1.5967,-1.5967,-1.5967,-1.5352,-1.5175,-1.5393,-1.4445,-1.3528,-1.2517,-1.1207,-1.0963,-1.1598,-1.1593,-1.2073,-1.2785,0.0,0.0,0.0,0.0,-1.3451,-1.3819,-1.4028,-1.4291,-1.4611,-1.5041,-1.5581,-1.6109,-1.6546,-1.6781,-1.6886,-1.6886,-1.687,-1.6837,-1.6837,-1.7626,-1.838,-1.8027,-1.8612,-1.9281,-1.9471,-1.9606,-1.9823,-2.0147,-2.0255,0.0,-2.0195,-1.9632,-1.9256,-1.9385,-2.0055,-2.0745,-2.1346,-2.1976,-2.2591,-2.3133,-2.3671,-2.3633,-2.2752,-2.1666,0.0,0.0,0.0,-1.0997,-0.6386,-0.5751,0.0,0.0,0.0,0.0,0.0,0.1566,0.0,0.0,0.2947,0.3067,0.0,0.0,0.0,0.0,0.0,0.0,0.0,0.0,0.0,0.0,0.0,0.0,0.0,0.0,0.0,0.0,-1.2838,-1.3478,-1.4077,-1.4194,-1.4212,-1.4181,-1.4582,-1.4873,-1.4939,-1.5253,-1.5674,-1.6135,-1.6184,-1.6309,-1.6709,-1.6665,0.0,0.0,0.0,-1.6665,-1.6665,-1.6665,-1.6665,-1.6728,-1.6419,-1.5972,-1.5402,-1.5413,-1.5513,-1.5511,-1.2498,-1.192,-1.3214,-1.3103,-1.3563,-1.4213,-1.4332,-1.3906,-1.3391,-1.4468,-1.4853,-1.4795,-1.4459,0.0,0.0,-1.6125,-1.6758,-1.7338,-1.8014,-1.7865,-1.7463,-1.74,-1.738,-1.7404,-1.7325,-1.8106,-1.893,-1.8954,-1.9354,-1.9818,-2.028,-2.0731,-2.0991,-2.1055,-2.1413,-2.1832,-2.2124,-2.1414,-2.0575,-1.9953,-2.1591,-2.2685,-2.2005,-2.3112,-2.3958,-2.3946,-2.4274,0.0,-2.2245,-2.2178,-2.0046,-1.4953,-1.2914,-0.9467,-0.4052,-0.3166,-0.1783,0.0425,0.0658,0.0858,0.1068,0.0334,0.0385,0.1191,0.2045,0.2582,0.0,0.0,0.0,0.0,0.0,0.0,0.0,0.0,0.0,0.0,0.0,0.0,0.0,0.0,0.0,-1.3414,-1.4543,-1.5182,-1.4753,-1.4916,-1.5039,-1.4685,-1.5013,-1.5408,-1.5796,-1.593,-1.6143,-1.6554,-1.6556,-1.6641,-1.6728,-1.6665,-1.6665,-1.6665,-1.6665,-1.6665,-1.6665,-1.6665,-1.6665,-1.6665,-1.6403,0.0,-1.5366,-1.5378,-1.6189,-1.7349,-1.5374,-1.4459,-1.4327,-1.3873,-1.3865,-1.4273,-1.4923,-1.505,-1.4982,-1.5206,-1.5293,-1.5331,-1.5869,-1.6119,-1.638,-1.7301,-1.7635,-1.7816,-1.8126,-1.8129,0.0,-1.7501,-1.772,-1.7932,-1.7444,-1.8106,-1.9006,-1.9368,-1.9609,-1.9909,-2.0698,-2.0926,-2.1103,-2.143,-2.2017,-2.2512,-2.2574,-2.1905,-2.1661,-2.2583,-2.2876,-2.3187,-2.3792,-2.4164,-2.4304,-2.4072,-2.4316,-2.3849,-2.2236,-2.0718,-1.8733,-1.6093,-1.181,-0.8669,-0.7057,-0.4803,-0.3378,-0.2885,-0.1341,-0.0522,-0.0479,-0.0137,0.0095,0.0292,0.102,0.1352,0.0,0.0,0.0,0.0,0.0,0.0,0.0,0.0,0.0,0.0,0.0,-1.1727,-1.2715,0.0,-1.436,-1.4811,-1.5417,-1.5703,-1.5148,-1.5576,-1.5732,-1.5177,-1.5488,-1.582,-1.6055,-1.6255,-1.6572,-1.704,-1.7032,-1.7154,-1.7353,-1.7373,-1.7373,-1.7373,-1.7373,-1.7373,-1.7373,-1.7373,-1.7373,-1.7373,-1.7243,-1.6977,-1.6706,-1.6684,-1.7169,-1.7974,-1.7101,-1.6227,-1.5467,-1.4837,-1.4684,-1.4874,-1.5633,-1.5921,-1.5921,-1.5921,-1.6197,-1.6528,-1.6922,-1.7034,-1.7213,-1.8037,-1.8322,-1.839,-1.8871,-1.905,-1.896,-1.8374,-1.8627,-1.8893,-1.8275,-1.8697,-1.9427,-1.9849,-1.9984,-2.0227,-2.1118,-2.1428,-2.1639,-2.1899,-2.2502,-2.2947,-2.2947,-2.2825,-2.2923,-2.3412,-2.3801,-2.4168,-2.4521,-2.481,-2.4857,-2.4495,-2.4454,-2.3787,-2.2129,-1.8929,-1.6361,-1.4805,-1.0686,-0.8037,-0.7472,-0.5457,-0.4047,-0.3454,-0.2512,-0.1663,-0.0999,-0.0681,-0.035,0.0,0.0747,0.1028,0.0,0.0,0.0,0.0,0.0,0.0,0.0,0.0,-1.1109,-1.2278,-1.3273,-1.4114,-1.4772,-1.5244,-1.5646,-1.6009,-1.6023,-1.591,-1.5658,-1.5974,-1.6055,-1.5488,-1.581,-1.6107,-1.6207,-1.6572,-1.7006,-1.7475,-1.7494,-1.7691,-1.7988,-1.8008,-1.8008,-1.8008,-1.8008,-1.8008,-1.8008,-1.8008,-1.8008,-1.8008,-1.8022,-1.8025,-1.8015,-1.8019,-1.8025,-1.8022,-1.794,-1.7242,-1.6196,-1.5753,-1.5488,-1.5468,-1.6208,-1.6606,-1.6708,-1.6708,-1.709,-1.7633,-1.7731,-1.7786,-1.7961,-1.8661,-1.8927,-1.9032,-1.9786,-2.0086,-2.0035,-1.951,-1.9795,-2.0093,-1.9374,-1.9618,-2.0096,-2.0481,-2.0483,-2.0667,-2.1568,-2.1931,-2.213,-2.2248,-2.2849,-2.3277,-2.3212,-2.3731,-2.4063,-2.3798,-2.4535,-2.5044,-2.4809,-2.518,-2.5251,-2.4717,-2.4402,-2.3371,-2.1254,-1.719,-1.4255,-1.311,-0.9902,-0.7824,-0.7364,-0.5696,-0.4311,-0.3352,-0.315,-0.249,-0.1273,-0.118,-0.0732,0.0,0.0591,0.0846,-1.195,-1.2431,-1.2849,-1.2758,-1.3195,-1.3846,0.0,0.0,-1.5096,-1.5737,-1.5978,-1.6032,-1.6033,-1.6454,-1.6758,-1.6698,-1.657,-1.6415,-1.6388,-1.5867,-1.5488,-1.541,-1.581,-1.6256,-1.6609,-1.7024,-1.7514,-1.791,-1.792,-1.7949,-1.8008,-1.8008,-1.8008,-1.8008,-1.8008,-1.8008,-1.8008,-1.8008,-1.8008,-1.8008,-1.7978,-1.8027,-1.8017,-1.8025,-1.8035,-1.7948,-1.7642,-1.6992,-1.6125,-1.6076,-1.5762,-1.5468,-1.6208,-1.6922,-1.7468,-1.7468,-1.7523,-1.7677,-1.8328,-1.8555,-1.8715,-1.9423,-1.9695,-1.9786,-2.0497,-2.0706,-2.0695,-2.0683,-2.1072,-2.1311,-2.0519,-2.0706,-2.1163,-2.1405,-2.1181,-2.115,-2.2032,-2.2181,-2.213,-2.2248,-2.3025,-2.3544,-2.3236,-2.4044,-2.4712,-2.4663,-2.4959,-2.5165,-2.5078,-2.5205,-2.5022,-2.4247,-2.3902,-2.2164,-1.8387,-1.5939,-1.4155,-1.3014,-1.0182,-0.8577,-0.8526,-0.5774,-0.4222,-0.4066,-0.3428,-0.2691,-0.1902,-0.1362,-0.0721,0.0,0.0111,0.0111,-1.4112,-1.4488,0.0,0.0,-1.5226,-1.5547,-1.5951,-1.6037,-1.6076,-1.6086,-1.6442,-1.6774,-1.6956,-1.7194,-1.7594,0.0,-1.7944,-1.7442,-1.7045,-1.7073,-1.6825,-1.6151,-1.6842,-1.7185,-1.6775,-1.7116,-1.7561,-1.7998,-1.8008,-1.825,-1.8716,-1.8307,-1.8202,-1.8721,-1.8269,-1.8008,-1.8008,-1.8008,-1.8008,-1.8008,-1.8008,-1.8008,-1.8008,-1.8006,-1.8016,-1.7988,-1.7568,-1.7168,-1.6797,-1.6341,-1.5957,-1.5881,-1.6804,-1.7302,-1.7633,-1.8058,-1.8501,-1.8927,-1.9254,-1.9359,-1.9371,-1.9695,-2.0055,-2.0446,-2.0709,-2.1321,-2.1838,-2.1467,-2.2004,-2.255,-2.1829,-2.1716,-2.1834,-2.2162,-2.1786,-2.1538,-2.2163,-2.2537,-2.2703,-2.2563,-2.3318,-2.3919,-2.3707,-2.4315,-2.4851,-2.4959,-2.5203,-2.5329,-2.5183,-2.5209,-2.4849,-2.3858,-2.216,-2.0155,-1.7786,-1.5764,-1.3736,-1.1787,-0.9811,-0.8358,-0.7529,-0.5457,-0.4372,-0.4372,-0.4098,-0.355,-0.2732,-0.205,-0.1341,-0.0615,-0.0224,0.0224,-1.552,0.0,0.0,-1.6577,-1.6892,-1.7115,-1.7109,-1.7221,-1.7289,-1.7054,-1.7397,-1.7783,-1.7871,-1.7886,-1.815,-1.8916,-1.8441,-1.7875,-1.7525,-1.7796,-1.7712,-1.692,-1.7588,-1.7839,-1.7186,-1.7463,-1.8008,-1.8662,-1.8472,-1.8772,-1.9596,-1.8844,-1.8654,-1.9299,-1.8462,-1.8008,-1.8008,-1.8008,-1.8008,-1.8008,-1.8008,-1.8008,-1.8008,-1.8008,-1.8008,-1.7988,-1.7686,-1.749,-1.739,-1.6802,-1.6597,-1.6719,-1.76,-1.7986,-1.821,-1.8774,-1.9359,-1.9798,-1.9798,-1.9798,-1.985,-2.0003,-2.0396,-2.0845,-2.1224,-2.2067,-2.2831,-2.2517,-2.3131,-2.3795,-2.3273,-2.2986,-2.2833,-2.2892,-2.2488,-2.2145,-2.2349,-2.2832,-2.3117,-2.2898,-2.3566,-2.4153,-2.4025,-2.4433,-2.487,-2.5099,-2.5313,-2.5371,-2.5129,-2.4836,-2.4254,-2.3221,-2.0539,-1.8432,-1.7482,-1.5413,-1.324,-1.1206,-0.976,-0.8365,-0.6913,-0.5534,-0.4677,-0.4519,-0.4519,-0.4015,-0.301,-0.2454,-0.173,-0.0783,-0.0224,0.0504,0.0,0.0,-1.7364,-1.7383,-1.816,-1.8933,-1.893,-1.9342,-1.9709,-1.9697,-1.9696,-1.9506,-1.8802,-1.8663,-1.8482,-1.7775,-1.742,-1.7336,-1.7592,-1.7419,-1.7318,-1.7543,-1.7606,-1.7791,-1.8199,-1.8382,-1.9026,-2.0443,-1.9747,-1.9609,-2.0511,-1.9713,-1.9299,-1.9299,-1.8462,-1.8008,-1.8008,-1.8008,-1.8008,-1.8008,-1.8008,-1.8008,-1.8008,-1.8008,-1.8008,-1.8008,-1.7998,-1.7764,-1.7409,-1.7677,-1.7842,-1.8002,-1.8449,-1.9036,-1.955,-1.9726,-1.9798,-1.9798,-1.9798,-1.9798,-1.9901,-2.0547,-2.0795,-2.1042,-2.2267,-2.3054,-2.3576,-2.4168,-2.4721,-2.5067,-2.4811,-2.4704,-2.4496,-2.3594,-2.3376,-2.3226,-2.279,-2.2972,-2.3189,-2.3189,-2.3735,-2.4153,-2.4025,-2.4433,-2.4879,-2.5173,-2.5305,-2.5253,-2.4868,-2.39,-2.2954,-2.2218,-1.9451,-1.7429,-1.6956,-1.4496,-1.2598,-1.1814,-1.0452,-0.9054,-0.7606,-0.623,-0.5164,-0.4519,-0.4519,-0.3735,-0.2232,-0.223,-0.1452,-0.0056,0.0,0.0783,0.0,0.0,-1.8006,-1.8377,-1.875,-1.9095,-1.9457,-1.9645,-1.9645,-1.9189,-1.879,-1.846,-1.8223,-1.7746,-1.7603,-1.8251,-1.843,-1.8507,-1.873,-1.9297,-1.9538,-1.8996,-1.9412,-1.9863,-2.0037,-1.9022,-1.8806,-1.9898,-1.9727,-2.0143,-2.1393,-2.0651,-2.0139,-2.0139,-1.95,-1.8771,-1.8022,-1.7975,-1.8026,-1.8026,-1.7999,-1.8022,-1.8031,-1.7997,-1.8008,-1.8008,-1.8008,-1.8247,-1.8654,-1.8437,-1.8678,-1.9293,-1.9691,-1.9722,-1.9677,-2.0213,-2.0437,-2.0396,-1.9952,-2.0105,-2.0497,-2.0759,-2.1615,-2.2684,-2.3113,-2.3872,-2.4665,-2.4855,-2.5335,-2.5713,-2.5612,-2.5461,-2.5128,-2.4309,-2.3748,-2.3289,-2.279,-2.2972,-2.3277,-2.35,-2.3896,-2.4266,-2.4487,-2.4678,-2.4929,-2.5271,-2.5185,-2.4938,-2.4581,-2.3745,-2.2641,-2.1121,-1.8947,-1.7102,-1.586,-1.3543,-1.1665,-1.0452,-0.9106,-0.7647,-0.6284,-0.5324,-0.4732,-0.4519,-0.4519,-0.3956,-0.2954,-0.2454,-0.1675,-0.0727,-0.0224,0.0783,-1.7958,-1.8204,-1.8581,-1.9152,-1.9296,-1.9379,-1.9722,-1.9798,-1.9685,-1.9208,-1.8809,-1.8474,-1.8055,-1.7286,-1.7062,-1.8365,-1.8788,-1.9,-1.9357,-2.0314,-2.077,-2.0133,-2.0555,-2.0972,-2.1092,0.0,0.0,-2.0288,-2.0321,-2.09,-2.2249,-2.1803,-2.1504,-2.1504,-1.994,-1.8751,-1.8006,-1.9211,-1.9823,-1.9834,-1.9217,-1.8833,-1.8583,-1.821,-1.8134,-1.8462,-1.8462,-1.8977,-1.9716,-1.955,-1.9879,-2.0611,-2.0768,-2.0694,-2.0568,-2.0694,-2.0835,-2.0985,-2.0373,-2.0584,-2.121,-2.1602,-2.2548,-2.3576,-2.3998,-2.4745,-2.5503,-2.5503,-2.5835,-2.6262,-2.6262,-2.6135,-2.5827,-2.5268,-2.4632,-2.4062,-2.3595,-2.3541,-2.3661,-2.385,-2.4114,-2.441,-2.4746,-2.4953,-2.512,-2.5325,-2.5098,-2.4731,-2.4281,-2.3616,-2.2393,-2.0242,-1.8571,-1.6904,-1.5128,-1.302,-1.1308,-1.0156,-0.8756,-0.7346,-0.5923,-0.5222,-0.4732,-0.4519,-0.4519,-0.3956,-0.2899,-0.2454,-0.1675,-0.0671,-0.0224,0.0783,-1.9045,-1.907,-1.9134,-1.9648,-1.9798,-1.9786,-1.9825,-1.9762,-1.9762,-1.9773,-1.9745,-1.9351,-1.8305,0.0,-1.6857,-1.8097,-1.8429,-1.8771,-1.949,-2.0482,-2.1106,0.0,0.0,0.0,0.0,0.0,0.0,-2.1587,-2.1482,-2.1874,-2.3053,-2.3096,-2.3071,-2.3083,-1.9946,-1.8224,-1.815,-2.1417,-2.3107,-2.3095,-2.1433,-2.0303,-1.9735,-1.8627,-1.8596,-1.9299,-1.9365,-1.9879,-2.0685,-2.0941,-2.1414,-2.1968,-2.1683,-2.187,-2.2241,-2.1146,-2.1197,-2.1625,-2.1143,-2.1293,-2.1965,-2.3128,-2.3576,-2.383,-2.4918,-2.5615,-2.6049,-2.6049,-2.6367,-2.6691,-2.6691,-2.6725,-2.6621,-2.6277,-2.5922,-2.5523,-2.4998,-2.4611,-2.429,-2.422,-2.4375,-2.4575,-2.4775,-2.5206,-2.5468,-2.5328,-2.5073,-2.4669,-2.3973,-2.3476,-2.2148,-1.9504,-1.8218,-1.6743,-1.4688,-1.286,-1.1493,-1.0813,-0.9408,-0.8,-0.6583,-0.5814,-0.5164,-0.4519,-0.4519,-0.3735,-0.2174,-0.2174,-0.1452,0.0,0.0,0.0783,-1.9854,-1.969,-1.9636,-1.9748,-1.9798,-1.98,-1.98,-1.9355,-1.9134,-1.969,-1.8832,-1.7778,-1.7083,-1.6919,0.0,-1.6823,-1.8166,0.0,-1.9465,-2.128,0.0,-2.2517,0.0,-2.1946,-2.0412,-2.1715,0.0,-2.2677,-2.1934,-2.1958,-2.3053,-2.3092,-2.3107,-2.3083,-2.2249,-2.1202,-1.9939,-2.2015,-2.312,-2.3059,-2.18,-2.091,-2.0366,-2.0085,-1.9683,-1.9365,-2.0009,-2.0782,-2.1542,-2.1661,-2.2128,-2.2798,-2.2705,-2.2872,-2.3024,-2.2265,-2.2477,-2.315,-2.2869,-2.2907,-2.3084,-2.3404,-2.4353,-2.5433,-2.5726,-2.6139,-2.6505,-2.6505,-2.6624,-2.6691,-2.6691,-2.6939,-2.6988,-2.6368,-2.6353,-2.6214,-2.5134,-2.4815,-2.4626,-2.4278,-2.4478,-2.4794,-2.4991,-2.5291,-2.5468,-2.5387,-2.5112,-2.4639,-2.3931,-2.3204,-2.1546,-1.836,-1.7456,-1.6078,-1.3558,-1.2365,-1.1299,-1.0054,-0.8652,-0.7239,-0.5814,-0.5113,-0.468,-0.4519,-0.4519,-0.3735,-0.2174,-0.2174,-0.1452,0.0,0.0,0.0783,-2.0401,-2.0053,-1.9888,-2.0168,-2.0054,-1.9825,-1.9809,-1.7961,-1.6385,-1.6806,-1.6584,0.0,-1.6494,-1.586,0.0,0.0,0.0,0.0,-1.9913,-2.1823,-2.3078,0.0,-2.3078,0.0,-2.1388,-2.237,-2.3479,-2.4545,-2.3119,-2.2454,-2.3071,-2.3083,-2.3082,-2.3128,-2.3084,-2.2629,-2.1738,-2.2603,-2.3078,-2.3078,-2.2115,-2.1432,-2.1164,-2.0782,-2.0526,-2.0462,-2.0974,-2.1678,-2.2445,-2.2445,-2.2702,-2.3138,-2.3484,-2.3677,-2.3728,-2.3165,-2.3391,-2.3999,-2.3615,-2.383,-2.4287,-2.453,-2.5227,-2.6049,-2.6227,-2.647,-2.6725,-2.6906,-2.6954,-2.6954,-2.6954,-2.7272,-2.7455,-2.7035,-2.712,-2.7086,-2.6336,-2.5751,-2.5201,-2.4596,-2.4719,-2.4999,-2.5206,-2.5405,-2.5507,-2.5406,-2.5005,-2.4515,-2.3879,-2.3092,-2.1325,-1.796,-1.7195,-1.5819,-1.3132,-1.194,-1.0889,-0.9783,-0.8081,-0.6666,-0.5542,-0.4838,-0.4519,-0.4519,-0.4519,-0.3735,-0.2174,-0.2174,-0.1452,0.0,0.0,0.0783,-2.086,-2.0335,-1.9964,-2.0605,-2.0169,-1.9535,-1.9377,-1.63,-1.344,-1.3223,0.0,-1.5132,-1.5918,-1.4655,-1.4713,-1.8582,0.0,-1.7781,-2.0366,-2.2105,-2.3088,-2.3125,-2.3115,-2.3131,-2.3108,-2.338,-2.4393,-2.6362,-2.4676,-2.3571,-2.3551,-2.3551,-2.3551,-2.3551,-2.334,-2.3245,-2.3263,-2.3175,-2.3078,-2.3078,-2.2384,-2.2002,-2.1877,-2.1227,-2.1302,-2.1889,-2.2002,-2.2506,-2.3245,-2.3245,-2.3305,-2.3471,-2.4163,-2.4509,-2.4533,-2.3939,-2.4134,-2.4669,-2.3954,-2.4409,-2.5373,-2.5852,-2.6033,-2.6191,-2.659,-2.6725,-2.6841,-2.721,-2.7317,-2.7378,-2.7378,-2.7678,-2.7982,-2.7982,-2.802,-2.8048,-2.7839,-2.684,-2.5734,-2.4979,-2.4972,-2.5182,-2.538,-2.5502,-2.5551,-2.5429,-2.4881,-2.432,-2.3859,-2.3005,-2.1226,-1.796,-1.713,-1.5746,-1.3132,-1.1683,-1.0586,-0.9731,-0.7829,-0.6357,-0.5538,-0.4838,-0.4519,-0.4519,-0.4405,-0.3622,-0.2174,-0.212,-0.1341,0.0,0.0112,0.0895,-2.1542,-2.0695,-1.9811,-1.9977,-1.9246,-1.8213,-1.7283,-1.6027,0.0,0.0,-1.4099,-1.4687,-1.3902,-1.495,-1.5954,-1.6145,0.0,0.0,0.0,0.0,-2.3132,0.0,0.0,-2.3071,-2.307,-2.4795,0.0,-2.6488,-2.6123,-2.5892,-2.5897,-2.5936,-2.5936,-2.5936,-2.4634,-2.4041,-2.3978,-2.3401,-2.3078,-2.3078,-2.2944,-2.2567,-2.1939,-2.2433,-2.2384,-2.1939,-2.2628,-2.3352,-2.4118,-2.4118,-2.4452,-2.5007,-2.5175,-2.5563,-2.5966,-2.4804,-2.5099,-2.5983,-2.5168,-2.5319,-2.5888,-2.5961,-2.6262,-2.659,-2.6691,-2.6939,-2.721,-2.7272,-2.753,-2.7811,-2.7811,-2.8047,-2.8316,-2.8316,-2.8742,-2.8901,-2.7996,-2.6718,-2.5594,-2.5075,-2.5044,-2.5176,-2.5434,-2.5496,-2.5507,-2.5499,-2.4873,-2.4265,-2.3859,-2.2561,-2.0639,-1.7899,-1.6888,-1.5465,-1.3104,-1.2138,-1.109,-0.9783,-0.8285,-0.687,-0.5538,-0.4838,-0.4519,-0.4519,-0.3901,-0.3121,-0.2174,-0.1563,-0.0838,0.0,0.0615,0.1397,-2.1096,-2.0515,-1.9888,-2.0258,-1.9258,-1.776,-1.6057,0.0,0.0,0.0,-1.2928,-1.3204,-1.3195,0.0,0.0,0.0,0.0,0.0,0.0,0.0,0.0,0.0,0.0,-2.4217,0.0,-2.583,-2.6509,-2.6485,-2.6514,-2.6531,-2.6496,-2.6483,-2.6176,-2.5396,-2.4671,-2.4054,-2.3651,-2.3288,-2.3078,-2.3078,-2.3078,-2.2884,-2.2567,-2.2944,-2.2884,-2.2567,-2.3352,-2.3943,-2.435,-2.4738,-2.5063,-2.5453,-2.5837,-2.64,-2.685,-2.586,-2.6061,-2.6767,-2.5912,-2.5762,-2.6049,-2.6297,-2.6521,-2.6691,-2.6691,-2.7004,-2.7348,-2.756,-2.788,-2.8156,-2.8156,-2.8438,-2.8658,-2.8446,-2.8827,-2.8984,-2.8313,-2.7269,-2.6336,-2.5823,-2.5512,-2.5341,-2.548,-2.5533,-2.5535,-2.5452,-2.4693,-2.4069,-2.3821,-2.2306,-2.051,-1.8702,-1.7183,-1.5608,-1.3903,-1.2229,-1.0679,-0.9254,-0.787,-0.6455,-0.5058,-0.468,-0.4519,-0.4519,-0.379,-0.301,-0.2174,-0.1452,-0.0727,0.0,0.0336,0.1118,-2.0472,-2.0168,-1.9964,-2.0515,-1.9371,-1.7529,-1.5477,-1.4168,0.0,0.0,-1.1865,-1.1893,-1.2865,0.0,0.0,0.0,0.0,0.0,0.0,0.0,0.0,0.0,0.0,0.0,-2.6375,-2.6528,0.0,-2.6508,-2.6533,-2.6533,-2.6533,-2.6533,-2.5895,-2.4598,-2.4462,-2.4041,-2.3265,-2.3128,-2.3078,-2.3078,-2.3245,-2.3245,-2.3138,-2.3245,-2.3365,-2.3365,-2.4002,-2.4452,-2.4851,-2.5398,-2.5823,-2.6133,-2.6678,-2.7318,-2.7753,-2.6885,-2.6972,-2.7348,-2.6344,-2.6139,-2.635,-2.6708,-2.6841,-2.6841,-2.6841,-2.7161,-2.7601,-2.7908,-2.8264,-2.854,-2.854,-2.8773,-2.8952,-2.8748,-2.885,-2.892,-2.8688,-2.8007,-2.7258,-2.6586,-2.6088,-2.5725,-2.5523,-2.554,-2.5504,-2.5286,-2.4478,-2.3831,-2.3646,-2.2102,-2.0603,-1.9611,-1.7567,-1.5726,-1.4347,-1.2143,-1.0222,-0.8788,-0.7362,-0.6041,-0.4787,-0.457,-0.4519,-0.4519,-0.379,-0.301,-0.2174,-0.1452,-0.0727,0.0,0.0168,0.0838,-2.0028,-1.9913,-1.9811,-1.9888,-1.8772,-1.7247,-1.5712,0.0,0.0,-1.2597,-1.1964,-1.1794,-1.2373,-1.2881,0.0,0.0,0.0,0.0,0.0,0.0,0.0,0.0,0.0,0.0,-2.6401,-2.6467,-2.6496,-2.6533,-2.6533,-2.6533,-2.6533,-2.6533,-2.6163,-2.5523,-2.4981,-2.4455,-2.3929,-2.3389,-2.3078,-2.3138,-2.3826,-2.3826,-2.3138,-2.3826,-2.4176,-2.4176,-2.4292,-2.5063,-2.6283,-2.6336,-2.7108,-2.8207,-2.8319,-2.867,-2.9035,-2.7721,-2.7542,-2.782,-2.6471,-2.6539,-2.7192,-2.7224,-2.7224,-2.7224,-2.7224,-2.7747,-2.8316,-2.8324,-2.8633,-2.8952,-2.8952,-2.8952,-2.9093,-2.9476,-2.9275,-2.9008,-2.9033,-2.8655,-2.7963,-2.6887,-2.6676,-2.6435,-2.5643,-2.5502,-2.5332,-2.4836,-2.4226,-2.3626,-2.315,-2.1854,-2.0749,-2.019,-1.7843,-1.5409,-1.3175,-1.1639,-1.0187,-0.8776,-0.7374,-0.6258,-0.5433,-0.4842,-0.4519,-0.4519,-0.379,-0.301,-0.2174,-0.1452,-0.0727,0.0,0.0671,0.1062,-1.9283,-1.9608,-1.9736,-1.9419,-1.8445,-1.7267,-1.5874,0.0,-1.3245,-1.214,-1.1199,-1.0847,-1.1751,-1.226,-1.2676,0.0,-1.4495,-1.6089,-1.7589,0.0,0.0,0.0,-2.3211,0.0,0.0,0.0,-2.6088,-2.6496,-2.6533,-2.6533,-2.6533,-2.6533,-2.605,-2.5159,-2.4933,-2.4393,-2.3489,-2.3251,-2.3365,-2.3826,-2.4176,-2.4337,-2.4496,-2.4838,-2.4951,-2.5007,-2.5453,-2.6172,-2.71,-2.755,-2.824,-2.9011,-2.8539,-2.8766,-2.9121,-2.7631,-2.7595,-2.815,-2.7131,-2.7175,-2.7648,-2.7648,-2.7794,-2.7918,-2.7736,-2.8002,-2.8394,-2.8394,-2.8682,-2.8994,-2.8994,-2.9112,-2.9312,-2.9625,-2.9551,-2.9513,-2.9832,-2.9254,-2.8464,-2.7692,-2.7161,-2.6576,-2.5652,-2.5499,-2.5447,-2.5329,-2.4447,-2.3674,-2.334,-2.1949,-2.0585,-1.9459,-1.753,-1.577,-1.454,-1.2192,-1.0391,-0.9386,-0.8006,-0.674,-0.5542,-0.5218,-0.4897,-0.4519,-0.379,-0.3234,-0.2899,-0.1675,-0.095,-0.0671,0.0112,0.0671,-1.8374,-1.8904,-1.9233,-1.8868,-1.8159,-1.7223,0.0,-1.4412,-1.2885,-1.1814,-1.0684,-1.0244,-1.1374,-1.1784,-1.2228,0.0,-1.4038,-1.5044,-1.5892,-1.7105,0.0,0.0,0.0,-2.2992,-2.4532,-2.5454,-2.6013,-2.6496,-2.6533,-2.6445,-2.6214,-2.646,-2.6029,-2.4858,-2.4988,-2.4569,-2.3497,-2.3649,-2.4047,-2.4624,-2.4851,-2.5119,-2.5398,-2.5618,-2.5728,-2.5783,-2.6467,-2.7115,-2.7788,-2.848,-2.9134,-2.9609,-2.8839,-2.8943,-2.9281,-2.7861,-2.7809,-2.831,-2.7687,-2.7736,-2.8047,-2.8047,-2.829,-2.854,-2.8308,-2.8386,-2.859,-2.867,-2.8897,-2.9089,-2.9017,-2.92,-2.9454,-2.9643,-2.9696,-2.9832,-3.0299,-2.9811,-2.9117,-2.8566,-2.7813,-2.6967,-2.6045,-2.5642,-2.5386,-2.5164,-2.4561,-2.3912,-2.3292,-2.2289,-2.0967,-1.9255,-1.776,-1.6256,-1.4789,-1.2455,-1.0527,-0.9179,-0.8231,-0.7122,-0.5869,-0.5597,-0.5273,-0.4787,-0.4067,-0.3511,-0.3065,-0.1952,-0.1174,-0.0783,-0.0224,0.0392,-1.7243,-1.7798,-1.8223,-1.8193,-1.7775,-1.7085,0.0,-1.4383,-1.2885,-1.1814,-1.0684,-1.0244,-1.1374,-1.1588,-1.1958,-1.3034,-1.3801,-1.4444,-1.4849,-1.7099,0.0,0.0,0.0,-2.2558,-2.3097,-2.5159,-2.6521,-2.6533,-2.6533,-2.6214,-2.5636,-2.6284,-2.6091,-2.4833,-2.5508,-2.5366,-2.4305,-2.5007,-2.5398,-2.5398,-2.6122,-2.6122,-2.5398,-2.6176,-2.651,-2.6496,-2.7136,-2.7788,-2.8559,-2.9134,-2.9761,-3.0227,-2.9486,-2.9559,-2.9959,-2.8801,-2.8382,-2.8343,-2.8018,-2.8102,-2.8376,-2.8376,-2.8658,-2.8994,-2.8994,-2.8994,-2.9044,-2.931,-2.9392,-2.933,-2.9067,-2.92,-2.9454,-2.9643,-2.9696,-2.9832,-3.0299,-3.0289,-3.0002,-2.9407,-2.8633,-2.7812,-2.6946,-2.6018,-2.5041,-2.3989,-2.4444,-2.4341,-2.282,-2.2894,-2.2202,-1.9924,-1.8783,-1.6685,-1.3057,-1.2067,-1.0554,-0.7871,-0.7723,-0.7343,-0.6642,-0.5873,-0.5487,-0.5487,-0.4842,-0.3735,-0.2232,-0.2174,-0.1452,0.0,0.0,0.0392,-1.5747,-1.6647,-1.7403,-1.6237,-1.6096,-1.5948,-1.4846,-1.3588,-1.2524,-1.2048,-1.0858,-1.0002,-1.0351,-1.1065,-1.2285,-1.4372,-1.4878,0.0,0.0,0.0,0.0,-2.0231,-2.3085,-2.4784,0.0,-2.5665,-2.6424,-2.5929,-2.637,-2.6362,-2.5844,-2.6481,-2.635,-2.5039,-2.5701,-2.5796,-2.5077,-2.5287,-2.5673,-2.6176,-2.6404,-2.6654,-2.6916,-2.7152,-2.7494,-2.7864,-2.8094,-2.8732,-2.9761,-2.9951,-3.0054,-3.0074,-2.9357,-2.8994,-2.8836,-2.7984,-2.797,-2.8378,-2.8282,-2.8489,-2.8845,-2.9016,-2.9166,-2.931,-2.9436,-2.9375,-2.9289,-2.9372,-2.9412,-2.9392,-2.9289,-2.9435,-2.9643,-2.9861,-3.0052,-3.0234,-3.0424,-3.0465,-3.0273,-2.9562,-2.9238,-2.8772,-2.7843,-2.702,-2.6422,-2.6211,-2.5291,-2.4402,-2.3779,-2.2692,-2.1386,-2.0006,-1.9165,-1.7297,-1.3679,-1.2377,-1.0965,-0.9235,-0.8679,-0.8103,-0.7402,-0.6637,-0.6036,-0.5487,-0.4842,-0.4239,-0.379,-0.2732,-0.1452,0.0,0.0,0.0392,0.0,-1.5369,-1.5968,-1.5112,-1.5001,-1.486,-1.3957,-1.3011,-1.2135,-1.167,-1.0678,-0.999,-1.0254,-1.0665,-1.174,-1.4175,-1.5268,0.0,0.0,0.0,0.0,-2.1399,0.0,0.0,-2.5402,-2.6219,-2.6622,-2.6141,-2.6559,-2.6556,-2.6042,-2.6703,-2.666,-2.5636,-2.6285,-2.6344,-2.5797,-2.6108,-2.6428,-2.693,-2.693,-2.7152,-2.7625,-2.7625,-2.7944,-2.8511,-2.8732,-2.9406,0.0,-3.0576,-3.057,-3.0412,-2.953,-2.9042,-2.8741,-2.8005,-2.8002,-2.842,-2.8565,-2.8773,-2.9044,-2.931,-2.9454,-2.9551,-2.9746,-2.9731,-2.9607,-2.9514,-2.957,-2.9607,-2.9532,-2.9661,-2.9845,-2.9969,-3.0209,-3.0417,-3.0487,-3.0557,-3.0482,-3.0044,-2.9687,-2.9284,-2.869,-2.7694,-2.6953,-2.6891,-2.5746,-2.4729,-2.4229,-2.3009,-2.1706,-2.0406,-1.975,-1.7928,-1.4296,-1.2988,-1.1654,-0.9917,-0.9159,-0.8593,-0.8156,-0.7396,-0.6691,-0.5928,-0.5222,-0.4622,-0.407,-0.2508,-0.134,-0.0392,-0.0114,0.0228,0.0,-1.3934,-1.4079,-1.4519,-1.4257,-1.3791,-1.3245,-1.2558,0.0,-1.0924,-1.0295,-1.0154,-1.0922,-1.0564,-1.0857,-1.3007,0.0,0.0,0.0,-1.7721,0.0,0.0,-2.3993,-2.5124,-2.6187,-2.672,-2.7024,-2.6978,-2.6964,-2.6775,-2.6268,-2.6945,-2.7072,-2.6578,-2.7043,-2.7057,-2.6563,-2.7255,-2.7625,-2.7625,-2.7625,-2.7625,-2.7625,-2.761,-2.7993,-2.8606,-2.918,-2.9805,-3.0435,-3.0975,-3.1157,-3.1009,-2.997,-2.9574,-2.9464,-2.8737,-2.8492,-2.8569,-2.8881,-2.9017,-2.9067,-2.9353,-2.957,-2.978,-2.9969,-3.0013,-2.9969,-2.9763,-2.9861,-2.9954,-2.9763,-2.9861,-3.0013,-3.0013,-3.0209,-3.0417,-3.0487,-3.0565,-3.0626,-3.0685,-3.0032,-2.9484,-2.9467,-2.8118,-2.6893,-2.6418,-2.5924,-2.5274,-2.4301,-2.3754,-2.279,-2.1147,-2.0415,-1.8601,-1.4958,-1.4031,-1.2531,-1.0014,-0.9239,-0.8891,-0.8838,-0.8109,-0.7343,-0.6588,-0.5819,-0.4725,-0.3299,-0.1903,-0.1179,-0.1071,-0.0349,0.0,-1.1282,0.0,-1.2605,-1.1881,-1.192,-1.2219,0.0,-1.1792,-1.1278,0.0,0.0,0.0,0.0,0.0,0.0,0.0,0.0,0.0,-1.7559,0.0,0.0,-2.4542,-2.6012,-2.6721,-2.6245,-2.6821,-2.699,-2.6445,-2.6933,-2.7015,-2.6486,-2.715,-2.7454,-2.7372,-2.7439,-2.7454,-2.7357,-2.7509,-2.7625,-2.7625,-2.7625,-2.7625,-2.7625,-2.8091,-2.8606,-2.9225,-2.9805,-3.0435,-3.1015,-3.1151,-3.0869,-3.0349,-3.0402,-3.026,-2.9982,-2.9502,-2.9522,-2.971,-2.9172,-2.9134,-2.9373,-2.9729,-3.0037,-3.0241,-3.0299,-3.015,-2.9999,-2.9939,-2.9969,-2.9999,-2.9939,-2.9969,-3.0042,-3.0254,-3.0355,-3.0417,-3.0544,-3.0585,-3.0622,-3.0687,-3.0496,-3.0238,-3.0041,-2.9223,-2.84,-2.7822,-2.6623,-2.5551,-2.4986,-2.3755,-2.2548,-2.1611,-2.096,-1.9471,-1.6632,-1.5431,-1.3455,-1.0371,-1.0141,-0.9825,-0.9138,-0.8207,-0.7343,-0.6588,-0.5386,-0.4343,-0.3532,-0.2434,-0.1704,-0.1205,-0.0365,0.0,-1.0251,-1.1335,-1.2303,-1.1936,-1.1923,-1.2084,-1.2512,0.0,0.0,0.0,0.0,0.0,0.0,0.0,0.0,0.0,-1.7063,0.0,0.0,0.0,-2.4269,-2.5709,-2.6916,-2.7388,-2.6903,-2.72,-2.7254,-2.6877,-2.72,-2.7334,-2.7011,-2.7357,-2.7625,-2.7625,-2.7625,-2.7625,-2.7625,-2.7625,-2.7625,-2.7625,-2.7625,-2.7625,-2.7625,-2.8238,-2.8826,-2.9451,-3.0038,-3.0658,-3.119,-3.119,-3.1091,-3.0874,-3.0959,-3.0988,-3.0993,-3.0577,-3.0556,-3.0656,-2.9986,-2.9712,-2.9713,-2.9939,-3.0182,-3.0398,-3.0398,-3.0318,-3.0234,-3.0196,-3.0196,-3.0196,-3.0196,-3.0196,-3.0209,-3.0367,-3.0417,-3.0467,-3.0583,-3.0598,-3.0625,-3.0685,-3.0617,-3.0472,-3.0242,-2.9587,-2.8812,-2.7975,-2.6661,-2.5558,-2.4934,-2.3578,-2.2452,-2.1758,-2.0841,-1.9408,-1.7213,-1.6267,-1.4592,-1.1764,-1.1021,-1.0476,-0.9988,-0.8974,-0.7839,-0.6734,-0.5368,-0.4536,-0.4195,-0.2934,-0.2178,-0.1846,-0.0563,0.0,-1.0084,-1.1305,-1.2569,-1.2761,-1.2619,-1.247,-1.2787,0.0,0.0,0.0,0.0,0.0,0.0,0.0,0.0,0.0,0.0,0.0,-2.2636,-2.4006,-2.5271,-2.6524,-2.7203,-2.7625,-2.7625,-2.7625,-2.7625,-2.7625,-2.7625,-2.7625,-2.7625,-2.7625,-2.7625,-2.7625,-2.7625,-2.7625,-2.7625,-2.7625,-2.7625,-2.7625,-2.7625,-2.7675,-2.776,-2.8367,-2.8966,-2.9585,-3.0166,-3.074,-3.119,-3.119,-3.1449,-3.1792,-3.1577,-3.1765,-3.213,-3.1733,-3.1494,-3.1305,-3.0689,-3.0263,-3.0013,-3.0061,-3.0209,-3.0398,-3.0398,-3.0448,-3.0487,-3.0425,-3.0433,-3.0398,-3.0398,-3.0398,-3.0417,-3.0417,-3.0467,-3.0525,-3.0602,-3.0617,-3.0626,-3.0674,-3.0559,-3.0375,-3.0167,-2.9588,-2.8725,-2.7538,-2.6499,-2.5526,-2.4536,-2.3507,-2.2543,-2.1791,-2.0703,-1.9204,-1.7262,-1.6807,-1.5746,-1.3589,-1.2139,-1.1236,-1.0906,-0.9757,-0.8502,-0.7188,-0.5795,-0.5107,-0.5132,-0.3522,-0.2666,-0.2494,-0.0897,-0.013,-1.095,-1.2183,-1.276,-1.1432,-1.1734,-1.223,0.0,0.0,0.0,0.0,0.0,0.0,0.0,0.0,0.0,0.0,0.0,-2.2062,0.0,0.0,-2.5966,-2.7253,-2.7524,-2.7625,-2.7625,-2.7625,-2.7625,-2.7625,-2.7625,-2.7625,-2.7625,-2.7625,-2.7625,-2.7625,-2.7625,-2.7625,-2.7625,-2.7625,-2.7625,-2.7625,-2.7625,-2.786,-2.8367,-2.9012,-2.9585,-3.0208,-3.0797,-3.1095,-3.119,-3.119,-3.1449,-3.1844,-3.2175,-3.2599,-3.2972,-3.2574,-3.1971,-3.1262,-3.0187,-2.991,-3.0028,-3.0267,-3.0367,-3.0398,-3.0467,-3.0487,-3.0502,-3.05,-3.0472,-3.0467,-3.0398,-3.0448,-3.0487,-3.0487,-3.0544,-3.0602,-3.066,-3.0637,-3.0606,-3.0616,-3.0412,-3.0148,-2.9839,-2.9533,-2.8842,-2.7373,-2.6614,-2.5787,-2.4561,-2.3864,-2.3024,-2.1838,-2.1506,-2.0354,-1.7727,-1.7478,-1.6736,-1.5157,-1.4004,-1.2632,-1.0971,-0.9491,-0.8609,-0.837,-0.6804,-0.6063,-0.6158,-0.4451,-0.329,-0.2644,-0.1595,-0.0734,-0.9956,-1.1259,-1.2207,-1.1747,-1.2696,-1.368,0.0,0.0,0.0,0.0,0.0,0.0,0.0,0.0,0.0,0.0,0.0,-2.3416,-2.5088,-2.5781,-2.65,-2.7485,-2.7625,-2.7625,-2.7625,-2.7625,-2.7625,-2.7625,-2.7625,-2.7625,-2.7625,-2.7625,-2.7625,-2.7625,-2.7625,-2.7625,-2.7625,-2.7625,-2.7625,-2.7625,-2.7625,-2.791,-2.8511,-2.9134,-2.9717,-3.0335,-3.0935,-3.119,-3.119,-3.119,-3.1582,-3.2196,-3.2417,-3.2903,-3.3514,-3.3331,-3.2551,-3.1566,-3.1147,-3.0871,-3.0672,-3.0465,-3.0717,-3.1025,-3.0583,-3.05,-3.0537,-3.0472,-3.0477,-3.0487,-3.0467,-3.0487,-3.0502,-3.0558,-3.0616,-3.0653,-3.0646,-3.0622,-3.058,-3.0546,-3.0303,-3.0003,-2.975,-2.9532,-2.8879,-2.732,-2.6631,-2.5824,-2.4545,-2.3906,-2.3275,-2.2346,-2.1871,-2.0686,-1.8365,-1.7784,-1.6736,-1.4855,-1.3865,-1.2705,-1.1178,-0.9732,-0.8661,-0.8028,-0.6973,-0.6256,-0.5834,-0.4522,-0.3499,-0.2678,-0.1742,-0.0806,-0.9219,-1.0409,-1.163,-1.256,0.0,0.0,-1.5369,0.0,0.0,0.0,0.0,0.0,0.0,0.0,0.0,-2.3233,-2.3774,-2.4612,-2.6138,-2.6632,-2.7006,-2.7565,-2.7625,-2.7625,-2.7625,-2.7625,-2.766,-2.781,-2.781,-2.7845,-2.8027,-2.7894,-2.781,-2.781,-2.766,-2.7675,-2.781,-2.7675,-2.7625,-2.7625,-2.776,-2.814,-2.8732,-2.9316,-2.9935,-3.0518,-3.1015,-3.119,-3.119,-3.119,-3.1714,-3.2484,-3.2484,-3.3027,-3.377,-3.3587,-3.2798,-3.1797,-3.1764,-3.1426,-3.092,-3.0465,-3.0797,-3.1275,-3.0621,-3.0501,-3.0568,-3.0447,-3.0467,-3.0506,-3.0506,-3.0525,-3.0563,-3.0599,-3.0687,-3.0717,-3.0641,-3.0614,-3.0571,-3.0513,-3.0194,-2.9877,-2.9731,-2.9494,-2.8805,-2.7337,-2.6631,-2.5824,-2.4545,-2.3906,-2.3377,-2.274,-2.2197,-2.1062,-1.9016,-1.7901,-1.6557,-1.4845,-1.3846,-1.2816,-1.1757,-1.0525,-0.9352,-0.8272,-0.7416,-0.6658,-0.6017,-0.4882,-0.3882,-0.3011,-0.2076,-0.1141,-1.001,-1.0659,-1.1276,-1.3441,0.0,0.0,-1.5453,0.0,0.0,0.0,0.0,0.0,0.0,-1.8725,-2.3323,-2.2825,-2.4268,-2.551,-2.5659,-2.6722,-2.7565,-2.756,-2.7625,-2.7625,-2.7625,-2.7625,-2.781,-2.8367,-2.8431,-2.8685,-2.9225,-2.8732,-2.8431,-2.8431,-2.7894,-2.786,-2.8415,-2.786,-2.7625,-2.7625,-2.8189,-2.8732,-2.9361,-2.9935,-3.0559,-3.1151,-3.119,-3.119,-3.119,-3.119,-3.1714,-3.2484,-3.2484,-3.3027,-3.3715,-3.2963,-3.2317,-3.17,-3.0958,-3.0433,-3.009,-3.0032,-3.0234,-3.0475,-3.0487,-3.0498,-3.051,-3.0506,-3.0506,-3.0506,-3.0506,-3.0583,-3.0691,-3.0694,-3.0794,-3.0853,-3.0723,-3.0629,-3.0587,-3.0506,-3.0075,-2.9731,-2.9713,-2.9334,-2.8578,-2.7278,-2.6631,-2.5824,-2.4545,-2.3906,-2.3377,-2.274,-2.2649,-2.1791,-1.98,-1.7752,-1.6482,-1.6312,-1.4972,-1.3717,-1.2907,-1.2066,-1.1212,-1.0395,-0.8726,-0.7897,-0.7832,-0.6141,-0.4821,-0.3882,-0.3011,-0.2076,-0.8782,-1.0186,-1.1555,-1.3141,0.0,0.0,0.0,0.0,0.0,0.0,0.0,0.0,0.0,0.0,-2.3518,-2.332,-2.4582,-2.5749,-2.6153,-2.7006,-2.7625,-2.7625,-2.7625,-2.7625,-2.7625,-2.7959,-2.8238,-2.8463,-2.8826,-2.9134,-2.9406,-2.8826,-2.8685,-2.9058,-2.8125,-2.8076,-2.9042,-2.8463,-2.8367,-2.8717,-2.8559,-2.8826,-2.9406,-3.0021,-3.0617,-3.119,-3.119,-3.119,-3.119,-3.119,-3.1545,-3.2127,-3.2713,-3.3284,-3.3752,-3.3458,-3.258,-3.1523,-3.1374,-3.1034,-3.0547,-3.0141,-3.056,-3.1121,-3.0602,-3.0467,-3.0487,-3.0448,-3.0506,-3.0571,-3.0557,-3.0599,-3.0668,-3.0794,-3.0792,-3.0746,-3.0657,-3.0598,-3.0525,-3.0448,-3.0041,-2.9696,-2.9696,-2.9314,-2.8682,-2.7723,-2.7126,-2.6337,-2.5057,-2.443,-2.3864,-2.3319,-2.2532,-2.1363,-1.9699,-1.8051,-1.6757,-1.5864,-1.4805,-1.4085,-1.3786,-1.2504,-1.1392,-1.0577,-0.8854,-0.7762,-0.7177,-0.6013,-0.4888,-0.3949,-0.3078,-0.221,-0.8289,-0.987,-1.1614,0.0,0.0,0.0,0.0,0.0,0.0,0.0,0.0,0.0,0.0,0.0,0.0,0.0,-2.4552,-2.5571,-2.6438,-2.7152,-2.7701,-2.8094,-2.8174,-2.8174,-2.8174,-2.8543,-2.8873,-2.9042,-2.9451,-2.9761,-2.9935,-2.9406,-2.9271,-2.9673,-2.8717,-2.867,-2.9673,-2.9088,-2.9088,-2.9673,-2.9271,-2.9271,-2.9717,-3.0293,-3.0797,-3.119,-3.119,-3.119,-3.119,-3.119,-3.1507,-3.2092,-3.2903,-3.3465,-3.3807,-3.3807,-3.2779,-3.1434,-3.1723,-3.1255,-3.0521,-3.0129,-3.0579,-3.1179,-3.0571,-3.0417,-3.0467,-3.0398,-3.0467,-3.0532,-3.0554,-3.0606,-3.0664,-3.08,-3.0802,-3.0742,-3.0614,-3.0569,-3.0482,-3.0318,-2.9958,-2.9678,-2.9626,-2.9169,-2.8608,-2.7982,-2.7335,-2.6555,-2.5582,-2.4831,-2.4184,-2.3681,-2.2622,-2.1458,-2.0276,-1.8979,-1.7598,-1.6177,-1.5371,-1.4737,-1.4213,-1.287,-1.1757,-1.0933,-0.9238,-0.7962,-0.7111,-0.6203,-0.5348,-0.4417,-0.3547,-0.2609,-0.8942,-0.9903,0.0,0.0,0.0,0.0,0.0,0.0,0.0,0.0,0.0,-2.36,-2.3576,-2.2562,0.0,-2.3385,-2.4178,-2.5062,-2.6342,-2.7053,-2.7966,-2.9204,-2.939,-2.939,-2.939,-2.939,-2.9657,-3.0234,-3.0293,-3.0559,-3.1151,-3.0617,-3.0293,-3.0293,-2.9717,-2.9673,-3.0293,-2.9717,-2.9717,-3.0293,-3.0293,-3.0293,-3.0293,-3.0918,-3.119,-3.119,-3.119,-3.119,-3.119,-3.119,-3.1714,-3.255,-3.2996,-3.3447,-3.3807,-3.3788,-3.2779,-3.1434,-3.1704,-3.0861,-2.9731,-2.9939,-3.0182,-3.0398,-3.0398,-3.0398,-3.0398,-3.0398,-3.0398,-3.0417,-3.0487,-3.06,-3.0703,-3.0703,-3.0801,-3.0843,-3.0636,-3.0602,-3.0477,-3.008,-2.9845,-2.9644,-2.9434,-2.8837,-2.829,-2.7954,-2.7106,-2.637,-2.6033,-2.5067,-2.4184,-2.3681,-2.3054,-2.2452,-2.1758,-2.0455,-1.9089,-1.7688,-1.6922,-1.5786,-1.4264,-1.3425,-1.2634,-1.1834,-1.0148,-0.8877,-0.8027,-0.7111,-0.6268,-0.5362,-0.442,-0.3547,-0.9052,-1.0749,0.0,0.0,0.0,0.0,0.0,0.0,0.0,0.0,0.0,-2.3026,-2.1194,-2.2675,0.0,-2.3538,-2.471,-2.5858,-2.6255,-2.6889,-2.7438,-2.779,-2.7849,-2.7849,-2.7849,-2.8725,-2.9353,-2.9519,-3.0399,-3.1015,-3.119,-3.0617,-3.0477,-3.0918,-2.9951,-2.9892,-3.0918,-3.0335,-3.0351,-3.0918,-3.0918,-3.0699,-3.0293,-3.0918,-3.119,-3.119,-3.119,-3.119,-3.1157,-3.0632,-3.1265,-3.2464,-3.2076,-3.2708,-3.3733,-3.3164,-3.2302,-3.1336,-3.0838,-3.0142,-2.9532,-2.9712,-2.9943,-3.015,-3.0355,-3.0398,-3.0398,-3.0398,-3.0398,-3.0398,-3.0417,-3.053,-3.0639,-3.0697,-3.0687,-3.0662,-3.0605,-3.053,-3.0424,-3.0299,-2.9977,-2.9678,-2.9626,-2.8942,-2.829,-2.7954,-2.7404,-2.6673,-2.5598,-2.4831,-2.4184,-2.3681,-2.3054,-2.2225,-2.104,-2.018,-1.8867,-1.6922,-1.6595,-1.6083,-1.5108,-1.3734,-1.2887,-1.2634,-1.0458,-0.9139,-0.8941,-0.7437,-0.6588,-0.6264,-0.4743,-0.3547,-1.0219,0.0,0.0,0.0,0.0,0.0,0.0,0.0,0.0,0.0,0.0,-2.3101,-2.153,-2.3402,-2.5005,-2.4421,-2.5171,-2.5974,-2.6477,-2.692,-2.7332,-2.7865,-2.7898,-2.7898,-2.7898,-2.8665,-2.9126,-2.9126,-2.9888,-3.0311,-3.0311,-3.0252,-3.0269,-3.0328,-3.0179,-3.0344,-3.0768,-3.0687,-3.0687,-3.0768,-3.0768,-3.0426,-2.9809,-3.0443,-3.092,-3.1173,-3.0886,-3.0768,-3.0734,-3.0294,-3.0778,-3.1721,-3.1298,-3.175,-3.2593,-3.2119,-3.1503,-3.0876,-3.0498,-2.9953,-2.9434,-2.9625,-2.978,-2.9924,-3.0169,-3.0241,-3.0267,-3.0367,-3.0398,-3.0398,-3.0398,-3.0487,-3.0588,-3.0634,-3.0682,-3.0696,-3.0622,-3.0549,-3.0424,-3.0267,-2.9943,-2.9678,-2.9589,-2.8938,-2.829,-2.7954,-2.7409,-2.6623,-2.5357,-2.491,-2.443,-2.3681,-2.3275,-2.25,-2.1137,-2.0677,-1.9583,-1.7523,-1.709,-1.6585,-1.5864,-1.4323,-1.3312,-1.3009,-1.1205,-0.9958,-0.9274,-0.7892,-0.7046,-0.6654,-0.5209,-0.3882,0.0,0.0,0.0,0.0,0.0,0.0,0.0,0.0,0.0,-2.3374,0.0,-2.3584,-2.3585,-2.4547,-2.5422,-2.575,-2.5518,-2.5751,-2.6904,-2.704,-2.7491,-2.8651,-2.8808,-2.8808,-2.8808,-2.8839,-2.8873,-2.8873,-2.8941,-2.9011,-2.9011,-2.9634,-2.9685,-2.9045,-3.0294,-3.0683,-3.0023,-3.0666,-3.0666,-3.0006,-3.0006,-2.9651,-2.9045,-2.9685,-3.0378,-3.0954,-3.0294,-3.0006,-2.9989,-2.9939,-3.0167,-3.0595,-3.0525,-3.0653,-3.0884,-3.0812,-3.0537,-3.0221,-3.0398,-2.9986,-2.9394,-2.9607,-2.9678,-2.9713,-2.9939,-2.9999,-3.0061,-3.0323,-3.0398,-3.0398,-3.0398,-3.0448,-3.0516,-3.0579,-3.0749,-3.0827,-3.0655,-3.0598,-3.0477,-3.0128,-2.9845,-2.9643,-2.9454,-2.886,-2.8272,-2.7897,-2.7178,-2.635,-2.5335,-2.5221,-2.4792,-2.3709,-2.3551,-2.3024,-2.1791,-2.1663,-2.0766,-1.8809,-1.8004,-1.7246,-1.6549,-1.5031,-1.3846,-1.3009,-1.2205,-1.1024,-0.9402,-0.8484,-0.7567,-0.6785,-0.5815,-0.4486,0.0,0.0,0.0,0.0,0.0,0.0,0.0,0.0,0.0,-2.3522,-2.3593,-2.3586,-2.3616,-2.51,-2.6401,-2.6455,-2.641,-2.6486,-2.674,-2.6791,-2.6893,-2.7165,-2.7182,-2.7182,-2.7182,-2.7723,-2.8078,-2.8078,-2.8636,-2.9011,-2.9011,-2.9144,-2.9144,-2.9028,-2.9296,-2.9381,-2.9228,-2.9381,-2.9381,-2.9228,-2.9228,-2.9144,-2.9028,-2.9144,-2.9313,-2.9448,-2.9296,-2.9228,-2.9178,-2.8569,-2.8886,-2.978,-2.919,-2.9766,-3.0812,-3.0125,-3.0028,-3.0118,-2.9545,-2.9237,-2.9134,-2.9373,-2.9455,-2.9532,-2.9893,-2.9999,-3.0061,-3.0323,-3.0398,-3.0398,-3.0398,-3.0448,-3.0518,-3.0584,-3.0633,-3.0663,-3.0687,-3.0591,-3.0494,-3.0419,-3.003,-2.9678,-2.9643,-2.8942,-2.8166,-2.753,-2.7019,-2.635,-2.5335,-2.5221,-2.4792,-2.3709,-2.3201,-2.2589,-2.1758,-2.1245,-2.0357,-1.8821,-1.8004,-1.7246,-1.6549,-1.5031,-1.3846,-1.3009,-1.2205,-1.1281,-1.0301,-0.8742,-0.7897,-0.7697,-0.6145,-0.4821,0.0,0.0,0.0,0.0,0.0,0.0,0.0,0.0,-2.2099,-2.3346,-2.361,-2.3601,-2.3603,-2.5297,-2.6688,-2.6718,-2.6708,-2.6691,-2.6691,-2.6691,-2.6691,-2.6691,-2.6691,-2.6691,-2.6691,-2.7046,-2.7283,-2.7283,-2.7655,-2.7892,-2.7892,-2.823,-2.8264,-2.7892,-2.8638,-2.8805,-2.8433,-2.8789,-2.8789,-2.8433,-2.8433,-2.823,-2.7909,-2.8636,-2.8621,-2.7909,-2.8264,-2.8433,-2.8399,-2.7958,-2.8168,-2.8699,-2.8305,-2.8718,-2.9428,-2.8953,-2.913,-2.9586,-2.914,-2.8994,-2.9017,-2.9178,-2.9203,-2.927,-2.9607,-2.978,-2.9908,-3.0136,-3.0299,-3.0398,-3.0398,-3.0417,-3.0487,-3.0583,-3.0631,-3.0664,-3.0684,-3.0628,-3.055,-3.051,-3.0079,-2.9696,-2.9696,-2.8968,-2.8237,-2.7678,-2.7224,-2.664,-2.5709,-2.5373,-2.491,-2.4074,-2.3478,-2.286,-2.2239,-2.188,-2.1148,-1.9799,-1.8996,-1.8143,-1.709,-1.5948,-1.461,-1.3009,-1.2573,-1.1779,-1.0624,-0.8865,-0.8027,-0.7962,-0.621,-0.4891,0.0,0.0,0.0,0.0,0.0,0.0,0.0,0.0,-2.0287,-2.2478,-2.329,-2.3606,-2.3608,-2.5291,-2.6714,-2.6691,-2.6691,-2.6691,-2.6691,-2.6691,-2.6691,-2.6691,-2.6691,-2.6691,-2.6691,-2.6691,-2.6691,-2.6691,-2.6691,-2.6691,-2.6691,-2.7352,-2.7402,-2.6708,-2.8031,-2.837,-2.7725,-2.8353,-2.8353,-2.7708,-2.7656,-2.73,-2.6725,-2.801,-2.7892,-2.6725,-2.7351,-2.7621,-2.7621,-2.7621,-2.7621,-2.7621,-2.7621,-2.773,-2.7897,-2.7897,-2.8378,-2.8994,-2.8994,-2.8994,-2.8994,-2.8994,-2.8994,-2.9044,-2.931,-2.9551,-2.9729,-2.9954,-3.0196,-3.0398,-3.0398,-3.0398,-3.0417,-3.0544,-3.0626,-3.0683,-3.0694,-3.0646,-3.0574,-3.0505,-3.0079,-2.9696,-2.9643,-2.8964,-2.829,-2.7954,-2.756,-2.7002,-2.6104,-2.5524,-2.4973,-2.4471,-2.3921,-2.3377,-2.274,-2.2694,-2.2221,-2.1028,-2.0194,-1.9193,-1.7993,-1.7135,-1.5698,-1.364,-1.3183,-1.2274,-1.0807,-0.9058,-0.8156,-0.7962,-0.6338,-0.5153,0.0,0.0,0.0,0.0,0.0,0.0,0.0,0.0,-1.9777,0.0,-2.2019,-2.358,-2.3623,-2.5293,-2.6714,-2.6691,-2.6691,-2.6691,-2.6691,-2.6691,-2.6691,-2.6691,-2.6691,-2.6691,-2.6691,-2.6691,-2.6691,-2.6691,-2.6691,-2.6691,-2.6691,-2.7122,-2.7154,-2.6725,-2.7225,-2.7469,-2.7365,-2.7469,-2.7469,-2.7348,-2.7027,-2.6793,-2.6708,-2.6911,-2.6877,-2.6708,-2.6793,-2.6843,-2.6843,-2.6843,-2.6843,-2.6843,-2.6843,-2.7264,-2.7897,-2.7897,-2.8378,-2.8994,-2.8994,-2.8994,-2.8994,-2.8994,-2.8994,-2.9044,-2.931,-2.9551,-2.9729,-2.9954,-3.0196,-3.0398,-3.0398,-3.0398,-3.0417,-3.0506,-3.0563,-3.0626,-3.0684,-3.0645,-3.0574,-3.0505,-3.0079,-2.9643,-2.9474,-2.8865,-2.829,-2.7954,-2.756,-2.7002,-2.6104,-2.5524,-2.4973,-2.4471,-2.3921,-2.3377,-2.274,-2.2694,-2.236,-2.1615,-2.0406,-1.9608,-1.9453,-1.8143,-1.6991,-1.5971,-1.3981,-1.2573,-1.1648,-0.9958,-0.8748,-0.7962,-0.6981,-0.6071,0.0,0.0,0.0,0.0,0.0,0.0,0.0,0.0,-1.9708,-1.9708,-2.0599,-2.1404,-2.1408,-2.4297,-2.6405,-2.5545,-2.6135,-2.6691,-2.6691,-2.6691,-2.6691,-2.6691,-2.6691,-2.6691,-2.6691,-2.6691,-2.6691,-2.6691,-2.6691,-2.6691,-2.6691,-2.6873,-2.6873,-2.6691,-2.6873,-2.7051,-2.7303,-2.7303,-2.7303,-2.7303,-2.7115,-2.6939,-2.6691,-2.6691,-2.6691,-2.6691,-2.6691,-2.6691,-2.6691,-2.6691,-2.6691,-2.6691,-2.6691,-2.7178,-2.7869,-2.7666,-2.8047,-2.8658,-2.8658,-2.8658,-2.8682,-2.8929,-2.8994,-2.9017,-2.9156,-2.9353,-2.957,-2.9782,-3.0003,-3.0209,-3.0355,-3.0398,-3.0417,-3.0525,-3.0586,-3.0642,-3.0778,-3.0702,-3.052,-3.0273,-2.9946,-2.9644,-2.9434,-2.9012,-2.8608,-2.8237,-2.788,-2.7409,-2.6807,-2.6106,-2.5449,-2.491,-2.4389,-2.3822,-2.3231,-2.3187,-2.295,-2.23,-2.1349,-2.0505,-1.971,-1.8744,-1.7665,-1.6497,-1.5032,-1.3665,-1.2403,-1.0279,-0.8843,-0.7962,-0.6597,-0.5752,0.0,0.0,0.0,0.0,0.0,0.0,0.0,0.0,-1.969,-1.969,-1.9723,-1.9708,-1.9708,-2.2561,-2.4661,-2.3907,-2.5076,-2.6117,-2.627,-2.6421,-2.659,-2.6691,-2.6691,-2.6691,-2.6691,-2.6691,-2.6691,-2.6691,-2.6691,-2.6691,-2.6691,-2.6791,-2.6825,-2.6691,-2.6808,-2.7051,-2.7439,-2.756,-2.7572,-2.7572,-2.7378,-2.7147,-2.6841,-2.6758,-2.6691,-2.6691,-2.6691,-2.6691,-2.6691,-2.6691,-2.6691,-2.6691,-2.6691,-2.7115,-2.7707,-2.7409,-2.7718,-2.8272,-2.8272,-2.8342,-2.8446,-2.8749,-2.8929,-2.8994,-2.8994,-2.92,-2.9434,-2.9643,-2.9845,-3.0061,-3.0323,-3.0398,-3.0417,-3.0525,-3.0583,-3.0634,-3.0787,-3.0698,-3.0489,-3.0155,-2.9877,-2.9643,-2.9494,-2.9225,-2.8863,-2.8446,-2.8102,-2.7736,-2.7348,-2.6539,-2.5852,-2.5449,-2.4934,-2.4389,-2.3837,-2.3794,-2.3537,-2.2965,-2.2146,-2.1253,-2.0256,-1.9426,-1.8394,-1.709,-1.6306,-1.5003,-1.3236,-1.0746,-0.9134,-0.8264,-0.6527,-0.562,0.0,0.0,0.0,0.0,0.0,0.0,0.0,0.0,-1.969,-1.969,-1.969,-1.9705,-1.9705,-1.9886,-2.0518,-2.189,-2.3391,-2.4518,-2.5025,-2.5655,-2.6191,-2.6657,-2.6691,-2.6691,-2.6691,-2.6691,-2.6691,-2.6691,-2.6691,-2.6691,-2.6691,-2.7051,-2.7083,-2.6725,-2.7051,-2.7439,-2.7869,-2.8166,-2.835,-2.8324,-2.7631,-2.7303,-2.7272,-2.6873,-2.6691,-2.6691,-2.6691,-2.6691,-2.6691,-2.6691,-2.6691,-2.6691,-2.6691,-2.6971,-2.7317,-2.7303,-2.756,-2.7926,-2.7926,-2.8129,-2.8402,-2.842,-2.8682,-2.8994,-2.8994,-2.92,-2.9434,-2.9643,-2.9845,-3.0061,-3.0323,-3.0398,-3.0398,-3.0398,-3.0506,-3.0593,-3.0599,-3.0558,-3.0475,-3.0398,-3.0007,-2.9696,-2.9678,-2.9314,-2.8863,-2.8446,-2.8102,-2.7736,-2.7348,-2.6539,-2.5997,-2.5961,-2.5503,-2.495,-2.4389,-2.4348,-2.4116,-2.3595,-2.2409,-2.1649,-2.1602,-2.0408,-1.9371,-1.8608,-1.7841,-1.6373,-1.4145,-1.1658,-0.9958,-0.9116,-0.7414,-0.6203,0.0,0.0,0.0,0.0,0.0,0.0,-1.6981,-1.8446,-1.969,-1.969,-1.969,-1.969,-1.969,-1.9705,-2.0125,-2.1459,-2.298,-2.4063,-2.4282,-2.4729,-2.5093,-2.527,-2.571,-2.5998,-2.5998,-2.642,-2.6691,-2.6691,-2.6691,-2.6691,-2.6691,-2.6858,-2.6841,-2.6691,-2.6841,-2.7115,-2.75,-2.8112,-2.829,-2.8075,-2.7823,-2.753,-2.7303,-2.6873,-2.6691,-2.6691,-2.6691,-2.6691,-2.6691,-2.6691,-2.6691,-2.6691,-2.6691,-2.6939,-2.7272,-2.6987,-2.7178,-2.75,-2.75,-2.7572,-2.7776,-2.8246,-2.8515,-2.8658,-2.8929,-2.9067,-2.9181,-2.9435,-2.9643,-2.9829,-2.9946,-3.0052,-3.0157,-3.0239,-3.0472,-3.0652,-3.0604,-3.0586,-3.0525,-3.0417,-3.0022,-2.9696,-2.9696,-2.9314,-2.8952,-2.8815,-2.8281,-2.784,-2.7707,-2.697,-2.6332,-2.6049,-2.5815,-2.5373,-2.4471,-2.4389,-2.4184,-2.3638,-2.2815,-2.2346,-2.2346,-2.1472,-2.0256,-1.8684,-1.8365,-1.7137,-1.4925,-1.1913,-0.9995,-0.9116,-0.6902,-0.5348,0.0,0.0,0.0,0.0,0.0,-1.4556,-1.6431,-1.8323,-1.9705,-1.9692,-1.9698,-1.972,-1.97,-1.9705,-1.9959,-2.0768,-2.1972,-2.2887,-2.3058,-2.3622,-2.4113,-2.4288,-2.4852,-2.5236,-2.5236,-2.5659,-2.5947,-2.5947,-2.5947,-2.5947,-2.5947,-2.5947,-2.6065,-2.6319,-2.6451,-2.6779,-2.7286,-2.7918,-2.8129,-2.7897,-2.7765,-2.756,-2.7303,-2.6873,-2.6691,-2.6691,-2.6691,-2.6691,-2.6691,-2.6691,-2.6691,-2.6691,-2.6691,-2.6873,-2.7051,-2.6808,-2.6873,-2.7083,-2.7083,-2.7178,-2.7378,-2.7872,-2.8192,-2.8446,-2.8725,-2.8887,-2.9062,-2.933,-2.9494,-2.9607,-2.9678,-2.9845,-3.0037,-3.017,-3.0434,-3.0659,-3.0601,-3.0594,-3.0564,-3.0467,-3.0085,-2.978,-2.9713,-2.9395,-2.9112,-2.9017,-2.8482,-2.802,-2.7926,-2.7334,-2.6741,-2.6297,-2.6227,-2.5799,-2.4752,-2.4672,-2.4348,-2.3638,-2.3009,-2.2694,-2.2694,-2.1602,-2.0254,-1.8637,-1.8128,-1.6926,-1.4915,-1.2142,-1.0546,-0.9995,-0.7418,-0.5606,0.0,0.0,0.0,0.0,0.0,0.0,-1.6547,0.0,-1.9624,-1.9686,-1.9649,-1.9611,-1.9648,-1.9634,-1.9639,-1.969,-2.0243,-2.085,-2.1368,-2.2378,-2.3229,-2.3737,-2.4175,-2.4441,-2.4441,-2.4458,-2.4506,-2.4506,-2.4506,-2.4506,-2.4506,-2.4506,-2.4814,-2.5541,-2.5949,-2.6506,-2.7251,-2.766,-2.788,-2.7869,-2.7487,-2.7303,-2.7303,-2.6873,-2.6691,-2.6691,-2.6691,-2.6691,-2.6691,-2.6691,-2.6691,-2.6691,-2.6691,-2.6691,-2.6691,-2.6691,-2.6691,-2.6691,-2.6691,-2.6971,-2.7286,-2.7303,-2.7805,-2.8394,-2.8394,-2.8658,-2.9044,-2.931,-2.9392,-2.9434,-2.9625,-2.9845,-3.0023,-3.0157,-3.0398,-3.0598,-3.0593,-3.06,-3.0587,-3.0506,-3.0234,-2.9954,-2.9729,-2.9533,-2.933,-2.9044,-2.8682,-2.8272,-2.7954,-2.756,-2.7147,-2.6791,-2.6725,-2.6315,-2.5281,-2.5221,-2.4736,-2.3681,-2.3054,-2.274,-2.274,-2.0851,-1.9416,-1.8625,-1.7258,-1.5776,-1.4213,-1.2501,-1.1682,-1.1621,-0.9082,-0.6967,-0.6824,0.0,0.0,0.0,0.0,0.0,0.0,-1.4815,-1.7829,-1.9376,-1.8476,-1.7612,-1.8387,-1.8553,-1.865,-1.9043,-1.9867,-2.045,-2.0609,-2.1189,-2.1648,-2.1779,-2.2651,-2.3217,-2.3217,-2.3984,-2.4506,-2.4506,-2.4506,-2.4506,-2.4506,-2.4506,-2.4608,-2.478,-2.4904,-2.5323,-2.6073,-2.6459,-2.6946,-2.747,-2.7348,-2.7303,-2.7303,-2.6873,-2.6691,-2.6691,-2.6691,-2.6691,-2.6691,-2.6691,-2.6691,-2.6691,-2.6691,-2.6691,-2.6691,-2.6691,-2.6691,-2.6691,-2.6691,-2.6774,-2.6906,-2.721,-2.7648,-2.802,-2.802,-2.8308,-2.859,-2.867,-2.8824,-2.9049,-2.9397,-2.9625,-2.9796,-2.9826,-3.0232,-3.0606,-3.0603,-3.0644,-3.0638,-3.0527,-3.0304,-3.01,-2.9935,-2.9746,-2.9533,-2.9312,-2.8956,-2.8591,-2.8298,-2.7689,-2.7348,-2.753,-2.7051,-2.6402,-2.5684,-2.5363,-2.4736,-2.3681,-2.3465,-2.3334,-2.3334,-2.2831,-2.1492,-1.9292,-1.8891,-1.7181,-1.4213,-1.2501,-1.1381,-1.0718,-0.6919,-0.4847,0.0,0.0,0.0,0.0,0.0,0.0,-0.9976,-1.1908,-1.4118,-1.535,-1.6102,-1.655,-1.6718,-1.7358,-1.7967,-1.8205,-1.8862,-1.9549,-1.9984,-2.0431,-2.0731,-2.0731,-2.1472,-2.205,-2.2221,-2.2881,-2.3348,-2.3579,-2.3579,-2.3579,-2.3579,-2.3579,-2.3714,-2.4019,-2.4036,-2.4391,-2.5118,-2.5367,-2.5695,-2.6124,-2.645,-2.6588,-2.6605,-2.6672,-2.6691,-2.6691,-2.6691,-2.6691,-2.6691,-2.6691,-2.6691,-2.6691,-2.6691,-2.6691,-2.6691,-2.6691,-2.6691,-2.6691,-2.6691,-2.6691,-2.6758,-2.6954,-2.7334,-2.7648,-2.7648,-2.7908,-2.8237,-2.835,-2.8628,-2.8929,-2.9163,-2.9474,-2.9696,-2.9696,-3.0128,-3.0565,-3.0587,-3.0657,-3.0678,-3.06,-3.0434,-3.0278,-3.0119,-2.9935,-2.9765,-2.957,-2.9258,-2.892,-2.8615,-2.8103,-2.7794,-2.7897,-2.7317,-2.6707,-2.6148,-2.577,-2.5182,-2.4307,-2.4266,-2.4266,-2.4266,-2.3533,-2.2343,-2.0721,-1.9912,-1.8042,-1.5052,-1.3159,-1.1272,-0.9319,-0.6067,-0.4111,0.0,-0.8292,0.0,0.0,-0.988,0.0,-0.9749,-0.9708,-0.9773,-0.9885,-1.3229,-1.5769,-1.4603,-1.5979,-1.7163,-1.7015,-1.7515,-1.8335,-1.9442,-1.9914,-2.0177,-2.0212,-2.0616,-2.1055,-2.143,-2.1552,-2.1764,-2.218,-2.2282,-2.231,-2.231,-2.231,-2.2598,-2.3257,-2.3274,-2.363,-2.4388,-2.4388,-2.4438,-2.4523,-2.5152,-2.549,-2.5507,-2.615,-2.6454,-2.6454,-2.6539,-2.6573,-2.6573,-2.6657,-2.6691,-2.6691,-2.6691,-2.6691,-2.6691,-2.6691,-2.6691,-2.6691,-2.6691,-2.6657,-2.6624,-2.6691,-2.6922,-2.7206,-2.7224,-2.75,-2.7908,-2.8264,-2.8608,-2.8905,-2.8994,-2.9295,-2.9624,-2.9677,-3.009,-3.0497,-3.0579,-3.0651,-3.0703,-3.0723,-3.0619,-3.0444,-3.0275,-3.0119,-2.9969,-2.9763,-2.9589,-2.9336,-2.8924,-2.8615,-2.8324,-2.7992,-2.756,-2.7095,-2.6538,-2.6179,-2.5762,-2.5221,-2.5221,-2.5221,-2.5221,-2.3553,-2.254,-2.2392,-2.027,-1.8137,-1.6048,-1.4013,-1.1272,-0.796,-0.625,-0.4287,-0.8709,-0.9283,-0.9957,-0.857,-0.9352,0.0,-0.869,-0.8492,-0.8855,-0.9712,-1.1987,-1.331,-1.1659,-1.3301,-1.4937,-1.4886,-1.5976,-1.7347,-1.8858,-1.9103,-1.9339,-1.9782,-2.0193,-2.0483,-2.055,-2.1197,-2.1658,-2.1718,-2.2106,-2.231,-2.231,-2.231,-2.2378,-2.2513,-2.2513,-2.2868,-2.3596,-2.3613,-2.39,-2.4506,-2.4659,-2.4695,-2.4712,-2.4847,-2.4946,-2.498,-2.5558,-2.5812,-2.5862,-2.6454,-2.6691,-2.6691,-2.6691,-2.6691,-2.6691,-2.6691,-2.6691,-2.6691,-2.6691,-2.6436,-2.6191,-2.659,-2.669,-2.6689,-2.6774,-2.7083,-2.75,-2.788,-2.8047,-2.8255,-2.8858,-2.8975,-2.9101,-2.9569,-2.9994,-3.0325,-3.0554,-3.0658,-3.0723,-3.084,-3.0712,-3.056,-3.0463,-3.0374,-3.0241,-2.9969,-2.9908,-2.9746,-2.9336,-2.8942,-2.8621,-2.8324,-2.7689,-2.7095,-2.6538,-2.6179,-2.5762,-2.5221,-2.5221,-2.5221,-2.5221,-2.4449,-2.3486,-2.2437,-1.8812,-1.6171,-1.4632,-1.3537,-1.1574,-0.8805,-0.7049,-0.4172,-0.9368,-0.9788,-1.0341,-0.9493,-1.0019,0.0,0.0,-0.9154,-0.8804,-0.8807,-0.9685,-1.0188,-0.9269,-1.0495,-1.2121,-1.3526,-1.4601,-1.5776,-1.7115,-1.7988,-1.8612,-1.8855,-1.9325,-1.9707,-1.9954,-2.0552,-2.1134,-2.1552,-2.1823,-2.2032,-2.2282,-2.231,-2.231,-2.231,-2.231,-2.2496,-2.2852,-2.2852,-2.3038,-2.341,-2.3765,-2.3934,-2.3951,-2.4337,-2.4382,-2.4242,-2.4818,-2.4955,-2.4812,-2.578,-2.615,-2.6151,-2.6302,-2.6367,-2.6367,-2.6367,-2.6367,-2.6367,-2.6367,-2.6191,-2.6049,-2.6262,-2.6125,-2.5969,-2.6522,-2.7004,-2.7317,-2.753,-2.7754,-2.8037,-2.8558,-2.8753,-2.895,-2.9551,-2.9901,-3.0184,-3.0482,-3.0605,-3.0684,-3.0781,-3.0714,-3.0624,-3.0565,-3.0487,-3.0393,-3.0209,-3.0089,-2.9924,-2.9731,-2.9439,-2.9079,-2.8664,-2.8359,-2.7851,-2.698,-2.7006,-2.6783,-2.5999,-2.616,-2.6038,-2.5615,-2.5089,-2.3937,-2.2041,-1.9295,-1.7202,-1.5867,-1.3459,-1.0726,-0.7746,-0.5564,-0.222,-1.0246,-1.0348,-1.0725,-1.0722,-1.0915,-1.1047,0.0,0.0,0.0,-0.8201,-0.836,-0.8558,-0.8043,-0.8388,-0.9596,-1.2129,-1.3177,-1.3944,-1.4743,-1.6211,-1.7338,-1.7733,-1.8182,-1.8636,-1.9125,-1.9515,-2.0203,-2.1241,-2.1199,-2.1391,-2.2118,-2.218,-2.2209,-2.231,-2.231,-2.231,-2.231,-2.231,-2.231,-2.231,-2.2902,-2.319,-2.3207,-2.3799,-2.39,-2.3634,-2.4082,-2.4118,-2.3899,-2.4957,-2.5389,-2.5441,-2.5859,-2.6013,-2.6013,-2.6013,-2.6013,-2.6013,-2.6013,-2.5924,-2.5852,-2.5852,-2.5561,-2.5373,-2.628,-2.6791,-2.7098,-2.7255,-2.747,-2.7765,-2.8192,-2.8467,-2.8792,-2.9362,-2.9744,-3.0032,-3.0362,-3.053,-3.0592,-3.0681,-3.0703,-3.0689,-3.064,-3.0565,-3.0506,-3.0417,-3.0247,-3.008,-3.0013,-2.9874,-2.9568,-2.8935,-2.8989,-2.8668,-2.7578,-2.7914,-2.7842,-2.6987,-2.7178,-2.7002,-2.628,-2.5561,-2.4128,-2.1806,-2.0545,-1.8858,-1.6753,-1.3033,-0.9716,-0.663,-0.3533,0.0261,0.0,0.0,-1.1726,-1.0626,-1.1205,-1.1569,-0.9667,0.0,-1.0527,-0.9136,0.0,-1.159,-0.9278,0.0,0.0,-0.9838,-1.1257,-1.2054,-1.1826,-1.2962,-1.4563,-1.647,-1.6754,-1.6964,-1.7497,-1.7773,-1.8596,-2.0229,-1.9698,-1.9971,-2.1592,-2.1688,-2.1869,-2.2282,-2.231,-2.231,-2.231,-2.231,-2.231,-2.231,-2.2395,-2.2429,-2.2446,-2.2513,-2.2519,-2.2512,-2.3211,-2.3482,-2.3519,-2.4306,-2.4611,-2.4715,-2.5643,-2.6013,-2.6013,-2.6013,-2.6013,-2.6013,-2.6013,-2.5689,-2.5297,-2.5297,-2.5259,-2.5297,-2.5888,-2.6104,-2.6298,-2.7098,-2.7083,-2.6987,-2.7765,-2.7964,-2.8148,-2.8769,-2.9323,-2.9845,-3.0164,-3.0375,-3.0548,-3.0676,-3.0703,-3.0703,-3.0698,-3.0625,-3.0564,-3.0506,-3.0501,-3.0401,-3.0047,-3.0087,-2.988,-2.9134,-2.9094,-2.8846,-2.8152,-2.8152,-2.8094,-2.7794,-2.747,-2.7272,-2.7161,-2.5895,-2.429,-2.2361,-2.1685,-1.897,-1.4054,-1.1297,-0.9156,-0.7467,-0.2596,0.2038,0.0,-1.1695,-1.1723,-1.1198,-1.1233,-1.1224,-1.0292,-1.038,-1.0479,-0.9879,0.0,0.0,0.0,0.0,0.0,0.0,-1.0116,-1.0564,-1.0461,-1.1155,-1.2315,-1.4088,-1.4727,-1.5394,-1.6229,-1.657,-1.7285,-1.8644,-1.8702,-1.9238,-2.061,-2.1048,-2.1446,-2.1899,-2.1899,-2.1899,-2.1899,-2.2163,-2.2163,-2.1899,-2.218,-2.231,-2.2282,-2.2032,-2.1899,-2.1915,-2.2215,-2.2348,-2.2428,-2.3439,-2.3849,-2.389,-2.4211,-2.471,-2.5248,-2.4687,-2.4944,-2.5486,-2.5182,-2.4934,-2.4657,-2.4389,-2.4712,-2.5259,-2.5449,-2.5762,-2.6139,-2.6757,-2.6841,-2.6841,-2.7409,-2.7725,-2.8057,-2.8651,-2.9263,-2.978,-3.0018,-3.0299,-3.0516,-3.0571,-3.0651,-3.0703,-3.0703,-3.0677,-3.065,-3.056,-3.0577,-3.0518,-3.0323,-3.0375,-3.015,-2.9418,-2.9585,-2.9324,-2.8279,-2.862,-2.8506,-2.7619,-2.692,-2.642,-2.6092,-2.5227,-2.3853,-2.1963,-1.9453,-1.6647,-1.3603,-0.8763,-0.5099,-0.248,0.1193,0.4697,-1.2138,-1.2088,-1.2106,-1.1674,-1.133,-1.1018,-1.0801,-1.0529,-1.0297,-1.0277,-1.0281,0.0,0.0,0.0,-0.9219,-0.9124,0.0,-0.9581,-0.927,-0.9699,-1.0555,-1.1892,-1.2946,-1.3854,-1.4632,-1.4878,-1.5541,-1.6819,-1.7135,-1.7991,-1.9562,-2.0242,-2.083,-2.143,-2.143,-2.143,-2.143,-2.1781,-2.184,-2.1612,-2.1945,-2.218,-2.2282,-2.1823,-2.1582,-2.1582,-2.1582,-2.1582,-2.1661,-2.266,-2.303,-2.2869,-2.2637,-2.328,-2.4265,-2.3636,-2.4077,-2.495,-2.4552,-2.4307,-2.4116,-2.3724,-2.4116,-2.4792,-2.495,-2.5335,-2.5835,-2.6193,-2.6385,-2.6573,-2.6872,-2.7313,-2.7837,-2.8406,-2.9098,-2.9678,-2.9877,-3.0161,-3.0388,-3.0475,-3.0586,-3.0654,-3.0673,-3.0721,-3.0739,-3.0634,-3.0665,-3.0649,-3.0533,-3.0578,-3.0407,-2.9865,-3.0118,-2.9895,-2.8874,-2.931,-2.9144,-2.7964,-2.7077,-2.636,-2.5729,-2.5329,-2.4245,-2.2386,-1.8672,-1.555,-1.3093,-0.6367,-0.1313,0.2228,0.4856,0.7675,-1.3192,-1.329,-1.3399,-1.1981,-1.1572,-1.1344,-1.0488,-1.0303,-1.029,-1.0288,-1.031,-0.9628,-0.7415,-0.8552,0.0,0.0,-0.9161,0.0,0.0,-0.846,-0.933,-1.0365,-1.1653,-1.2474,-1.2486,-1.2321,-1.2962,-1.4759,-1.4598,-1.5684,-1.8601,-1.9192,-1.9939,-2.0975,-2.1023,-2.1023,-2.1023,-2.1023,-2.1213,-2.1582,-2.1628,-2.1869,-2.2282,-2.1823,-2.1582,-2.1582,-2.1582,-2.1582,-2.1658,-2.2123,-2.2065,-2.1631,-2.1214,-2.1919,-2.3179,-2.3327,-2.384,-2.443,-2.4389,-2.4074,-2.3638,-2.3595,-2.3638,-2.3767,-2.4266,-2.4776,-2.5221,-2.5259,-2.5615,-2.6049,-2.6033,-2.6572,-2.7252,-2.7787,-2.87,-2.9455,-2.9661,-2.9877,-3.0109,-3.0432,-3.0498,-3.0519,-3.0581,-3.076,-3.0859,-3.0723,-3.08,-3.0829,-3.0623,-3.0656,-3.0674,-3.0568,-3.0579,-3.0489,-3.0258,-3.0259,-3.0008,-2.9364,-2.8641,-2.7833,-2.6965,-2.6945,-2.6108,-2.4348,-2.1063,-1.6905,-1.1853,-0.4602,0.0954,0.4928,0.7469,1.1054,-1.3697,-1.3642,-1.3606,-1.2803,-1.2095,-1.1344,-1.038,-1.0059,-0.9917,-0.9776,-0.8897,-0.7878,-0.713,-0.844,0.0,0.0,0.0,0.0,0.0,-0.7901,-0.8359,-0.9237,-1.029,0.0,-1.0756,-1.1206,-1.1926,-1.3006,-1.3574,-1.4784,-1.6884,-1.7963,-1.8967,-1.9907,-2.033,-2.055,-2.055,-2.0829,-2.0926,-2.0732,-2.1321,-2.1538,-2.1415,-2.1291,-2.1213,-2.1213,-2.1213,-2.1337,-2.1658,-2.2106,-2.2032,-2.1552,-2.115,-2.1367,-2.1952,-2.2194,-2.3182,-2.4348,-2.3991,-2.3752,-2.3595,-2.3595,-2.3595,-2.3724,-2.4225,-2.4236,-2.4246,-2.5012,-2.5003,-2.4994,-2.5783,-2.6353,-2.6928,-2.7718,-2.8467,-2.9092,-2.9416,-2.9661,-2.9861,-3.0128,-3.0228,-3.0356,-3.052,-3.0623,-3.0697,-3.0642,-3.0669,-3.0682,-3.0618,-3.0661,-3.0676,-3.0619,-3.0508,-3.0419,-3.0298,-2.9939,-2.9622,-2.941,-2.8929,-2.8345,-2.7691,-2.7648,-2.6992,-2.556,-2.1001,-1.6377,-1.177,0.0507,0.8694,1.2937,1.5367,1.665,-1.374,-1.3649,-1.3648,-1.2977,-1.2282,-1.1496,-1.0364,-0.964,-0.9262,-0.9455,-0.8172,-0.7019,-0.6994,-0.7896,-0.8862,0.0,0.0,0.0,0.0,-0.7677,-0.789,-0.8546,0.0,0.0,0.0,-1.0238,-1.0781,-1.1601,-1.2424,-1.3619,-1.5258,-1.6866,-1.8111,-1.8894,-1.9668,-2.0089,-2.0089,-2.0398,-2.0465,-2.0314,-2.0862,-2.107,-2.0991,-2.0829,-2.0764,-2.0764,-2.0764,-2.0975,-2.143,-2.1869,-2.1811,-2.1368,-2.1086,-2.1023,-2.1133,-2.1542,-2.2733,-2.4032,-2.3493,-2.329,-2.329,-2.329,-2.329,-2.3319,-2.3419,-2.3447,-2.3618,-2.4138,-2.4133,-2.4184,-2.5189,-2.5845,-2.6455,-2.723,-2.8049,-2.8717,-2.8942,-2.9182,-2.9401,-2.9491,-2.9572,-2.9734,-3.0089,-3.0003,-3.0051,-3.0537,-3.0599,-3.0564,-3.0503,-3.0521,-3.0507,-3.0371,-3.0273,-3.0154,-2.9984,-2.9718,-2.9547,-2.9547,-2.8696,-2.8257,-2.8408,-2.764,-2.6876,-2.6107,-2.0244,-1.3756,-0.6719,0.4727,1.2992,1.8228,2.1344,2.228]}]]